[[{"header":{"parameterUnit":"m.s-1","parameterCategory":1,"la1":31.0,"la2":29.5877,"lo1":-88.7671,"lo2":-86.6584,"dy":0.0162,"dx":0.0185,"nx":115,"ny":88,"refTime":"2023-07-01T12:00:00:Z","depth":0,"parameterNumber":2,"parameterNumberName":"U-component_of_WINDS"},"data":[0.0,0.0,0.0,0.0,0.0,0.0,0.0,0.0,0.0,0.0,0.0,0.0,0.0,0.0,0.0,0.0,0.0,0.0,0.0,0.0,0.0,0.0,0.0,0.0,0.0,0.0,0.0,0.0,0.0,0.0,0.0,0.0,0.0,0.0,0.0,0.0,0.0,0.0,0.0,0.0,0.0,0.0,0.0,0.0,0.0,0.0,0.0,0.0,0.0,0.0,0.0,0.0,0.0,0.0,0.0,0.0,0.0,0.0,0.0,0.0,0.0,0.0,0.0,0.0,0.0,0.0,0.0,0.0,0.0,0.0,0.0,0.0,0.0,0.0,0.0,0.0,0.0,0.0,0.0,0.0,0.0,0.0,0.0,0.0,0.0,0.0,0.0,0.0,0.0,0.0,0.0,0.0,0.0,0.0,0.0,0.0,0.0,0.0,0.0,0.0,0.0,0.0,0.0,0.0,0.0,0.0,0.0,0.0,0.0,0.0,0.0,0.0,0.0,0.0,0.0,0.0,0.0,0.0,0.0,0.0,0.0,0.0,0.0,0.0,0.0,0.0,0.0,0.0,0.0,0.0,0.0,0.0,0.0,0.0,0.0,0.0,0.0,0.0,0.0,0.0,0.0,0.0,0.0,0.0,0.0,0.0,0.0,0.0,0.0,0.0,0.0,0.0,0.0,0.0,0.0,0.0,0.0,0.0,0.0,0.0,0.0,0.0,0.0,0.0,0.0,0.0,0.0,0.0,0.0,0.0,0.0,0.0,0.0,0.0,0.0,0.0,0.0,0.0,0.0,0.0,0.0,0.0,0.0,0.0,0.0,0.0,0.0,0.0,0.0,0.0,0.0,0.0,0.0,0.0,0.0,0.0,0.0,0.0,0.0,0.0,0.0,0.0,0.0,0.0,0.0,0.0,0.0,0.0,0.0,0.0,0.0,0.0,0.0,0.0,0.0,0.0,0.0,0.0,0.0,0.0,0.0,0.0,0.0,0.0,0.0,0.0,0.0,0.0,0.0,0.0,0.0,0.0,0.0,0.0,0.0,0.0,0.0,0.0,0.0,0.0,0.0,0.0,0.0,0.0,0.0,0.0,0.0,0.0,0.0,0.0,0.0,0.0,0.0,0.0,0.0,0.0,0.0,0.0,0.0,0.0,0.0,0.0,0.0,0.0,0.0,0.0,0.0,0.0,0.0,0.0,0.0,0.0,0.0,0.0,0.0,0.0,0.0,0.0,0.0,0.0,0.0,0.0,0.0,0.0,0.0,0.0,0.0,0.0,0.0,0.0,0.0,0.0,0.0,0.0,0.0,0.0,0.0,0.0,0.0,0.0,0.0,0.0,0.0,0.0,0.0,0.0,0.0,0.0,0.0,0.0,0.0,0.0,0.0,0.0,0.0,0.0,0.0,0.0,0.0,0.0,0.0,0.0,0.0,0.0,0.0,0.0,0.0,0.0,0.0,0.0,0.0,0.0,0.0,0.0,0.0,0.0,0.0,0.0,0.0,0.0,0.0,0.0,0.0,0.0,0.0,0.0,0.0,0.0,0.0,0.0,0.0,0.0,0.0,0.0,0.0,0.0,0.0,0.0,0.0,0.0,0.0,0.0,0.0,0.0,0.0,0.0,0.0,0.0,0.0,0.0,0.0,0.0,0.0,0.0,0.0,0.0,0.0,0.0,0.0,0.0,0.0,0.0,0.0,0.0,0.0,0.0,0.0,0.0,0.0,0.0,0.0,0.0,0.0,0.0,0.0,0.0,0.0,0.0,0.0,0.0,0.0,0.0,0.0,0.0,0.0,0.0,0.0,0.0,0.0,0.0,0.0,0.0,0.0,0.0,0.0,0.0,0.0,0.0,0.0,0.0,0.0,0.0,0.0,0.0,0.0,0.0,0.0,0.0,0.0,0.0,0.0,0.0,0.0,0.0,0.0,0.0,0.0,0.0,0.0,0.0,0.0,0.0,0.0,0.0,0.0,0.0,0.0,0.0,0.0,0.0,0.0,0.0,0.0,0.0,0.0,0.0,0.0,0.0,0.0,0.0,0.0,0.0,0.0,0.0,0.0,0.0,0.0,0.0,0.0,0.0,0.0,0.0,0.0,0.0,0.0,0.0,0.0,0.0,0.0,0.0,0.0,0.0,0.0,0.0,0.0,0.0,0.0,0.0,0.0,0.0,0.0,0.0,0.0,0.0,0.0,0.0,0.0,0.0,0.0,0.0,0.0,0.0,0.0,0.0,0.0,0.0,0.0,0.0,0.0,0.0,0.0,0.0,0.0,0.0,0.0,0.0,0.0,0.0,0.0,0.0,0.0,0.0,0.0,0.0,0.0,0.0,0.0,0.0,0.0,0.0,0.0,0.0,0.0,0.0,0.0,0.0,0.0,0.0,0.0,0.0,0.0,0.0,0.0,0.0,0.0,0.0,0.0,0.0,0.0,0.0,0.0,0.0,0.0,0.0,0.0,0.0,0.0,0.0,0.0,0.0,0.0,0.0,0.0,0.0,0.0,0.0,0.0,0.0,0.0,0.0,0.0,0.0,0.0,0.0,0.0,0.0,0.0,0.0,0.0,0.0,0.0,0.0,0.0,0.0,0.0,0.0,0.0,0.0,0.0,0.0,0.0,0.0,0.0,0.0,0.0,0.0,0.0,0.0,0.0,0.0,0.0,0.0,0.0,0.0,0.0,0.0,0.0,0.0,0.0,0.0,0.0,0.0,0.0,0.0,0.0,0.0,0.0,0.0,0.0,0.0,0.0,0.0,0.0,0.0,0.0,0.0,0.0,0.0,0.0,0.0,0.0,0.0,0.0,0.0,0.0,0.0,0.0,0.0,0.0,0.0,0.0,0.0,0.0,0.0,0.0,0.0,0.0,0.0,0.0,0.0,0.0,0.0,0.0,0.0,0.0,0.0,0.0,0.0,0.0,0.0,0.0,0.0,0.0,0.0,0.0,0.0,0.0,0.0,0.0,0.0,0.0,0.0,0.0,0.0,0.0,0.0,0.0,0.0,0.0,0.0,0.0,0.0,0.0,0.0,0.0,0.0,0.0,0.0,0.0,0.0,0.0,0.0,0.0,0.0,0.0,0.0,0.0,0.0,0.0,0.0,0.0,0.0,0.0,0.0,0.0,0.0,0.0,0.0,0.0,0.0,0.0,0.0,0.0,0.0,0.0,0.0,0.0,0.0,0.0,0.0,0.0,0.0,0.0,0.0,0.0,0.0,0.0,0.0,0.0,0.0,0.0,0.0,0.0,0.0,0.0,0.0,0.0,0.0,0.0,0.0,0.0,0.0,0.0,0.0,0.0,0.0,0.0,0.0,0.0,0.0,0.0,0.0,0.0,0.0,0.0,0.0,0.0,0.0,0.0,0.0,0.0,0.0,0.0,0.0,0.0,0.0,0.0,0.0,0.0,0.0,0.0,0.0,0.0,0.0,0.0,0.0,0.0,0.0,0.0,0.0,0.0,0.0,0.0,0.0,0.0,0.0,0.0,0.0,0.0,0.0,0.0,0.0,0.0,0.0,0.0,0.0,0.0,0.0,0.0,0.0,0.0,0.0,0.0,0.0,0.0,0.0,0.0,0.0,0.0,0.0,0.0,0.0,0.0,0.0,0.0,0.0,0.0,0.0,0.0,0.0,0.0,0.0,0.0,0.0,0.0,0.0,0.0,0.0,0.0,0.0,0.0,0.0,0.0,0.0,0.0,0.0,0.0,0.0,0.0,0.0,0.0,0.0,0.0,0.0,0.0,0.0,0.0,0.0,0.0,0.0,0.0,0.0,0.0,0.0,0.0,0.0,0.0,0.0,0.0,0.0,0.0,0.0,0.0,0.0,0.0,0.0,0.0,0.0,0.0,0.0,0.0,0.0,0.0,0.0,0.0,0.0,0.0,0.0,0.0,0.0,0.0,0.0,0.0,0.0,0.0,0.0,0.0,0.0,0.0,0.0,0.0,0.0,0.0,0.0,0.0,0.0,0.0,0.0,0.0,0.0,0.0,0.0,0.0,0.0,0.0,0.0,0.0,0.0,0.0,0.0,0.0,0.0,0.0,0.0,0.0,0.0,0.0,0.0,0.0,0.0,0.0,0.0,0.0,0.0,0.0,0.0,0.0,0.0,0.0,0.0,0.0,0.0,0.0,0.0,0.0,0.0,0.0,0.0,0.0,0.0,0.0,0.0,0.0,0.0,0.0,0.0,0.0,0.0,0.0,0.0,0.0,0.0,0.0,0.0,0.0,0.0,0.0,0.0,0.0,0.0,0.0,0.0,0.0,0.0,0.0,0.0,-1.7264,0.0,0.0,0.0,0.0,0.0,0.0,0.0,0.0,0.0,0.0,0.0,0.0,0.0,0.0,0.0,0.0,0.0,0.0,0.0,0.0,0.0,0.0,0.0,0.0,0.0,0.0,0.0,0.0,0.0,0.0,0.0,0.0,0.0,0.0,0.0,0.0,0.0,0.0,0.0,0.0,0.0,0.0,0.0,0.0,0.0,0.0,0.0,0.0,0.0,0.0,0.0,0.0,0.0,0.0,0.0,0.0,0.0,0.0,0.0,0.0,0.0,0.0,0.0,0.0,0.0,0.0,0.0,0.0,0.0,0.0,0.0,0.0,0.0,0.0,0.0,0.0,0.0,0.0,0.0,0.0,0.0,0.0,0.0,0.0,0.0,0.0,0.0,0.0,0.0,0.0,0.0,0.0,0.0,0.0,0.0,0.0,0.0,0.0,0.0,0.0,0.0,0.0,0.0,0.0,0.0,0.0,0.0,0.0,0.0,0.0,-1.4511,-1.5621,-1.5407,-1.5875,-1.722,0.0,0.0,0.0,0.0,0.0,0.0,0.0,0.0,0.0,0.0,0.0,0.0,0.0,0.0,0.0,0.0,0.0,0.0,0.0,0.0,0.0,0.0,0.0,0.0,0.0,0.0,0.0,0.0,0.0,0.0,0.0,0.0,0.0,0.0,0.0,0.0,0.0,0.0,0.0,0.0,0.0,0.0,0.0,0.0,0.0,0.0,0.0,0.0,0.0,0.0,0.0,0.0,0.0,0.0,0.0,0.0,0.0,0.0,0.0,0.0,0.0,0.0,0.0,0.0,0.0,0.0,0.0,0.0,0.0,0.0,0.0,0.0,0.0,0.0,0.0,0.0,0.0,0.0,0.0,0.0,0.0,0.0,0.0,0.0,0.0,0.0,0.0,0.0,0.0,0.0,0.0,0.0,0.0,0.0,0.0,0.0,0.0,0.0,0.0,0.0,0.0,0.0,0.0,0.0,0.0,0.0,0.0,0.0,0.0,0.0,0.0,0.0,-1.553,-1.6033,-1.7459,0.0,0.0,0.0,0.0,0.0,0.0,0.0,0.0,0.0,0.0,0.0,0.0,0.0,0.0,0.0,0.0,0.0,0.0,0.0,0.0,0.0,0.0,0.0,0.0,0.0,0.0,0.0,0.0,0.0,0.0,0.0,0.0,0.0,0.0,0.0,0.0,0.0,0.0,0.0,0.0,0.0,0.0,0.0,0.0,0.0,0.0,0.0,0.0,0.0,0.0,0.0,0.0,0.0,0.0,0.0,0.0,0.0,0.0,0.0,0.0,0.0,0.0,0.0,0.0,0.0,0.0,0.0,0.0,0.0,0.0,0.0,0.0,0.0,0.0,0.0,0.0,0.0,0.0,0.0,0.0,0.0,0.0,0.0,0.0,0.0,0.0,0.0,0.0,0.0,0.0,0.0,0.0,0.0,0.0,0.0,0.0,0.0,0.0,0.0,0.0,0.0,0.0,0.0,0.0,0.0,0.0,0.0,0.0,0.0,0.0,-1.4569,-1.554,-1.6441,0.0,-1.8379,0.0,0.0,0.0,0.0,0.0,0.0,0.0,0.0,0.0,0.0,0.0,0.0,0.0,0.0,0.0,0.0,0.0,0.0,0.0,0.0,0.0,0.0,0.0,0.0,0.0,0.0,0.0,0.0,0.0,0.0,0.0,0.0,0.0,0.0,0.0,0.0,0.0,0.0,0.0,0.0,0.0,0.0,0.0,0.0,0.0,0.0,0.0,0.0,0.0,0.0,0.0,0.0,0.0,0.0,0.0,0.0,0.0,0.0,0.0,0.0,0.0,0.0,0.0,0.0,0.0,0.0,0.0,0.0,0.0,0.0,0.0,0.0,0.0,0.0,0.0,0.0,0.0,0.0,0.0,0.0,0.0,0.0,0.0,0.0,0.0,0.0,0.0,0.0,0.0,0.0,0.0,0.0,0.0,0.0,0.0,0.0,0.0,0.0,0.0,0.0,0.0,0.0,0.0,0.0,0.0,0.0,0.0,0.0,0.0,0.0,-1.4514,-1.6052,-1.738,-1.8002,0.0,0.0,0.0,0.0,0.0,0.0,0.0,0.0,0.0,0.0,0.0,0.0,0.0,0.0,0.0,0.0,0.0,0.0,0.0,0.0,0.0,0.0,0.0,0.0,0.0,0.0,0.0,0.0,0.0,0.0,0.0,0.0,0.0,0.0,0.0,0.0,0.0,0.0,0.0,0.0,0.0,0.0,0.0,0.0,0.0,0.0,0.0,0.0,0.0,0.0,0.0,0.0,0.0,0.0,0.0,0.0,0.0,0.0,0.0,0.0,0.0,0.0,0.0,0.0,0.0,0.0,0.0,0.0,0.0,0.0,0.0,0.0,0.0,0.0,0.0,0.0,0.0,0.0,0.0,0.0,0.0,0.0,0.0,0.0,0.0,0.0,0.0,0.0,0.0,0.0,0.0,0.0,0.0,0.0,0.0,0.0,0.0,0.0,0.0,0.0,0.0,0.0,0.0,0.0,0.0,0.0,0.0,0.0,0.0,0.0,-1.3694,-1.4525,-1.6797,-1.789,-1.8096,-1.7626,0.0,0.0,0.0,0.0,0.0,0.0,0.0,0.0,0.0,0.0,0.0,0.0,0.0,0.0,0.0,0.0,0.0,0.0,0.0,0.0,0.0,0.0,0.0,0.0,0.0,0.0,0.0,0.0,0.0,0.0,0.0,0.0,0.0,0.0,0.0,0.0,0.0,0.0,0.0,0.0,0.0,0.0,0.0,0.0,0.0,0.0,0.0,0.0,0.0,0.0,0.0,0.0,0.0,0.0,0.0,0.0,0.0,0.0,0.0,0.0,0.0,0.0,0.0,0.0,0.0,0.0,0.0,0.0,0.0,0.0,0.0,0.0,0.0,0.0,0.0,0.0,0.0,0.0,0.0,0.0,0.0,0.0,0.0,0.0,0.0,0.0,0.0,0.0,0.0,0.0,0.0,0.0,0.0,0.0,0.0,0.0,0.0,0.0,0.0,0.0,0.0,0.0,0.0,0.0,0.0,0.0,0.0,0.0,-1.5695,-1.4152,-1.4789,-1.7891,-1.7532,-1.7657,0.0,0.0,0.0,0.0,0.0,0.0,0.0,0.0,0.0,0.0,0.0,0.0,0.0,0.0,0.0,0.0,0.0,0.0,0.0,0.0,0.0,0.0,0.0,0.0,0.0,0.0,0.0,0.0,0.0,0.0,0.0,0.0,0.0,0.0,0.0,0.0,0.0,0.0,0.0,0.0,0.0,0.0,0.0,0.0,0.0,0.0,0.0,0.0,0.0,0.0,0.0,0.0,0.0,0.0,0.0,0.0,0.0,0.0,0.0,0.0,0.0,0.0,0.0,0.0,0.0,0.0,0.0,0.0,0.0,0.0,0.0,0.0,0.0,0.0,0.0,0.0,0.0,0.0,0.0,0.0,0.0,0.0,0.0,0.0,0.0,0.0,0.0,0.0,0.0,0.0,0.0,0.0,0.0,0.0,0.0,0.0,0.0,0.0,0.0,0.0,0.0,0.0,0.0,0.0,0.0,0.0,0.0,0.0,0.0,-1.4521,-1.5469,-1.6665,-1.8159,-1.8722,-1.8931,0.0,0.0,0.0,0.0,0.0,0.0,0.0,0.0,0.0,0.0,0.0,0.0,0.0,0.0,0.0,0.0,0.0,0.0,0.0,0.0,0.0,0.0,0.0,0.0,0.0,0.0,0.0,0.0,0.0,0.0,0.0,0.0,0.0,0.0,0.0,0.0,0.0,0.0,0.0,0.0,0.0,0.0,0.0,0.0,0.0,0.0,0.0,0.0,0.0,0.0,0.0,0.0,0.0,0.0,0.0,0.0,0.0,0.0,0.0,0.0,0.0,0.0,0.0,0.0,0.0,0.0,0.0,0.0,0.0,0.0,0.0,0.0,0.0,0.0,0.0,0.0,0.0,0.0,0.0,0.0,0.0,0.0,0.0,0.0,0.0,0.0,0.0,0.0,0.0,0.0,0.0,0.0,0.0,0.0,0.0,0.0,0.0,0.0,0.0,0.0,0.0,0.0,0.0,0.0,0.0,0.0,0.0,0.0,0.0,-1.4203,0.0,-1.7908,-1.8201,-1.9159,-1.9358,0.0,0.0,0.0,0.0,0.0,0.0,0.0,0.0,0.0,0.0,0.0,0.0,0.0,0.0,0.0,0.0,0.0,0.0,0.0,0.0,0.0,0.0,0.0,0.0,0.0,0.0,0.0,0.0,0.0,0.0,0.0,0.0,0.0,0.0,0.0,0.0,0.0,0.0,0.0,0.0,0.0,0.0,0.0,0.0,0.0,0.0,0.0,0.0,0.0,0.0,0.0,0.0,0.0,0.0,0.0,0.0,0.0,0.0,0.0,0.0,0.0,0.0,0.0,0.0,0.0,0.0,0.0,0.0,0.0,0.0,0.0,0.0,0.0,0.0,0.0,0.0,0.0,0.0,0.0,0.0,0.0,0.0,0.0,0.0,0.0,0.0,0.0,0.0,0.0,0.0,0.0,0.0,0.0,0.0,0.0,0.0,0.0,0.0,0.0,0.0,0.0,0.0,0.0,0.0,0.0,0.0,0.0,0.0,-1.4393,-1.5168,-1.7129,-1.8149,-1.8055,-1.8725,-1.8757,0.0,0.0,0.0,0.0,0.0,0.0,0.0,0.0,0.0,0.0,0.0,0.0,0.0,0.0,0.0,0.0,0.0,0.0,0.0,0.0,0.0,0.0,0.0,0.0,0.0,0.0,0.0,0.0,0.0,0.0,0.0,0.0,0.0,0.0,0.0,0.0,0.0,0.0,0.0,0.0,0.0,0.0,0.0,0.0,0.0,0.0,0.0,0.0,0.0,0.0,0.0,0.0,0.0,0.0,0.0,0.0,0.0,0.0,0.0,0.0,0.0,0.0,0.0,0.0,0.0,0.0,0.0,0.0,0.0,0.0,0.0,0.0,0.0,0.0,0.0,0.0,0.0,0.0,0.0,0.0,0.0,0.0,0.0,0.0,0.0,0.0,0.0,0.0,0.0,0.0,0.0,0.0,0.0,0.0,0.0,0.0,0.0,0.0,0.0,0.0,0.0,0.0,0.0,0.0,0.0,0.0,0.0,0.0,0.0,-1.6638,-1.7679,-1.8632,-1.9384,-1.9333,-1.9494,0.0,0.0,0.0,0.0,0.0,0.0,0.0,0.0,0.0,0.0,0.0,0.0,0.0,0.0,0.0,0.0,0.0,0.0,0.0,0.0,0.0,0.0,0.0,0.0,0.0,0.0,0.0,0.0,0.0,0.0,0.0,0.0,0.0,0.0,0.0,0.0,0.0,0.0,0.0,0.0,0.0,0.0,0.0,0.0,0.0,0.0,0.0,0.0,0.0,0.0,0.0,0.0,0.0,0.0,0.0,0.0,0.0,0.0,0.0,0.0,0.0,0.0,0.0,0.0,0.0,0.0,0.0,0.0,0.0,0.0,0.0,0.0,0.0,0.0,0.0,0.0,0.0,0.0,0.0,0.0,0.0,0.0,0.0,0.0,0.0,0.0,0.0,0.0,0.0,0.0,0.0,0.0,0.0,0.0,0.0,0.0,0.0,0.0,0.0,0.0,0.0,0.0,0.0,0.0,0.0,0.0,0.0,0.0,0.0,-1.7022,-1.7839,-1.8658,-1.9526,-1.9395,-1.959,-2.0094,0.0,0.0,0.0,0.0,0.0,0.0,0.0,0.0,0.0,0.0,0.0,0.0,0.0,0.0,0.0,0.0,0.0,0.0,0.0,0.0,0.0,0.0,0.0,0.0,0.0,0.0,0.0,0.0,0.0,0.0,0.0,0.0,0.0,0.0,0.0,0.0,0.0,0.0,0.0,0.0,0.0,0.0,0.0,0.0,0.0,0.0,0.0,0.0,0.0,0.0,0.0,0.0,0.0,0.0,0.0,0.0,0.0,0.0,0.0,0.0,0.0,0.0,0.0,0.0,0.0,0.0,0.0,0.0,0.0,0.0,0.0,0.0,0.0,0.0,0.0,0.0,0.0,0.0,0.0,0.0,0.0,0.0,0.0,0.0,0.0,0.0,0.0,0.0,0.0,0.0,0.0,0.0,0.0,0.0,0.0,0.0,0.0,0.0,0.0,0.0,0.0,0.0,0.0,0.0,0.0,0.0,0.0,0.0,-1.6507,-1.7637,-1.843,-1.8758,-1.9037,-1.9159,0.0,0.0,0.0,0.0,0.0,0.0,0.0,0.0,0.0,0.0,0.0,0.0,0.0,0.0,0.0,0.0,0.0,0.0,0.0,0.0,0.0,0.0,0.0,0.0,0.0,0.0,0.0,0.0,0.0,0.0,0.0,0.0,0.0,0.0,0.0,0.0,0.0,0.0,0.0,0.0,0.0,0.0,0.0,0.0,0.0,0.0,0.0,0.0,0.0,0.0,0.0,0.0,0.0,0.0,0.0,0.0,0.0,0.0,0.0,0.0,0.0,0.0,0.0,0.0,0.0,0.0,0.0,0.0,0.0,0.0,0.0,0.0,0.0,0.0,0.0,0.0,0.0,0.0,0.0,0.0,0.0,0.0,0.0,0.0,0.0,0.0,0.0,0.0,0.0,0.0,0.0,0.0,0.0,0.0,0.0,0.0,0.0,0.0,0.0,0.0,0.0,0.0,0.0,0.0,0.0,0.0,0.0,0.0,0.0,-1.656,-1.8125,-1.9456,-2.0344,-1.9966,-1.9875,0.0,0.0,0.0,0.0,0.0,0.0,0.0,0.0,0.0,0.0,0.0,0.0,0.0,0.0,0.0,0.0,0.0,0.0,0.0,0.0,0.0,0.0,0.0,0.0,0.0,0.0,0.0,0.0,0.0,0.0,0.0,0.0,0.0,0.0,0.0,0.0,0.0,0.0,0.0,0.0,0.0,0.0,0.0,0.0,0.0,0.0,0.0,0.0,0.0,0.0,0.0,0.0,0.0,0.0,0.0,0.0,0.0,0.0,0.0,0.0,0.0,0.0,0.0,0.0,0.0,0.0,0.0,0.0,0.0,0.0,0.0,0.0,0.0,0.0,0.0,0.0,0.0,0.0,0.0,0.0,0.0,0.0,0.0,0.0,0.0,0.0,0.0,0.0,0.0,0.0,0.0,0.0,0.0,0.0,0.0,0.0,0.0,0.0,0.0,0.0,0.0,0.0,0.0,0.0,0.0,0.0,0.0,0.0,-1.6814,-1.652,-1.8072,-1.9433,-2.0419,-2.0494,-2.0269,0.0,0.0,0.0,0.0,0.0,0.0,0.0,0.0,0.0,0.0,0.0,0.0,0.0,0.0,0.0,0.0,0.0,0.0,0.0,0.0,0.0,0.0,0.0,0.0,0.0,0.0,0.0,0.0,0.0,0.0,0.0,0.0,0.0,0.0,0.0,0.0,0.0,0.0,0.0,0.0,0.0,0.0,0.0,0.0,0.0,0.0,0.0,0.0,0.0,0.0,0.0,0.0,0.0,0.0,0.0,0.0,0.0,0.0,0.0,0.0,0.0,0.0,0.0,0.0,0.0,0.0,0.0,0.0,0.0,0.0,0.0,0.0,0.0,0.0,0.0,0.0,0.0,0.0,0.0,0.0,0.0,0.0,0.0,0.0,0.0,0.0,0.0,0.0,0.0,0.0,0.0,0.0,0.0,0.0,0.0,0.0,0.0,0.0,0.0,0.0,0.0,0.0,0.0,0.0,0.0,0.0,0.0,0.0,-1.6725,-1.652,-1.7783,-1.885,-1.9646,-2.0501,-2.028,0.0,0.0,0.0,0.0,0.0,0.0,0.0,0.0,0.0,0.0,0.0,0.0,0.0,0.0,0.0,0.0,0.0,0.0,0.0,0.0,0.0,0.0,0.0,0.0,0.0,0.0,0.0,0.0,0.0,0.0,0.0,0.0,0.0,0.0,0.0,0.0,0.0,0.0,0.0,0.0,0.0,0.0,0.0,0.0,0.0,0.0,0.0,0.0,0.0,0.0,0.0,0.0,0.0,0.0,0.0,0.0,0.0,0.0,0.0,0.0,0.0,0.0,0.0,0.0,0.0,0.0,0.0,0.0,0.0,0.0,0.0,0.0,0.0,0.0,0.0,0.0,0.0,0.0,0.0,0.0,0.0,0.0,0.0,0.0,0.0,0.0,0.0,0.0,0.0,0.0,0.0,0.0,0.0,0.0,0.0,0.0,0.0,0.0,0.0,0.0,0.0,0.0,0.0,0.0,0.0,0.0,0.0,0.0,-1.588,-1.6507,-1.8058,-1.91,-1.9551,-1.9597,-1.9246,0.0,0.0,0.0,0.0,0.0,0.0,0.0,0.0,0.0,0.0,0.0,0.0,0.0,0.0,0.0,0.0,0.0,0.0,0.0,0.0,0.0,0.0,0.0,0.0,0.0,0.0,0.0,0.0,0.0,0.0,0.0,0.0,0.0,0.0,0.0,0.0,0.0,0.0,0.0,0.0,0.0,0.0,0.0,0.0,0.0,0.0,0.0,0.0,-1.3362,0.0,0.0,0.0,0.0,0.0,0.0,0.0,0.0,0.0,0.0,0.0,0.0,0.0,0.0,0.0,0.0,0.0,0.0,0.0,0.0,0.0,0.0,0.0,0.0,0.0,0.0,0.0,0.0,0.0,0.0,0.0,0.0,0.0,0.0,0.0,0.0,0.0,0.0,0.0,0.0,0.0,0.0,0.0,0.0,0.0,0.0,0.0,0.0,0.0,0.0,0.0,0.0,0.0,0.0,0.0,0.0,0.0,0.0,0.0,-1.5996,-1.6809,-1.7704,-1.8344,-1.8671,-1.8726,-1.8693,0.0,0.0,0.0,0.0,0.0,0.0,0.0,0.0,0.0,0.0,0.0,0.0,0.0,0.0,0.0,0.0,0.0,0.0,0.0,0.0,0.0,0.0,0.0,0.0,0.0,0.0,0.0,0.0,0.0,0.0,0.0,0.0,0.0,0.0,0.0,0.0,0.0,0.0,0.0,0.0,0.0,0.0,0.0,0.0,0.0,0.0,0.0,0.0,0.0,0.0,0.0,0.0,0.0,0.0,0.0,0.0,0.0,0.0,0.0,0.0,0.0,0.0,0.0,0.0,0.0,0.0,0.0,0.0,0.0,0.0,0.0,0.0,0.0,0.0,0.0,0.0,0.0,0.0,0.0,0.0,0.0,0.0,0.0,0.0,0.0,0.0,0.0,0.0,0.0,0.0,0.0,0.0,0.0,0.0,0.0,0.0,0.0,0.0,0.0,0.0,0.0,0.0,0.0,0.0,0.0,0.0,0.0,-1.6181,-1.6318,-1.7173,-1.7212,-1.7393,-1.7787,-1.8069,-1.8347,-1.8697,0.0,0.0,0.0,0.0,0.0,0.0,0.0,0.0,0.0,0.0,0.0,0.0,0.0,0.0,0.0,0.0,0.0,0.0,0.0,0.0,0.0,0.0,0.0,0.0,0.0,0.0,0.0,0.0,0.0,0.0,0.0,0.0,0.0,0.0,0.0,0.0,0.0,0.0,-1.3694,-1.3676,0.0,0.0,0.0,0.0,0.0,0.0,0.0,0.0,-1.3638,0.0,0.0,0.0,0.0,0.0,0.0,0.0,0.0,0.0,0.0,0.0,0.0,0.0,0.0,0.0,0.0,0.0,0.0,0.0,0.0,0.0,0.0,0.0,0.0,0.0,0.0,0.0,0.0,0.0,0.0,0.0,0.0,0.0,0.0,0.0,0.0,0.0,0.0,0.0,0.0,0.0,0.0,0.0,0.0,0.0,0.0,0.0,0.0,0.0,0.0,0.0,0.0,0.0,0.0,0.0,0.0,-1.6808,-1.5825,-1.5957,-1.7173,-1.7212,-1.7393,-1.7801,-1.8055,-1.8242,-1.8321,0.0,0.0,0.0,0.0,0.0,0.0,0.0,0.0,0.0,0.0,0.0,0.0,0.0,0.0,0.0,0.0,0.0,0.0,0.0,0.0,0.0,0.0,0.0,0.0,0.0,0.0,0.0,0.0,0.0,0.0,0.0,0.0,0.0,0.0,0.0,0.0,0.0,0.0,0.0,-1.4419,-1.4352,0.0,0.0,0.0,0.0,0.0,0.0,0.0,0.0,-1.3655,0.0,0.0,0.0,0.0,0.0,0.0,0.0,0.0,0.0,0.0,0.0,0.0,0.0,0.0,0.0,0.0,0.0,0.0,0.0,0.0,0.0,0.0,0.0,0.0,0.0,0.0,0.0,0.0,0.0,0.0,0.0,0.0,0.0,0.0,0.0,0.0,0.0,0.0,0.0,0.0,0.0,0.0,0.0,0.0,0.0,0.0,0.0,0.0,0.0,0.0,0.0,0.0,0.0,0.0,0.0,-1.6786,-1.607,-1.6124,-1.7173,-1.7212,-1.7282,-1.7462,-1.7437,-1.7636,0.0,0.0,0.0,0.0,0.0,0.0,0.0,0.0,0.0,0.0,0.0,0.0,0.0,0.0,0.0,0.0,0.0,0.0,0.0,0.0,0.0,0.0,0.0,0.0,0.0,0.0,0.0,0.0,0.0,0.0,0.0,0.0,0.0,0.0,0.0,0.0,0.0,0.0,0.0,0.0,-1.4761,-1.4893,-1.5576,0.0,0.0,0.0,0.0,0.0,0.0,-1.4505,-1.4148,0.0,0.0,0.0,0.0,0.0,0.0,0.0,0.0,0.0,0.0,0.0,0.0,0.0,0.0,0.0,0.0,0.0,0.0,0.0,0.0,0.0,0.0,0.0,0.0,0.0,0.0,0.0,0.0,0.0,0.0,0.0,0.0,0.0,0.0,0.0,0.0,0.0,0.0,0.0,0.0,0.0,0.0,0.0,0.0,0.0,0.0,0.0,0.0,0.0,0.0,0.0,0.0,0.0,0.0,0.0,-1.685,-1.6414,-1.6525,-1.7186,-1.7212,-1.7212,-1.7199,-1.6957,-1.7127,0.0,0.0,0.0,0.0,0.0,0.0,0.0,0.0,0.0,0.0,0.0,0.0,0.0,0.0,0.0,0.0,0.0,0.0,0.0,0.0,0.0,0.0,0.0,0.0,0.0,0.0,0.0,0.0,0.0,0.0,0.0,0.0,0.0,0.0,0.0,0.0,0.0,0.0,0.0,0.0,0.0,-1.5316,-1.6148,-1.5562,0.0,0.0,0.0,0.0,-1.501,-1.4964,0.0,0.0,0.0,0.0,0.0,0.0,0.0,0.0,0.0,0.0,0.0,0.0,0.0,0.0,0.0,0.0,0.0,0.0,0.0,0.0,0.0,0.0,0.0,0.0,0.0,0.0,0.0,0.0,0.0,0.0,0.0,0.0,0.0,0.0,0.0,0.0,0.0,0.0,0.0,0.0,0.0,0.0,0.0,0.0,0.0,0.0,0.0,0.0,0.0,0.0,0.0,0.0,0.0,0.0,0.0,0.0,-1.6888,-1.6824,-1.6938,-1.7199,-1.7212,-1.7212,-1.7199,-1.718,-1.7399,0.0,0.0,0.0,0.0,0.0,0.0,0.0,0.0,0.0,0.0,0.0,0.0,0.0,0.0,0.0,0.0,0.0,0.0,0.0,0.0,0.0,0.0,0.0,0.0,0.0,0.0,0.0,0.0,0.0,0.0,0.0,0.0,0.0,0.0,0.0,0.0,0.0,0.0,0.0,0.0,0.0,-1.5364,-1.6126,-1.564,-1.5297,0.0,0.0,-1.5726,-1.6359,-1.6009,0.0,0.0,0.0,0.0,0.0,0.0,0.0,0.0,0.0,0.0,0.0,0.0,0.0,0.0,0.0,0.0,0.0,0.0,0.0,0.0,0.0,0.0,0.0,0.0,0.0,0.0,0.0,0.0,0.0,0.0,0.0,0.0,0.0,0.0,0.0,0.0,0.0,0.0,0.0,0.0,0.0,0.0,0.0,0.0,0.0,0.0,0.0,0.0,0.0,0.0,0.0,0.0,0.0,0.0,0.0,-1.6362,-1.6748,-1.6846,-1.7002,-1.7199,-1.7212,-1.7157,-1.7086,-1.661,-1.6802,0.0,0.0,0.0,0.0,0.0,0.0,0.0,0.0,0.0,0.0,0.0,0.0,0.0,0.0,0.0,0.0,0.0,0.0,0.0,0.0,0.0,0.0,0.0,0.0,0.0,0.0,0.0,0.0,0.0,0.0,0.0,0.0,0.0,0.0,0.0,0.0,0.0,0.0,0.0,0.0,0.0,0.0,-1.6318,-1.6457,0.0,0.0,0.0,-1.6275,-1.6222,0.0,0.0,0.0,0.0,0.0,0.0,0.0,0.0,0.0,0.0,0.0,0.0,0.0,0.0,0.0,0.0,0.0,0.0,0.0,0.0,0.0,0.0,0.0,0.0,0.0,0.0,0.0,0.0,0.0,0.0,0.0,0.0,0.0,0.0,0.0,0.0,0.0,0.0,0.0,0.0,0.0,0.0,0.0,0.0,0.0,0.0,0.0,0.0,0.0,0.0,0.0,0.0,0.0,0.0,0.0,0.0,0.0,-1.6688,-1.6846,-1.6989,-1.7199,-1.7253,-1.717,-1.6976,-1.6401,0.0,0.0,0.0,0.0,0.0,0.0,0.0,0.0,0.0,0.0,0.0,0.0,0.0,0.0,0.0,0.0,0.0,0.0,0.0,0.0,0.0,0.0,0.0,0.0,0.0,0.0,0.0,-1.4492,0.0,0.0,0.0,0.0,0.0,0.0,0.0,0.0,0.0,0.0,0.0,0.0,0.0,0.0,-1.5868,-1.6775,-1.7245,-1.7534,0.0,0.0,-1.6698,-1.6302,-1.6571,-1.6363,0.0,0.0,0.0,0.0,0.0,0.0,0.0,0.0,0.0,0.0,0.0,0.0,0.0,0.0,0.0,0.0,0.0,0.0,0.0,0.0,0.0,0.0,0.0,0.0,0.0,0.0,0.0,0.0,0.0,0.0,0.0,0.0,0.0,0.0,0.0,0.0,0.0,0.0,0.0,0.0,0.0,0.0,0.0,0.0,0.0,0.0,0.0,0.0,0.0,0.0,0.0,0.0,0.0,0.0,-1.6374,-1.6675,-1.6888,-1.7044,-1.7212,-1.7308,-1.7267,-1.6989,-1.7061,-1.7293,0.0,0.0,0.0,0.0,0.0,0.0,0.0,0.0,0.0,0.0,0.0,0.0,0.0,0.0,0.0,0.0,0.0,0.0,0.0,0.0,0.0,0.0,0.0,0.0,0.0,0.0,0.0,0.0,0.0,0.0,0.0,0.0,0.0,0.0,0.0,0.0,0.0,0.0,0.0,0.0,0.0,-1.6789,-1.759,-1.7644,-1.7735,0.0,-1.7365,-1.698,-1.7478,-1.7313,-1.6767,-1.5517,0.0,0.0,0.0,0.0,0.0,0.0,0.0,0.0,0.0,0.0,0.0,0.0,0.0,0.0,0.0,0.0,0.0,0.0,0.0,0.0,0.0,0.0,0.0,0.0,0.0,0.0,0.0,0.0,0.0,0.0,0.0,0.0,0.0,0.0,0.0,0.0,0.0,0.0,0.0,0.0,0.0,0.0,0.0,0.0,0.0,0.0,0.0,0.0,0.0,0.0,0.0,0.0,0.0,-1.6374,-1.6675,-1.6833,-1.7044,-1.7212,-1.7253,-1.7183,-1.6973,-1.6877,-1.6956,0.0,0.0,0.0,0.0,0.0,0.0,0.0,0.0,0.0,0.0,0.0,0.0,0.0,0.0,0.0,0.0,0.0,0.0,0.0,0.0,0.0,0.0,0.0,0.0,0.0,0.0,0.0,0.0,-1.6059,-1.5797,-1.491,0.0,0.0,0.0,0.0,0.0,0.0,0.0,0.0,0.0,0.0,-1.6689,-1.7647,-1.7998,0.0,0.0,-1.7665,-1.7237,-1.701,-1.6797,-1.6375,-1.5453,-1.5108,0.0,0.0,0.0,0.0,0.0,0.0,0.0,0.0,0.0,0.0,0.0,0.0,0.0,0.0,0.0,0.0,0.0,0.0,0.0,0.0,0.0,0.0,0.0,0.0,0.0,0.0,0.0,0.0,0.0,0.0,0.0,0.0,0.0,0.0,0.0,0.0,0.0,0.0,0.0,0.0,0.0,0.0,0.0,0.0,0.0,0.0,0.0,0.0,0.0,0.0,0.0,0.0,-1.6374,-1.6675,-1.6833,-1.7002,-1.7199,-1.7212,-1.7115,-1.6905,-1.6834,-1.6821,0.0,0.0,0.0,0.0,0.0,0.0,0.0,0.0,0.0,0.0,0.0,0.0,0.0,0.0,0.0,0.0,0.0,0.0,0.0,0.0,0.0,0.0,0.0,0.0,0.0,0.0,0.0,0.0,-1.623,-1.5531,-1.4569,0.0,0.0,0.0,0.0,0.0,0.0,0.0,0.0,0.0,0.0,-1.6789,-1.7529,-1.7981,-1.8066,-1.749,-1.745,-1.7246,-1.6609,-1.6557,-1.6335,-1.5569,0.0,0.0,0.0,0.0,0.0,0.0,0.0,0.0,0.0,0.0,0.0,0.0,0.0,0.0,0.0,0.0,0.0,0.0,0.0,0.0,0.0,0.0,0.0,0.0,0.0,0.0,0.0,-1.8109,0.0,0.0,-1.6951,0.0,0.0,0.0,0.0,0.0,0.0,0.0,0.0,0.0,0.0,0.0,0.0,0.0,0.0,0.0,0.0,0.0,0.0,0.0,0.0,0.0,0.0,-1.6374,-1.6675,-1.6888,-1.7044,-1.7212,-1.7212,-1.7115,-1.6918,-1.716,-1.716,-1.6918,0.0,0.0,0.0,0.0,0.0,0.0,0.0,0.0,0.0,0.0,0.0,0.0,0.0,0.0,0.0,0.0,0.0,0.0,0.0,0.0,0.0,0.0,0.0,0.0,0.0,0.0,-1.5975,-1.5788,-1.5372,0.0,0.0,0.0,0.0,0.0,0.0,0.0,0.0,0.0,-1.6373,-1.697,-1.7226,-1.7226,-1.7474,-1.729,-1.6216,-1.6602,-1.6892,-1.6514,-1.6727,-1.6783,0.0,0.0,0.0,0.0,0.0,0.0,0.0,0.0,0.0,0.0,0.0,0.0,0.0,0.0,0.0,0.0,0.0,0.0,0.0,0.0,0.0,0.0,0.0,0.0,0.0,0.0,0.0,-1.8877,-1.8932,0.0,0.0,0.0,0.0,0.0,0.0,0.0,0.0,0.0,0.0,0.0,-1.7112,-1.736,0.0,0.0,0.0,0.0,0.0,0.0,0.0,0.0,0.0,0.0,0.0,0.0,-1.6504,-1.7118,-1.6952,-1.7012,-1.7501,-1.7196,-1.6918,-1.6761,-1.682,-1.6863,-1.6765,0.0,0.0,0.0,0.0,0.0,0.0,0.0,0.0,0.0,0.0,0.0,0.0,0.0,0.0,0.0,0.0,0.0,0.0,0.0,0.0,0.0,0.0,0.0,0.0,0.0,-1.5927,0.0,0.0,0.0,0.0,0.0,0.0,0.0,0.0,0.0,0.0,-1.4732,-1.5654,-1.6376,-1.6805,-1.6946,-1.6688,-1.6347,-1.5984,0.0,0.0,0.0,0.0,0.0,0.0,0.0,0.0,0.0,0.0,0.0,0.0,0.0,0.0,-1.426,-1.4316,-1.39,-1.3455,-1.3336,0.0,0.0,0.0,0.0,0.0,0.0,0.0,0.0,0.0,0.0,0.0,0.0,0.0,0.0,-1.9209,-1.9738,-1.893,0.0,0.0,0.0,0.0,0.0,0.0,0.0,0.0,-1.7451,-1.7713,-1.7551,-1.8026,-1.8127,-1.7941,-1.7686,-1.7431,0.0,0.0,0.0,0.0,0.0,0.0,0.0,0.0,-1.6448,-1.7049,-1.6766,-1.6883,-1.7401,-1.7025,-1.6761,-1.662,-1.6547,-1.6534,-1.6522,-1.6637,-1.6964,0.0,0.0,0.0,0.0,0.0,0.0,0.0,0.0,0.0,0.0,0.0,0.0,0.0,0.0,0.0,0.0,0.0,0.0,0.0,0.0,0.0,0.0,0.0,-1.61,0.0,0.0,0.0,0.0,0.0,0.0,0.0,0.0,0.0,-1.4773,-1.5371,-1.5973,-1.6556,-1.6611,-1.6439,-1.5898,0.0,0.0,0.0,0.0,0.0,0.0,0.0,-1.5262,-1.4836,-1.4378,-1.3946,-1.3439,-1.3707,-1.4093,-1.4372,0.0,0.0,-1.5062,-1.4547,-1.3988,-1.381,-1.3336,-1.3073,-1.3406,-1.3101,-1.2829,0.0,0.0,0.0,0.0,-1.7481,0.0,0.0,0.0,-1.8117,-1.9262,0.0,-1.9139,0.0,0.0,0.0,0.0,-1.6888,-1.7326,0.0,0.0,-1.8154,-1.8376,-1.7958,-1.8462,-1.8412,-1.7909,-1.8338,-1.8252,-1.7545,-1.6572,-1.5949,0.0,0.0,0.0,0.0,0.0,-1.6175,-1.6529,-1.6491,-1.662,-1.6884,-1.6731,-1.662,-1.6522,-1.6318,-1.6244,-1.6231,-1.6723,-1.7063,-1.7325,-1.7652,0.0,0.0,0.0,0.0,0.0,0.0,0.0,0.0,0.0,0.0,0.0,0.0,0.0,0.0,0.0,0.0,0.0,0.0,0.0,0.0,-1.7199,0.0,0.0,0.0,0.0,0.0,0.0,0.0,0.0,0.0,-1.5102,-1.6333,-1.625,-1.6287,-1.6879,0.0,0.0,0.0,0.0,-1.5309,-1.4766,-1.5521,-1.6088,-1.6048,-1.6531,-1.6767,-1.6508,0.0,0.0,-1.36,-1.3839,-1.4025,-1.3615,-1.3998,-1.4512,-1.4915,-1.4663,-1.4283,-1.3894,-1.3647,-1.3563,-1.3552,-1.3399,-1.3341,-2.0291,0.0,0.0,0.0,0.0,-1.8168,-1.8697,-1.9773,-1.969,-2.0048,-2.0713,-1.9933,0.0,0.0,0.0,0.0,0.0,0.0,-1.78,-1.8179,-1.8816,-1.931,-1.9556,-1.9988,-1.9702,-1.8836,-1.8855,-1.8403,-1.7484,-1.7159,-1.6774,-1.6356,0.0,0.0,0.0,0.0,-1.6215,-1.6647,-1.6429,-1.6516,-1.6978,-1.656,-1.6448,-1.6637,-1.6491,-1.6509,-1.6752,-1.6863,-1.706,-1.7352,-1.724,0.0,0.0,0.0,0.0,0.0,0.0,0.0,0.0,0.0,0.0,0.0,0.0,0.0,0.0,0.0,0.0,0.0,0.0,0.0,-1.6664,-1.6423,-1.5922,0.0,0.0,0.0,0.0,0.0,0.0,0.0,0.0,0.0,-1.5983,-1.5876,-1.5933,0.0,0.0,-1.4981,-1.4534,-1.4112,-1.4023,-1.4424,-1.4644,0.0,-1.5502,-1.5369,-1.5191,-1.5142,-1.4655,-1.4249,-1.4286,-1.4269,-1.4097,-1.3632,-1.381,-1.3952,-1.3789,-1.3884,-1.3941,-1.381,-1.3563,-1.3314,-1.316,-1.316,-1.3132,-2.2727,-2.0745,-2.0104,-1.9762,-1.9648,-1.9497,-1.9879,-2.071,-2.0441,-2.0977,-2.1918,-2.0619,-1.9933,-1.9703,-1.8742,0.0,0.0,0.0,-1.8594,-1.9117,-1.9599,-2.0037,-2.0365,-2.0831,-2.0471,-1.9455,-1.9365,-1.8758,-1.7724,-1.7736,-1.746,-1.6895,0.0,-1.632,-1.6116,-1.6387,-1.6636,-1.6779,-1.6577,-1.6512,-1.6679,-1.6448,-1.6436,-1.6595,-1.665,-1.6735,-1.6976,-1.7031,-1.7199,-1.7393,-1.7323,-1.7461,0.0,0.0,0.0,0.0,0.0,0.0,0.0,0.0,0.0,0.0,0.0,-1.8329,-1.8029,0.0,0.0,0.0,-1.7488,-1.7192,-1.6917,-1.646,0.0,0.0,0.0,0.0,0.0,0.0,0.0,-1.4461,-1.4923,-1.5278,-1.5337,-1.5291,-1.5383,-1.5707,-1.4993,-1.4405,-1.4216,0.0,-1.3749,-1.4453,-1.443,-1.4601,-1.5235,-1.5016,-1.4662,-1.4445,-1.4244,-1.4104,-1.4264,-1.4264,-1.4046,-1.3716,-1.3716,-1.3668,-1.3266,-1.3334,-1.3344,-1.3334,-1.3045,-1.2735,-1.2686,-1.2696,-1.2745,-2.5223,-2.3816,-2.2168,-2.1408,-2.1264,-2.139,-2.1223,-2.0873,-2.0849,-2.1884,-2.3517,-2.1284,-2.1295,-2.2916,-2.0614,0.0,-1.9785,-1.9518,-1.9574,-1.9925,-2.0442,-2.0694,-2.0754,-2.1199,-2.0875,-1.9901,-1.9865,-1.9324,-1.8362,-1.8338,-1.8037,-1.7484,-1.7532,-1.7255,-1.6703,-1.7123,-1.7159,-1.6791,-1.6754,-1.6532,-1.62,-1.6392,-1.6509,-1.6607,-1.682,-1.6973,-1.7002,-1.7282,-1.7447,-1.7447,-1.7747,-1.7868,-1.7868,0.0,0.0,0.0,0.0,0.0,0.0,0.0,0.0,0.0,0.0,0.0,0.0,0.0,0.0,0.0,-1.7502,0.0,-1.7434,-1.6879,0.0,0.0,0.0,-1.5367,-1.5073,-1.5198,-1.5119,-1.4512,0.0,0.0,-1.4622,-1.4641,-1.4698,-1.4787,-1.4392,-1.4137,-1.4137,-1.4148,-1.4275,-1.469,-1.4744,-1.4842,-1.5153,-1.5101,-1.4912,-1.4476,-1.4393,-1.4282,-1.4037,-1.3973,-1.3952,-1.361,-1.3621,-1.3515,-1.316,-1.2793,-1.2627,-1.2627,-1.2382,-1.2126,-1.2175,-1.2274,-1.2372,-2.7141,-2.6661,-2.5492,-2.403,-2.2515,-2.2175,-2.239,-2.3031,-2.2582,-2.2693,-2.3135,-2.2242,-2.1537,-2.0958,-1.9597,-1.939,-2.005,-1.9935,-2.0321,-2.1019,-2.1151,-2.144,-2.1801,-2.1536,-2.1272,-2.1007,-2.061,-2.0069,-1.9432,-1.9408,-1.8939,-1.8073,-1.8422,-1.8157,-1.7243,-1.6907,-1.6738,-1.6664,-1.6266,-1.6134,-1.6281,-1.6324,-1.6612,-1.7186,-1.7227,-1.7406,-1.7638,-1.7747,-1.7788,-1.7788,-1.7882,-1.7788,-1.7516,-1.7529,0.0,0.0,0.0,0.0,0.0,0.0,0.0,0.0,0.0,-1.7745,-1.7679,0.0,-1.7759,0.0,-1.724,-1.685,-1.6727,-1.5864,0.0,0.0,-1.4987,-1.4755,-1.4323,-1.4631,-1.467,-1.4183,-1.4366,-1.4397,-1.4058,-1.4234,-1.4275,-1.3979,-1.4588,-1.5054,-1.5044,-1.5044,-1.5076,-1.5037,-1.5037,-1.508,-1.5008,-1.484,-1.4689,-1.4772,-1.4258,-1.4014,-1.4693,-1.4031,-1.3399,-1.3266,-1.288,-1.2501,-1.2157,-1.1828,-1.1778,-1.1868,-1.2026,-1.2126,-1.2224,-1.2274,-1.2323,-2.7842,-2.7377,-2.6769,-2.5562,-2.4001,-2.3701,-2.3917,-2.441,-2.3893,-2.3797,-2.4001,-2.3361,-2.2425,-2.1267,-2.0492,-2.0517,-2.0997,-2.0865,-2.1151,-2.1753,-2.1753,-2.1909,-2.2173,-2.1897,-2.1632,-2.1392,-2.0875,-2.0334,-1.9793,-1.954,-1.9119,-1.8566,-1.8843,-1.8698,-1.8133,-1.782,-1.7556,-1.7315,-1.6696,-1.6352,-1.6324,-1.6625,-1.6964,-1.7393,-1.757,-1.7693,-1.7882,-1.7922,-1.7828,-1.7706,-1.7652,-1.7529,-1.7212,-1.7199,-1.7106,0.0,0.0,0.0,0.0,0.0,0.0,0.0,0.0,0.0,0.0,0.0,-1.7629,-1.7199,-1.674,-1.6299,-1.6039,-1.5287,-1.4755,-1.4606,-1.4391,-1.4157,-1.4125,-1.4108,-1.4108,-1.4039,-1.4021,-1.391,-1.3662,-1.3965,-1.4171,-1.3962,-1.4704,-1.507,-1.4681,-1.4597,-1.4597,-1.4487,-1.4487,-1.4487,-1.4437,-1.4387,-1.4306,-1.443,-1.4084,-1.3963,-1.4339,-1.3834,-1.3266,-1.2987,-1.2657,-1.2264,-1.1828,-1.1678,-1.1678,-1.1728,-1.1927,-1.2126,-1.2175,-1.2224,-1.2224,-2.8052,-2.7175,-2.704,-2.6483,-2.5581,-2.5453,-2.5382,-2.5276,-2.4819,-2.4809,-2.5205,-2.4342,-2.3461,-2.2514,-2.2194,-2.2063,-2.2135,-2.1922,-2.1957,-2.2294,-2.2221,-2.2221,-2.2294,-2.2161,-2.1885,-2.1488,-2.0983,-2.0466,-1.9985,-1.9516,-1.9227,-1.9095,-1.9095,-1.9059,-1.8987,-1.904,-1.875,-1.8097,-1.7493,-1.7008,-1.6623,-1.7203,-1.7512,-1.7595,-1.7787,-1.7922,-1.7922,-1.7842,-1.7693,-1.7434,-1.7365,-1.7199,-1.682,-1.682,-1.6865,0.0,-1.7403,0.0,0.0,0.0,0.0,0.0,0.0,0.0,0.0,-1.7769,-1.7375,-1.6436,-1.6157,-1.5852,-1.5421,-1.4892,-1.4525,-1.4376,-1.3931,-1.3776,-1.4148,-1.3703,-1.3562,-1.396,-1.3665,-1.342,-1.343,-1.3767,-1.4061,-1.414,-1.4469,-1.4469,-1.3859,-1.3879,-1.4066,-1.3869,-1.3765,-1.4003,-1.3973,-1.4005,-1.4041,-1.4031,-1.3984,-1.3868,-1.3678,-1.3525,-1.3286,-1.2822,-1.2578,-1.2323,-1.1778,-1.1828,-1.1927,-1.1728,-1.1868,-1.2026,-1.2076,-1.2126,-1.2126,-2.8457,-2.8183,-2.7377,-2.7095,-2.7229,-2.6414,-2.5734,-2.53,-2.5204,-2.5016,-2.4814,-2.4284,-2.3501,-2.2694,-2.258,-2.2259,-2.1824,-2.2185,-2.2515,-2.2823,-2.239,-2.2414,-2.2763,-2.1957,-2.1728,-2.2005,-2.15,-2.1199,-2.1091,-2.0995,-2.0502,-1.966,-1.9624,-1.942,-1.9011,0.0,0.0,0.0,-1.7736,-1.7906,-1.8091,-1.8083,-1.8262,-1.849,-1.8126,0.0,-1.7882,-1.7625,-1.7475,-1.7406,-1.7157,0.0,0.0,0.0,0.0,0.0,0.0,0.0,0.0,0.0,0.0,0.0,-1.703,-1.6827,-1.6926,-1.7042,-1.6978,-1.6791,-1.6008,-1.5478,-1.5355,-1.4479,-1.3894,-1.38,-1.3668,-1.3652,-1.3734,-1.3519,-1.346,-1.3522,-1.346,-1.342,-1.343,-1.3608,-1.3697,-1.3776,-1.3828,-1.3807,-1.3672,-1.4511,-1.5278,-1.5394,-1.4784,-1.4355,-1.4136,-1.4129,-1.4186,-1.4129,-1.3858,-1.3668,-1.3621,-1.3094,-1.2813,-1.2676,-1.2274,-1.1868,-1.1719,-1.1569,-1.1578,-1.1678,-1.1728,-1.1828,-1.2026,-1.2076,-1.2126,-2.8457,-2.8118,-2.7643,-2.739,0.0,-2.6837,-2.6427,-2.6151,-2.5873,-2.5465,-2.5028,-2.4755,-2.4281,-2.3567,-2.332,-2.2911,-2.2381,-2.2603,-2.2862,-2.2979,-2.2967,-2.2967,-2.2967,-2.2426,-2.2309,-2.2531,-2.1993,-2.1842,-2.2064,-2.1803,-2.1336,-2.0545,-2.0506,-2.0167,-1.9695,-1.9845,-1.9409,-1.8399,-1.876,-1.8776,-1.8416,-1.8481,-1.8502,-1.833,-1.7909,0.0,0.0,0.0,0.0,0.0,0.0,0.0,0.0,-1.6163,-1.6286,-1.641,-1.6581,-1.6727,-1.6772,-1.686,-1.6948,-1.7024,-1.6771,-1.6663,-1.6791,-1.6577,-1.6349,-1.612,-1.5355,-1.4766,-1.449,-1.3941,-1.361,-1.3621,-1.3467,-1.3467,-1.3563,-1.342,-1.3314,-1.3314,-1.3314,-1.3314,-1.3314,-1.3409,-1.3515,-1.361,-1.3621,-1.3703,-1.3931,-1.4395,-1.4809,-1.4961,-1.4712,-1.4408,-1.424,-1.4269,-1.4269,-1.4222,-1.4082,-1.3847,-1.3716,-1.3334,-1.3045,-1.2949,-1.252,-1.2126,-1.1968,-1.1828,-1.1728,-1.1728,-1.1819,-1.1927,-1.2076,-1.2076,-1.2076,-2.8327,-2.7921,-2.7855,-2.7643,-2.731,-2.7175,-2.7175,-2.7108,-2.6496,0.0,0.0,-2.5382,-2.5081,-2.4643,-2.4316,-2.3899,-2.3317,-2.3466,-2.3502,-2.3474,-2.3867,-2.3908,-2.3567,-2.3384,-2.3243,-2.3155,-2.2639,-2.2597,-2.2917,-2.2411,-2.1975,-2.1556,-2.1259,-2.0904,-2.0476,-2.0348,-2.0152,-1.9749,-1.986,-1.9502,-1.8636,-1.8744,-1.8533,-1.7963,-1.7569,-1.7352,-1.731,-1.6989,-1.6637,-1.6324,-1.6225,-1.6076,-1.5836,-1.5913,-1.6183,-1.6654,-1.693,-1.7077,-1.7057,-1.7192,-1.7024,-1.6547,-1.6534,-1.6607,-1.6791,-1.6306,-1.5812,-1.54,-1.4777,-1.4233,-1.3752,-1.3505,-1.342,-1.3515,-1.3314,-1.3314,-1.3467,-1.3362,-1.3218,-1.3218,-1.3218,-1.3208,-1.3266,-1.3362,-1.3467,-1.3563,-1.361,-1.3734,-1.4115,-1.4234,-1.4289,-1.4291,-1.4393,-1.4327,-1.4197,-1.428,-1.4373,-1.4291,-1.4186,-1.3988,-1.3716,-1.3563,-1.342,-1.3084,-1.29,-1.2666,-1.2363,-1.2215,-1.2126,-1.1828,-1.1927,-1.2076,-1.2076,-1.2076,-1.2076,-2.8522,-2.8457,-2.7987,-2.7987,-2.8314,-2.7908,-2.7709,-2.7577,-2.6633,-2.6151,-2.6013,-2.5511,-2.529,-2.5289,-2.5685,-2.5301,-2.4462,-2.5355,-2.5504,-2.5095,-2.5165,-2.5384,-2.5702,-2.4784,-2.4287,-2.4234,-2.3671,-2.3403,-2.3449,-2.3043,-2.272,-2.2502,-2.1675,-2.1028,-2.0742,-2.0736,-2.0818,-2.1081,-2.0298,-1.9811,-1.97,-1.9104,-1.8638,-1.8259,-1.7671,-1.7282,-1.696,-1.6595,-1.6355,-1.6269,-1.6032,-1.5836,-1.5792,-1.5957,-1.6069,-1.6254,-1.643,-1.6517,-1.6604,-1.6591,-1.6609,-1.6534,-1.6534,-1.6522,-1.6522,-1.6107,-1.5788,-1.57,-1.4915,-1.4326,-1.4129,-1.3658,-1.3362,-1.3266,-1.3218,-1.3218,-1.3266,-1.3218,-1.3218,-1.3218,-1.3314,-1.3372,-1.3372,-1.3467,-1.3563,-1.3621,-1.361,-1.3662,-1.3972,-1.4644,-1.4927,-1.4722,-1.4714,-1.4591,-1.4211,-1.414,-1.4186,-1.4067,-1.3905,-1.3647,-1.3362,-1.3256,-1.318,-1.2861,-1.3045,-1.2987,-1.2715,-1.2627,-1.2471,-1.2175,-1.2175,-1.2175,-1.2166,-1.2175,-1.2175,-2.8587,-2.8587,-2.8327,-2.8392,-2.8587,-2.8314,-2.8249,-2.8183,-2.7377,-2.6905,-2.6633,-2.6358,-2.6208,-2.6253,-2.6202,-2.5911,-2.5509,-2.5946,-2.6061,-2.5876,-2.6112,-2.6244,-2.6115,-2.5345,-2.4929,-2.4836,-2.4275,-2.4105,-2.4292,-2.4131,-2.3884,-2.3558,-2.2459,-2.181,-2.1626,-2.1265,-2.1202,-2.1348,-2.0637,-2.01,-1.9779,-1.9125,-1.8488,-1.7829,-1.7371,-1.6947,-1.6595,-1.6207,-1.6076,-1.6151,-1.6001,-1.5969,-1.6025,-1.6132,-1.6262,-1.6318,-1.6405,-1.6479,-1.6534,-1.6534,-1.6534,-1.6479,-1.625,-1.6107,-1.6107,-1.5712,-1.5322,-1.504,-1.4362,-1.3952,-1.3894,-1.3505,-1.3304,-1.3314,-1.3228,-1.319,-1.3266,-1.3256,-1.3218,-1.3314,-1.3362,-1.342,-1.342,-1.3515,-1.361,-1.361,-1.361,-1.3668,-1.3763,-1.4205,-1.4535,-1.4468,-1.4425,-1.4339,-1.4136,-1.4104,-1.4093,-1.4093,-1.3999,-1.3894,-1.3742,-1.3742,-1.3695,-1.3621,-1.3621,-1.3467,-1.3296,-1.3094,-1.289,-1.2793,-1.2696,-1.2696,-1.2696,-1.2793,-1.2852,-2.8587,-2.8587,-2.8587,-2.8587,-2.8587,-2.8522,-2.8587,-2.8587,-2.8118,-2.7776,-2.7377,-2.7095,-2.7027,-2.7124,-2.671,-2.6582,-2.6582,-2.6713,-2.6661,-2.6621,-2.7115,-2.7142,-2.6687,-2.6128,-2.5821,-2.5688,-2.501,-2.4838,-2.5124,-2.4959,-2.4627,-2.4186,-2.3417,-2.2881,-2.2506,-2.1991,-2.1704,-2.1541,-2.098,-2.0302,-1.9597,-1.8868,-1.8066,-1.7238,-1.6947,-1.665,-1.6293,-1.6001,-1.5913,-1.6044,-1.6044,-1.6088,-1.62,-1.6318,-1.6392,-1.6392,-1.6436,-1.6479,-1.6534,-1.6534,-1.6534,-1.6479,-1.6064,-1.5732,-1.5543,-1.5175,-1.4789,-1.4419,-1.3894,-1.3563,-1.3563,-1.3372,-1.3266,-1.3314,-1.3238,-1.32,-1.3314,-1.3266,-1.3266,-1.3372,-1.342,-1.3457,-1.3467,-1.3515,-1.3621,-1.361,-1.361,-1.3668,-1.3716,-1.3763,-1.3858,-1.3999,-1.401,-1.402,-1.4093,-1.4057,-1.4046,-1.4176,-1.4118,-1.4082,-1.414,-1.4233,-1.4233,-1.414,-1.4057,-1.381,-1.3668,-1.3515,-1.3266,-1.3084,-1.3025,-1.316,-1.3218,-1.3467,-1.3658,-2.8587,-2.8587,-2.8587,-2.8587,-2.8587,-2.843,-2.843,-2.8587,-2.8522,-2.8522,-2.8314,-2.743,-2.731,-2.7709,-2.7657,-2.763,-2.767,-2.8168,-2.809,-2.7749,-2.8222,-2.8417,-2.8231,-2.7692,-2.7458,-2.729,-2.6289,-2.5747,-2.5778,-2.486,-2.4256,-2.3958,-2.4433,-2.4138,-2.3154,-2.2958,-2.265,-2.2137,-2.1535,-2.0547,-1.9203,-1.8169,-1.7293,-1.6607,-1.6565,-1.6436,-1.6231,-1.6057,-1.6044,-1.6188,-1.6188,-1.62,-1.62,-1.62,-1.6275,-1.6392,-1.6392,-1.6436,-1.6479,-1.6534,-1.6534,-1.6479,-1.6064,-1.5487,-1.4824,-1.4549,-1.4477,-1.4291,-1.38,-1.3467,-1.342,-1.3372,-1.3314,-1.3256,-1.3228,-1.3218,-1.3218,-1.3324,-1.342,-1.3372,-1.3515,-1.3573,-1.3563,-1.3573,-1.361,-1.361,-1.361,-1.361,-1.3621,-1.3668,-1.3668,-1.381,-1.3821,-1.3821,-1.3858,-1.3915,-1.401,-1.414,-1.3999,-1.3952,-1.3999,-1.3962,-1.3868,-1.4104,-1.4186,-1.4082,-1.3705,-1.3467,-1.3536,-1.3238,-1.3228,-1.3362,-1.3563,-1.3894,-1.4165,-2.8587,-2.8587,-2.8587,-2.8587,-2.8587,-2.8509,-2.8509,-2.8587,-2.8587,-2.8587,-2.8587,-2.8118,-2.8052,-2.8276,-2.8611,-2.8584,-2.8354,-2.8888,-2.8861,-2.8341,-2.8522,-2.8587,-2.8532,-2.799,-2.7705,-2.7637,-2.6837,-2.6443,-2.6335,-2.5805,-2.5486,-2.5522,-2.5238,-2.4713,-2.4193,-2.3892,-2.3238,-2.2346,-2.1738,-2.0698,-1.9282,-1.8578,-1.7882,-1.7168,-1.6784,-1.6479,-1.6244,-1.6144,-1.6188,-1.6318,-1.6318,-1.6331,-1.6392,-1.6392,-1.6392,-1.6436,-1.6479,-1.6479,-1.6479,-1.6534,-1.6534,-1.6534,-1.58,-1.5174,-1.4631,-1.4111,-1.3847,-1.3905,-1.3668,-1.3515,-1.3515,-1.342,-1.3372,-1.3314,-1.3266,-1.3218,-1.3314,-1.3362,-1.342,-1.3525,-1.3573,-1.361,-1.361,-1.361,-1.361,-1.361,-1.361,-1.361,-1.361,-1.361,-1.3668,-1.3763,-1.381,-1.381,-1.3821,-1.3868,-1.3962,-1.4046,-1.4046,-1.4046,-1.414,-1.415,-1.4197,-1.415,-1.428,-1.428,-1.4035,-1.3999,-1.401,-1.3716,-1.3905,-1.4222,-1.4628,-1.4869,-1.504,-2.8587,-2.8587,-2.8522,-2.8509,-2.8587,-2.8522,-2.8509,-2.8587,-2.8587,-2.8587,-2.8587,-2.8587,-2.8587,-2.8655,-2.9048,-2.8994,-2.8709,-2.9211,-2.9157,-2.8655,-2.8736,-2.8763,-2.8573,-2.8166,-2.7949,-2.7854,-2.7352,-2.7033,-2.695,-2.6713,-2.6693,-2.6778,-2.6139,-2.5583,-2.5213,-2.4731,-2.392,-2.2683,-2.2152,-2.1148,-1.9772,-1.9277,-1.8526,-1.753,-1.7188,-1.6835,-1.6287,-1.6423,-1.6455,-1.6448,-1.6436,-1.6436,-1.6479,-1.6534,-1.6534,-1.6534,-1.6534,-1.6534,-1.6534,-1.6534,-1.6534,-1.6436,-1.5635,-1.4983,-1.4585,-1.3878,-1.3515,-1.361,-1.361,-1.361,-1.361,-1.3515,-1.3467,-1.3457,-1.3362,-1.3362,-1.3467,-1.3457,-1.3515,-1.361,-1.3621,-1.361,-1.361,-1.361,-1.361,-1.361,-1.361,-1.361,-1.3621,-1.3621,-1.3668,-1.381,-1.3821,-1.3858,-1.3905,-1.3952,-1.3952,-1.4057,-1.4186,-1.428,-1.4373,-1.4373,-1.443,-1.4291,-1.4384,-1.4326,-1.4186,-1.428,-1.443,-1.4512,-1.4697,-1.4971,-1.5244,-1.5468,-1.5603,-2.8587,-2.86,-2.8365,-2.8444,-2.8587,-2.8444,-2.8444,-2.8587,-2.8587,-2.8587,-2.8587,-2.8587,-2.8587,-2.8587,-2.8668,-2.8627,-2.8668,-2.9211,-2.9157,-2.8682,-2.9116,-2.9116,-2.8614,-2.856,-2.8532,-2.8438,-2.7931,-2.7523,-2.7335,-2.7286,-2.7269,-2.7297,-2.7374,-2.6929,-2.6002,-2.5705,-2.4826,-2.3238,-2.2916,-2.2163,-2.0683,-1.9982,-1.89,-1.7543,-1.7663,-1.7422,-1.666,-1.6903,-1.6928,-1.6547,-1.6504,-1.6491,-1.6534,-1.6534,-1.6534,-1.6534,-1.6534,-1.6534,-1.6534,-1.6534,-1.6534,-1.6392,-1.568,-1.4971,-1.4597,-1.4018,-1.3658,-1.361,-1.361,-1.361,-1.361,-1.3563,-1.3563,-1.3563,-1.3563,-1.3563,-1.3563,-1.3563,-1.361,-1.3652,-1.3683,-1.3703,-1.3652,-1.361,-1.361,-1.361,-1.361,-1.3621,-1.3668,-1.3716,-1.3821,-1.3868,-1.3915,-1.401,-1.4129,-1.4129,-1.4176,-1.428,-1.428,-1.4373,-1.4373,-1.443,-1.443,-1.443,-1.443,-1.4373,-1.428,-1.4326,-1.4512,-1.4743,-1.5108,-1.5379,-1.557,-1.5659,-1.5748,-2.8926,-2.8587,-2.8522,-2.8509,-2.8587,-2.8522,-2.8509,-2.8587,-2.8587,-2.8587,-2.8587,-2.8587,-2.8587,-2.8587,-2.8587,-2.8587,-2.8641,-2.9211,-2.9157,-2.8668,-2.8817,-2.879,-2.8614,-2.8587,-2.8587,-2.857,-2.8152,-2.8124,-2.8457,-2.8438,-2.8584,-2.8598,-2.8059,-2.7461,-2.6973,-2.6222,-2.5159,-2.3802,-2.3051,-2.1996,-2.0758,-2.0105,-1.9294,-1.8394,-1.7869,-1.743,-1.7087,-1.723,-1.7067,-1.6547,-1.6861,-1.6898,-1.6559,-1.6534,-1.6534,-1.6534,-1.6534,-1.6534,-1.6534,-1.6534,-1.6534,-1.6479,-1.5932,-1.5276,-1.471,-1.4307,-1.3952,-1.3716,-1.361,-1.361,-1.361,-1.361,-1.3621,-1.361,-1.361,-1.3621,-1.361,-1.3621,-1.3724,-1.3972,-1.4055,-1.4066,-1.3941,-1.3796,-1.3621,-1.361,-1.3668,-1.3726,-1.3773,-1.3868,-1.3962,-1.4046,-1.4093,-1.4186,-1.428,-1.4222,-1.4222,-1.4269,-1.4326,-1.4373,-1.443,-1.443,-1.443,-1.443,-1.443,-1.4384,-1.4326,-1.4605,-1.4743,-1.5062,-1.5424,-1.5647,-1.5659,-1.5824,-1.5824,-2.8967,-2.8627,-2.8587,-2.8587,-2.8587,-2.8587,-2.8587,-2.8587,-2.8587,-2.8587,-2.8587,-2.8587,-2.8587,-2.8587,-2.8716,-2.8716,-2.8668,-2.9184,-2.9157,-2.8655,-2.8777,-2.8777,-2.8614,-2.8587,-2.8651,-2.8748,-2.8512,-2.8792,-2.9351,-2.9299,-2.939,-2.9479,-2.8536,-2.7801,-2.7308,-2.6422,-2.5245,-2.3919,-2.3054,-2.2027,-2.0835,-2.0288,-1.9836,-1.9208,-1.8216,-1.7564,-1.7388,-1.7375,-1.7212,-1.6898,-1.6999,-1.6923,-1.6572,-1.6534,-1.6534,-1.6534,-1.6534,-1.6609,-1.6735,-1.6622,-1.6609,-1.6798,-1.6041,-1.5332,-1.4915,-1.4433,-1.3988,-1.3716,-1.361,-1.361,-1.3652,-1.3745,-1.3776,-1.3662,-1.361,-1.3693,-1.3807,-1.3703,-1.3728,-1.3962,-1.4024,-1.4055,-1.4104,-1.3845,-1.3747,-1.3726,-1.3941,-1.4035,-1.3915,-1.414,-1.4233,-1.4222,-1.4222,-1.428,-1.4373,-1.4326,-1.4316,-1.4326,-1.4326,-1.4373,-1.443,-1.443,-1.443,-1.443,-1.443,-1.443,-1.4512,-1.4789,-1.5062,-1.5379,-1.568,-1.5932,-1.5944,-1.5957,-1.6044,-2.86,-2.8587,-2.8587,-2.8587,-2.8587,-2.8587,-2.8587,-2.8587,-2.8587,-2.8587,-2.8587,-2.8587,-2.8587,-2.8651,-2.8908,-2.8908,-2.8825,-2.9274,-2.9168,-2.8668,-2.9168,-2.9114,-2.8614,-2.8651,-2.8803,-2.9052,-2.9092,-2.9394,-2.9872,-2.9737,-2.9653,-2.9523,-2.9015,-2.8152,-2.6905,-2.6287,-2.5067,-2.3721,-2.3162,-2.2282,-2.0923,-2.0643,-2.025,-1.971,-1.8744,-1.7965,-1.7451,-1.74,-1.7338,-1.7225,-1.6861,-1.6559,-1.6534,-1.6534,-1.6534,-1.6534,-1.6534,-1.6798,-1.7162,-1.6798,-1.6816,-1.7061,-1.6068,-1.5357,-1.5279,-1.4499,-1.381,-1.3621,-1.361,-1.361,-1.3683,-1.3993,-1.4097,-1.3734,-1.3745,-1.3952,-1.4138,-1.3921,-1.3662,-1.3796,-1.3897,-1.372,-1.3815,-1.3863,-1.3879,-1.4046,-1.4362,-1.4525,-1.428,-1.4547,-1.464,-1.4455,-1.4455,-1.4547,-1.4512,-1.4419,-1.443,-1.443,-1.443,-1.443,-1.443,-1.443,-1.443,-1.443,-1.4477,-1.4523,-1.4743,-1.5006,-1.5367,-1.5635,-1.5976,-1.6281,-1.6293,-1.6349,-1.6337,-2.8587,-2.8587,-2.8587,-2.8587,-2.8587,-2.8587,-2.8587,-2.8587,-2.8587,-2.8587,-2.8587,-2.8587,-2.8587,-2.8651,-2.8908,-2.9035,-2.8986,-2.937,-2.9215,-2.8784,-2.9063,-2.9049,-2.8757,-2.8844,-2.899,-2.9191,-2.959,-2.9559,-2.9333,-2.9885,-3.0074,-2.9653,-2.9421,-2.8886,-2.7996,-2.6693,-2.5333,-2.4428,-2.2821,-2.1698,-2.1222,-2.0464,-1.9987,-1.9761,-1.912,-1.8505,-1.7978,-1.7589,-1.7212,-1.6848,-1.6999,-1.6936,-1.6609,-1.6534,-1.6534,-1.6534,-1.6534,-1.6559,-1.6735,-1.6647,-1.6597,-1.6704,-1.6305,-1.5792,-1.5335,-1.4857,-1.428,-1.3763,-1.361,-1.361,-1.3693,-1.4035,-1.4252,-1.4117,-1.4376,-1.4562,-1.4687,-1.4696,-1.4944,-1.5142,-1.4742,-1.4581,-1.4623,-1.4461,-1.415,-1.4444,-1.4755,-1.4846,-1.5062,-1.504,-1.5187,-1.5266,-1.513,-1.496,-1.504,-1.504,-1.5006,-1.4823,-1.4651,-1.4477,-1.443,-1.4558,-1.4512,-1.4558,-1.4616,-1.4743,-1.4971,-1.5322,-1.5724,-1.6032,-1.638,-1.6595,-1.6693,-1.6735,-1.6723,-2.8587,-2.8587,-2.8587,-2.8651,-2.878,-2.8651,-2.8716,-2.878,-2.8665,-2.8651,-2.878,-2.878,-2.8844,-2.9035,-2.9289,-2.9415,-2.9352,-2.9775,-2.9602,-2.9099,-2.9162,-2.9162,-2.9035,-2.9289,-2.9327,-2.9237,-2.9614,-2.9462,-2.8797,-2.9668,-3.0001,-2.9653,-2.9392,-2.8958,-2.8254,-2.6521,-2.5233,-2.446,-2.2819,-2.1694,-2.1355,-2.0589,-1.9924,-1.9522,-1.8995,-1.8468,-1.7915,-1.7375,-1.6986,-1.6911,-1.72,-1.7087,-1.6609,-1.671,-1.6748,-1.6597,-1.6722,-1.6861,-1.6823,-1.666,-1.6647,-1.6785,-1.6517,-1.5876,-1.5107,-1.4892,-1.4463,-1.4031,-1.389,-1.3941,-1.4159,-1.4552,-1.4842,-1.4904,-1.4935,-1.5049,-1.5112,-1.5363,-1.5532,-1.5563,-1.5126,-1.5057,-1.512,-1.4871,-1.4569,-1.4983,-1.5344,-1.5433,-1.5688,-1.5656,-1.58,-1.58,-1.5534,-1.5534,-1.57,-1.57,-1.5623,-1.5311,-1.5006,-1.4697,-1.4477,-1.4731,-1.4869,-1.5096,-1.5187,-1.5244,-1.5412,-1.5944,-1.638,-1.665,-1.6765,-1.6934,-1.706,-1.7073,-1.706,-2.8651,-2.8651,-2.8651,-2.8844,-2.8972,-2.878,-2.8858,-2.9035,-2.8844,-2.8908,-2.9099,-2.9099,-2.9289,-2.9602,-2.9865,-2.9865,-2.9789,-3.0219,-3.0205,-2.9761,-2.958,-2.951,-2.9434,-2.9794,-2.9693,-2.9285,-2.9492,-2.9218,-2.8579,-2.9334,-2.9595,-2.9464,-2.916,-2.8512,-2.7811,-2.6061,-2.4889,-2.4152,-2.286,-2.1876,-2.1423,-2.0882,-2.019,-1.9196,-1.8656,-1.8129,-1.7601,-1.6986,-1.681,-1.7212,-1.7237,-1.7049,-1.6773,-1.7099,-1.7087,-1.6685,-1.7099,-1.7212,-1.72,-1.6773,-1.671,-1.7156,-1.6453,-1.5487,-1.4869,-1.4741,-1.4588,-1.4289,-1.4304,-1.449,-1.4883,-1.5447,-1.5762,-1.5954,-1.5669,-1.5384,-1.5374,-1.5818,-1.5946,-1.5624,-1.5142,-1.4985,-1.5612,-1.5232,-1.5278,-1.5712,-1.6107,-1.6107,-1.6151,-1.6151,-1.625,-1.6151,-1.602,-1.6064,-1.6238,-1.6367,-1.6281,-1.5964,-1.5611,-1.5311,-1.4915,-1.513,-1.522,-1.5445,-1.5712,-1.5768,-1.5988,-1.6466,-1.6723,-1.685,-1.7018,-1.731,-1.7434,-1.7406,-1.7406,-2.8986,-2.8972,-2.9226,-2.9099,-2.8844,-2.9162,-2.9226,-2.9162,-2.9303,-2.9352,-2.9491,-2.9477,-2.9554,-2.9665,-2.9988,-3.0064,-3.0111,-3.0401,-3.0582,-3.0254,-2.9822,-2.9485,-2.9391,-2.9822,-2.9875,-2.9492,-2.9464,-2.9058,-2.8144,-2.9058,-2.9363,-2.8985,-2.9668,-2.9508,-2.8397,-2.6706,-2.5367,-2.4107,-2.2343,-2.139,-2.1186,-2.0534,-2.004,-1.9762,-1.9107,-1.8505,-1.794,-1.7024,-1.6572,-1.671,-1.6735,-1.6911,-1.7112,-1.7287,-1.7313,-1.725,-1.725,-1.72,-1.6848,-1.6647,-1.6635,-1.6722,-1.6629,-1.592,-1.5085,-1.5279,-1.5004,-1.4605,-1.4583,-1.4956,-1.53,-1.5998,-1.6784,-1.7549,-1.6896,-1.6405,-1.6438,-1.6364,-1.631,-1.6577,-1.5975,-1.5873,-1.6022,-1.5877,-1.5768,-1.6207,-1.6436,-1.6607,-1.6637,-1.6552,-1.6509,-1.6693,-1.668,-1.668,-1.6765,-1.6947,-1.6905,-1.6582,-1.6355,-1.6225,-1.5876,-1.5788,-1.57,-1.5668,-1.6151,-1.6324,-1.6497,-1.6837,-1.6964,-1.7089,-1.7352,-1.7652,-1.7747,-1.7747,-1.7747,-2.9289,-2.9352,-2.954,-2.9477,-2.9226,-2.9477,-2.954,-2.954,-2.954,-2.9665,-2.9803,-2.9803,-2.9927,-3.0021,-3.0219,-3.028,-3.0341,-3.0522,-3.0582,-3.0466,-2.9929,-2.9551,-2.9489,-2.9964,-2.9939,-2.9233,-2.9232,-2.8666,-2.8057,-2.8795,-2.9187,-2.9289,-2.9696,-2.9592,-2.8779,-2.6849,-2.5563,-2.4463,-2.2615,-2.145,-2.1399,-2.0539,-1.9813,-1.9508,-1.8953,-1.8497,-1.7617,-1.6904,-1.6577,-1.6534,-1.6559,-1.6785,-1.73,-1.7375,-1.7476,-1.7677,-1.7526,-1.73,-1.7225,-1.7036,-1.6999,-1.7174,-1.7225,-1.6864,-1.6314,-1.6207,-1.5894,-1.5897,-1.5791,-1.6059,-1.6605,-1.7232,-1.7866,-1.8312,-1.805,-1.7733,-1.7699,-1.7571,-1.7482,-1.7398,-1.698,-1.6504,-1.6745,-1.6382,-1.6399,-1.6637,-1.6808,-1.6947,-1.7086,-1.6905,-1.6808,-1.6989,-1.7073,-1.7031,-1.7031,-1.7183,-1.7295,-1.706,-1.6976,-1.6892,-1.6667,-1.6398,-1.6355,-1.6355,-1.6667,-1.6892,-1.7047,-1.7214,-1.7434,-1.7611,-1.7828,-1.7882,-1.7882,-1.7922,-1.7922,-2.9713,-2.9713,-2.9741,-2.9865,-2.9927,-2.9789,-2.9851,-2.9988,-2.9865,-2.9913,-3.0111,-3.0172,-3.0294,-3.0582,-3.0507,-3.0582,-3.0582,-3.0582,-3.0393,-3.0219,-2.9885,-2.9609,-2.9218,-2.9769,-2.9537,-2.8724,-2.8579,-2.8173,-2.7937,-2.8455,-2.911,-2.9386,-2.9322,-2.9171,-2.8455,-2.6663,-2.555,-2.4819,-2.2895,-2.1751,-2.157,-2.0759,-1.9861,-1.9092,-1.8584,-1.7951,-1.7193,-1.6794,-1.6764,-1.6552,-1.6509,-1.6861,-1.735,-1.7488,-1.7689,-1.799,-1.779,-1.7689,-1.789,-1.7501,-1.7576,-1.794,-1.8078,-1.8001,-1.7412,-1.7083,-1.7047,-1.7185,-1.7294,-1.7588,-1.8213,-1.8679,-1.8838,-1.9044,-1.9121,-1.9056,-1.8879,-1.8879,-1.8698,-1.8145,-1.7629,-1.736,-1.7119,-1.6892,-1.6723,-1.6905,-1.7073,-1.717,-1.7253,-1.7199,-1.7144,-1.7186,-1.724,-1.7282,-1.7337,-1.7404,-1.7515,-1.7447,-1.7502,-1.7406,-1.7186,-1.7047,-1.706,-1.7157,-1.7186,-1.731,-1.7406,-1.7611,-1.7788,-1.7842,-1.7882,-1.7882,-1.7922,-1.7922,-1.7922,-3.0539,-3.0553,-3.0447,-3.0097,-2.9851,-3.0158,-3.028,-3.0111,-3.028,-3.0401,-3.0462,-3.0447,-3.0522,-3.0642,-3.0642,-3.0642,-3.0642,-3.0584,-3.0089,-2.9218,-3.0103,-2.9377,-2.8652,-2.8898,-2.8666,-2.81,-2.7955,-2.7675,-2.7564,-2.8291,-2.8741,-2.866,-2.9422,-2.9363,-2.8184,-2.674,-2.5368,-2.465,-2.2777,-2.1838,-2.1642,-2.0965,-2.0137,-1.93,-1.8434,-1.7632,-1.7114,-1.7255,-1.7268,-1.6905,-1.6708,-1.7074,-1.7823,-1.7999,-1.8041,-1.8141,-1.8091,-1.7865,-1.7639,-1.7634,-1.7639,-1.8216,-1.8342,-1.8001,-1.7581,-1.7858,-1.7799,-1.7808,-1.7944,-1.8519,-1.9218,-1.9475,-1.9695,-2.0003,-2.0156,-2.0079,-1.9559,-1.8832,-1.841,-1.8055,-1.7619,-1.723,-1.7231,-1.7157,-1.7073,-1.7212,-1.7253,-1.735,-1.7378,-1.7365,-1.7352,-1.7352,-1.7352,-1.7406,-1.7461,-1.7556,-1.7638,-1.7706,-1.776,-1.7801,-1.757,-1.7488,-1.7447,-1.7488,-1.7611,-1.7666,-1.7706,-1.7747,-1.7882,-1.7882,-1.7922,-1.7922,-1.7922,-1.7922,-1.8003,-3.0732,-3.0673,-3.0642,-3.0387,-3.0158,-3.0447,-3.0522,-3.0401,-3.0522,-3.0642,-3.0642,-3.0642,-3.0642,-3.0642,-3.0642,-3.0642,-3.0642,-3.0628,-3.0248,-2.9755,-3.0031,-2.9537,-2.8753,-2.8303,-2.8028,-2.7737,-2.7777,-2.7598,-2.7779,-2.8424,-2.9005,-2.8695,-2.95,-2.9273,-2.8305,-2.6881,-2.6115,-2.5544,-2.4031,-2.2906,-2.231,-2.1688,-2.0548,-1.9452,-1.839,-1.7686,-1.7437,-1.7617,-1.7573,-1.7414,-1.7428,-1.7708,-1.8164,-1.8177,-1.8206,-1.8563,-1.8143,-1.8219,-1.8143,-1.8118,-1.8342,-1.9029,-1.9154,-1.8994,-1.8772,-1.8919,-1.8967,-1.8939,-1.9123,-1.9371,-2.0003,-2.0169,-2.0435,-2.0599,-2.0699,-2.0542,-2.0132,-1.9455,-1.8643,-1.8249,-1.7856,-1.7496,-1.7362,-1.7251,-1.7253,-1.7295,-1.7308,-1.7404,-1.7447,-1.7434,-1.7434,-1.7475,-1.7475,-1.7516,-1.7625,-1.7679,-1.7801,-1.7828,-1.7842,-1.7882,-1.7801,-1.7801,-1.7801,-1.7801,-1.7788,-1.7828,-1.7842,-1.7922,-1.7922,-1.7922,-1.7922,-1.7922,-1.7922,-1.7963,-1.8109,-3.0747,-3.0702,-3.0628,-3.0642,-3.0642,-3.0582,-3.0582,-3.0582,-3.0642,-3.0642,-3.0642,-3.0642,-3.0642,-3.0642,-3.0642,-3.0642,-3.0642,-3.0553,-3.0379,-3.0147,-3.0001,-2.9537,-2.8971,-2.8347,-2.7893,-2.7636,-2.7598,-2.7662,-2.793,-2.869,-2.899,-2.9124,-2.9331,-2.9077,-2.839,-2.7348,-2.6467,-2.6083,-2.5026,-2.3873,-2.2987,-2.2304,-2.0957,-1.9278,-1.8382,-1.7939,-1.7748,-1.7904,-1.7989,-1.7817,-1.8428,-1.8737,-1.8639,-1.8375,-1.8265,-1.919,-1.8512,-1.8499,-1.8859,-1.8894,-1.9095,-2.0143,-2.0144,-2.0131,-2.0004,-1.9813,-1.9889,-2.0067,-2.0131,-2.0067,-2.0599,-2.0599,-2.0649,-2.0699,-2.0699,-2.066,-2.0489,-2.007,-1.9232,-1.8455,-1.7948,-1.7522,-1.7369,-1.7282,-1.7337,-1.7378,-1.7432,-1.7487,-1.7529,-1.7557,-1.7639,-1.7598,-1.7652,-1.7652,-1.7747,-1.7788,-1.7909,-1.7949,-1.7963,-1.7963,-1.7963,-1.7882,-1.7882,-1.7882,-1.7882,-1.7922,-1.7922,-1.7922,-1.7922,-1.7922,-1.8029,-1.8149,-1.8109,-1.8069,-1.8254,-3.1495,-3.1161,-3.0747,-3.0642,-3.0642,-3.0642,-3.0642,-3.0642,-3.0642,-3.0642,-3.0642,-3.0642,-3.0642,-3.0642,-3.0642,-3.0642,-3.0642,-3.0553,-3.0335,-3.0089,-3.0016,-2.9711,-2.8579,-2.8473,-2.8061,-2.7331,-2.7208,-2.738,-2.7654,-2.8174,-2.8628,-2.8719,-2.8876,-2.8742,-2.8256,-2.7363,-2.6621,-2.6226,-2.525,-2.412,-2.2937,-2.1968,-2.0888,-1.9146,-1.8545,-1.8087,-1.7796,-1.8239,-1.8513,-1.82,-1.9073,-1.9456,-1.9473,-1.9236,-1.9243,-1.9246,-1.9144,-1.9092,-1.9297,-1.9336,-1.9579,-2.0053,-2.022,-2.022,-2.0233,-2.0296,-2.0347,-2.0398,-2.0549,-2.0586,-2.0649,-2.0699,-2.0699,-2.0699,-2.0723,-2.0591,-2.0206,-1.9907,-1.9592,-1.899,-1.8239,-1.7534,-1.7444,-1.7365,-1.7406,-1.7529,-1.7666,-1.772,-1.7788,-1.7855,-1.7935,-1.7909,-1.7828,-1.7828,-1.7868,-1.7909,-1.7989,-1.8109,-1.8109,-1.8109,-1.8083,-1.7963,-1.7922,-1.8109,-1.8109,-1.8029,-1.8003,-1.8043,-1.8083,-1.8202,-1.8293,-1.8397,-1.8436,-1.8489,-1.8721,-3.1321,-3.0925,-3.0702,-3.0642,-3.0642,-3.0642,-3.0642,-3.0642,-3.0642,-3.0642,-3.0642,-3.0642,-3.0642,-3.0642,-3.0642,-3.0642,-3.0642,-3.0628,-3.0393,-3.0205,-3.0031,-2.9726,-2.855,-2.8615,-2.81,-2.7636,-2.7365,-2.7262,-2.7461,-2.8174,-2.8345,-2.8308,-2.8682,-2.8786,-2.8226,-2.7854,-2.7246,-2.6669,-2.6031,-2.4948,-2.3212,-2.1952,-2.0463,-1.9616,-1.912,-1.8845,-1.8754,-1.8963,-1.9251,-1.9211,-1.9799,-1.9995,-1.9934,-1.9937,-1.9891,-1.9623,-1.9558,-1.9594,-1.9533,-1.9558,-1.9853,-2.0382,-2.0435,-2.0435,-2.0498,-2.0549,-2.0599,-2.0599,-2.0649,-2.0699,-2.0699,-2.0699,-2.0699,-2.0749,-2.0898,-2.0899,-2.071,-2.0603,-2.0178,-1.9609,-1.8655,-1.7949,-1.75,-1.7488,-1.7529,-1.7652,-1.7855,-1.7975,-1.8109,-1.8228,-1.8347,-1.8372,-1.8333,-1.8333,-1.8333,-1.8333,-1.8333,-1.8347,-1.8386,-1.8386,-1.8425,-1.8386,-1.8489,-1.8644,-1.8489,-1.8333,-1.8489,-1.8659,-1.8581,-1.8503,-1.8683,-1.8822,-1.886,-1.8974,-1.9199,-3.1043,-3.0642,-3.0642,-3.0642,-3.0642,-3.0642,-3.0642,-3.0642,-3.0642,-3.0642,-3.0642,-3.0642,-3.0642,-3.0642,-3.0642,-3.0642,-3.0657,-3.0744,-3.0773,-3.0569,-3.0395,-3.0046,-2.9377,-2.8803,-2.8233,-2.8089,-2.7884,-2.7571,-2.7578,-2.8002,-2.8083,-2.8158,-2.8891,-2.8846,-2.8098,-2.8062,-2.7993,-2.7601,-2.7363,-2.6192,-2.3983,-2.1897,-2.0358,-1.9756,-1.9664,-1.952,-1.9179,-1.9389,-1.9577,-1.9786,-2.0205,-2.0489,-2.0139,-2.0463,-2.0427,-1.995,-1.9921,-1.9908,-1.9921,-1.9947,-2.0244,-2.0623,-2.0699,-2.0699,-2.0699,-2.0649,-2.0699,-2.0699,-2.0699,-2.0699,-2.0699,-2.0799,-2.0848,-2.0934,-2.1264,-2.1547,-2.1525,-2.1373,-2.1024,-2.026,-1.9165,-1.8557,-1.8259,-1.8068,-1.8226,-1.8226,-1.8436,-1.8475,-1.8592,-1.876,-1.8874,-1.8912,-1.895,-1.895,-1.8912,-1.8836,-1.8836,-1.8798,-1.8798,-1.8798,-1.8874,-1.895,-1.9064,-1.9087,-1.9049,-1.8936,-1.9101,-1.9116,-1.8927,-1.8874,-1.9101,-1.9213,-1.9236,-1.9384,-1.9639,-3.1043,-3.0642,-3.0642,-3.0642,-3.0628,-3.0642,-3.0642,-3.0642,-3.0642,-3.0642,-3.0642,-3.0642,-3.0642,-3.0642,-3.0628,-3.0702,-3.0833,-3.1008,-3.0964,-3.0703,-3.0776,-3.0456,-2.9913,-2.9392,-2.866,-2.8471,-2.8412,-2.8113,-2.7889,-2.7874,-2.8038,-2.8293,-2.8158,-2.7964,-2.8233,-2.7964,-2.7395,-2.693,-2.6768,-2.5621,-2.3547,-2.1693,-2.0373,-1.9574,-1.9311,-1.9179,-1.8995,-1.9258,-1.9567,-1.9939,-2.0411,-2.0646,-2.062,-2.0646,-2.0699,-2.057,-2.0607,-2.0607,-2.0492,-2.0453,-2.0515,-2.0686,-2.0699,-2.0699,-2.0699,-2.0699,-2.0699,-2.0699,-2.0699,-2.0749,-2.0835,-2.1144,-2.1277,-2.1506,-2.1766,-2.2049,-2.2183,-2.2406,-2.2003,-2.1447,-2.0535,-1.9773,-1.9238,-1.908,-1.8936,-1.8936,-1.8974,-1.9011,-1.9087,-1.925,-1.9362,-1.9398,-1.9472,-1.9472,-1.9435,-1.9398,-1.9376,-1.9302,-1.9288,-1.9288,-1.9362,-1.9435,-1.942,-1.9457,-1.942,-1.942,-1.9435,-1.9325,-1.9176,-1.9288,-1.9508,-1.9581,-1.9654,-1.9833,-2.001,-3.1637,-3.1248,-3.1043,-3.1087,-3.1131,-3.0807,-3.0642,-3.0642,-3.0642,-3.0642,-3.0642,-3.0687,-3.0762,-3.0836,-3.0895,-3.0895,-3.094,-3.0895,-3.0646,-3.0221,-3.0132,-2.9736,-2.9381,-2.9015,-2.856,-2.8717,-2.8838,-2.8801,-2.8442,-2.8457,-2.8652,-2.8098,-2.8427,-2.8397,-2.8173,-2.7739,-2.7265,-2.6553,-2.5701,-2.4624,-2.3414,-2.2013,-2.0729,-2.0046,-2.004,-1.9754,-1.9542,-1.9873,-2.0223,-2.0505,-2.0769,-2.0835,-2.0898,-2.0898,-2.0898,-2.0898,-2.0835,-2.0772,-2.0686,-2.0699,-2.0699,-2.0699,-2.0699,-2.0699,-2.0699,-2.0749,-2.0749,-2.0699,-2.0947,-2.1082,-2.1215,-2.1602,-2.1813,-2.2049,-2.236,-2.2634,-2.2876,-2.3243,-2.3167,-2.2565,-2.1939,-2.1162,-2.0309,-1.9662,-1.9426,-1.9353,-1.9369,-1.942,-1.9603,-1.9797,-1.9869,-1.9869,-1.9904,-1.9955,-1.994,-1.9904,-1.9935,-1.9899,-1.9904,-1.9869,-1.9869,-1.9904,-1.9854,-1.9889,-1.994,-1.9869,-1.9762,-1.9726,-1.9726,-1.9797,-1.9904,-1.994,-1.9955,-2.0025,-2.0185,-3.2391,-3.2155,-3.1694,-3.148,-3.148,-3.0911,-3.0702,-3.0702,-3.0702,-3.0702,-3.0762,-3.0836,-3.0955,-3.1087,-3.1058,-3.097,-3.0866,-3.0645,-3.0365,-2.9879,-2.9625,-2.9625,-2.9696,-2.9332,-2.9068,-2.8881,-2.954,-2.943,-2.922,-2.9265,-2.9101,-2.7919,-2.8397,-2.8449,-2.7829,-2.753,-2.7255,-2.6534,-2.4949,-2.4098,-2.3591,-2.2216,-2.1318,-2.0871,-2.0725,-2.0534,-2.0361,-2.0534,-2.0753,-2.0957,-2.097,-2.0947,-2.0997,-2.0947,-2.0947,-2.0997,-2.0947,-2.0898,-2.0848,-2.0799,-2.0749,-2.0749,-2.0762,-2.0799,-2.0785,-2.0835,-2.0983,-2.1082,-2.1458,-2.1636,-2.1766,-2.2235,-2.2452,-2.2725,-2.2995,-2.3275,-2.3478,-2.3704,-2.3671,-2.3077,-2.262,-2.2531,-2.1576,-2.0483,-1.9961,-1.9775,-1.9766,-1.9863,-2.001,-2.02,-2.0231,-2.0231,-2.0166,-2.0308,-2.0472,-2.0481,-2.0505,-2.0435,-2.0454,-2.0407,-2.0357,-2.0323,-2.0289,-2.0323,-2.0339,-2.02,-2.0025,-2.0166,-2.027,-2.02,-2.0131,-2.02,-2.0235,-2.0304,-2.0304,-3.3235,-3.3582,-3.2345,-3.1637,-3.1176,-3.0895,-3.0881,-3.1014,-3.0895,-3.0881,-3.1014,-3.1087,-3.1073,-3.1146,-3.1087,-3.0909,-3.0463,-3.1442,-3.1028,-3.0878,-3.119,-3.1025,-3.0755,-3.0321,-3.0152,-3.0208,-3.0387,-3.0103,-2.9729,-2.9864,-2.9475,-2.8727,-2.8412,-2.794,-2.755,-2.732,-2.698,-2.6135,-2.4675,-2.4007,-2.3579,-2.25,-2.1443,-2.1066,-2.0598,-2.0237,-2.0402,-2.0617,-2.086,-2.1166,-2.118,-2.1082,-2.1082,-2.1095,-2.1095,-2.1095,-2.1046,-2.1046,-2.0997,-2.0947,-2.0947,-2.0983,-2.0934,-2.0997,-2.1082,-2.1471,-2.1664,-2.1698,-2.2109,-2.2328,-2.2498,-2.2815,-2.3084,-2.3275,-2.3551,-2.3724,-2.3867,-2.3967,-2.3886,-2.3462,-2.3255,-2.3218,-2.2794,-2.1614,-2.1053,-2.0864,-2.0421,-2.0476,-2.03,-2.0407,-2.0485,-2.0466,-2.0404,-2.057,-2.1008,-2.0936,-2.0589,-2.0668,-2.0769,-2.0758,-2.0728,-2.0728,-2.0595,-2.0475,-2.0373,-2.0339,-2.0304,-2.0304,-2.0304,-2.0304,-2.0304,-2.0304,-2.0304,-2.0304,-2.0304,-3.3425,-3.2704,-3.2222,-3.2168,-3.2201,-3.1336,-3.1014,-3.1087,-3.1014,-3.1058,-3.1234,-3.1234,-3.1234,-3.1292,-3.1351,-3.1246,-3.1036,-3.0919,-3.077,-3.0544,-3.0559,-3.0663,-3.0526,-3.0675,-3.0477,-3.0612,-3.0851,-3.0791,-3.0253,-3.0158,-2.9744,-2.9101,-2.8412,-2.7979,-2.7619,-2.689,-2.6156,-2.5467,-2.4537,-2.3925,-2.3791,-2.3143,-2.2323,-2.1945,-2.158,-2.1313,-2.1428,-2.1449,-2.1605,-2.169,-2.1684,-2.1554,-2.1361,-2.1326,-2.1326,-2.1326,-2.1326,-2.1326,-2.1277,-2.1131,-2.0997,-2.0997,-2.0983,-2.1118,-2.1458,-2.1698,-2.1969,-2.2235,-2.268,-2.295,-2.2995,-2.3421,-2.3839,-2.3882,-2.3967,-2.4151,-2.4234,-2.4234,-2.423,-2.3825,-2.3921,-2.4008,-2.3444,-2.2762,-2.2337,-2.1982,-2.1466,-2.1007,-2.073,-2.0626,-2.072,-2.0751,-2.0655,-2.0802,-2.1248,-2.0969,-2.0565,-2.0866,-2.1147,-2.1086,-2.1039,-2.0827,-2.0695,-2.0561,-2.0441,-2.0339,-2.0304,-2.0304,-2.0304,-2.0304,-2.0304,-2.0304,-2.0304,-2.0304,-2.0304,-3.3242,-3.2286,-3.2006,-3.1992,-3.2106,-3.1267,-3.0909,-3.0924,-3.1102,-3.1351,-3.161,-3.1509,-3.1509,-3.164,-3.1524,-3.1273,-3.1093,-3.0944,-3.0746,-3.0597,-3.0492,-3.0432,-3.0672,-3.0836,-3.1024,-3.1095,-3.1403,-3.1403,-3.0764,-3.012,-2.9591,-2.9177,-2.8637,-2.7979,-2.741,-2.6366,-2.5393,-2.4822,-2.4247,-2.394,-2.394,-2.3426,-2.3139,-2.2693,-2.2366,-2.2173,-2.2205,-2.2283,-2.2303,-2.2388,-2.2356,-2.2217,-2.1983,-2.1841,-2.1827,-2.1827,-2.1841,-2.1827,-2.1779,-2.1554,-2.1396,-2.152,-2.1684,-2.1799,-2.1913,-2.2175,-2.2649,-2.2815,-2.326,-2.3537,-2.3537,-2.3909,-2.4151,-2.4109,-2.4135,-2.4261,-2.4276,-2.4276,-2.4317,-2.4236,-2.4379,-2.4358,-2.4051,-2.3343,-2.2452,-2.1931,-2.1264,-2.091,-2.0836,-2.0775,-2.0903,-2.0935,-2.0952,-2.1148,-2.1389,-2.1119,-2.1004,-2.1585,-2.173,-2.1437,-2.1324,-2.1103,-2.086,-2.0695,-2.0527,-2.0373,-2.0304,-2.0304,-2.0304,-2.0304,-2.0304,-2.0339,-2.0304,-2.0304,-2.0304,-3.2492,-3.2562,-3.1566,-3.0964,-3.0709,-3.044,-3.047,-3.0773,-3.124,-3.1781,-3.2216,-3.1853,-3.1853,-3.2064,-3.1739,-3.1285,-3.1031,-3.1225,-3.1165,-3.0806,-3.1001,-3.1273,-3.139,-3.1432,-3.1611,-3.2226,-3.2228,-3.1805,-3.1351,-3.0431,-2.9635,-2.8861,-2.8297,-2.7685,-2.749,-2.6432,-2.5561,-2.4984,-2.4316,-2.4143,-2.4017,-2.3594,-2.3428,-2.3366,-2.2961,-2.2745,-2.2952,-2.2922,-2.2889,-2.2889,-2.2889,-2.2799,-2.2663,-2.2663,-2.2649,-2.2649,-2.2709,-2.2754,-2.2799,-2.2402,-2.2285,-2.2232,-2.2331,-2.2515,-2.2595,-2.2951,-2.3421,-2.345,-2.3852,-2.412,-2.4219,-2.4261,-2.4276,-2.4276,-2.4317,-2.4302,-2.4302,-2.4359,-2.44,-2.4457,-2.4482,-2.4477,-2.4365,-2.3865,-2.2624,-2.178,-2.1041,-2.0793,-2.0909,-2.1038,-2.1215,-2.1326,-2.1359,-2.1469,-2.1643,-2.1408,-2.1486,-2.2112,-2.2221,-2.1842,-2.1601,-2.1479,-2.1198,-2.0909,-2.0712,-2.0613,-2.046,-2.0304,-2.0441,-2.0561,-2.0392,-2.0407,-2.0339,-2.0304,-2.0304,-3.2114,-3.1417,-3.111,-3.0656,-3.0293,-3.0785,-3.1058,-3.1274,-3.2067,-3.2718,-3.2788,-3.2327,-3.2176,-3.2176,-3.1781,-3.1375,-3.1285,-3.1285,-3.127,-3.1255,-3.145,-3.148,-3.1582,-3.191,-3.2216,-3.2299,-3.2253,-3.216,-3.1831,-3.0561,-2.9755,-2.9011,-2.8178,-2.7579,-2.7037,-2.624,-2.5637,-2.5057,-2.4506,-2.4166,-2.4204,-2.4004,-2.3917,-2.4036,-2.3495,-2.3398,-2.3666,-2.3508,-2.3377,-2.3377,-2.3377,-2.326,-2.3083,-2.2979,-2.2965,-2.2934,-2.2934,-2.3068,-2.3246,-2.3143,-2.2995,-2.2906,-2.2876,-2.3084,-2.3201,-2.3376,-2.3724,-2.3952,-2.4177,-2.4317,-2.4261,-2.4261,-2.4317,-2.4317,-2.4302,-2.4302,-2.4317,-2.44,-2.4457,-2.4539,-2.458,-2.4484,-2.4374,-2.4398,-2.3423,-2.2595,-2.1938,-2.144,-2.1437,-2.15,-2.1627,-2.1794,-2.1875,-2.1908,-2.1859,-2.166,-2.1587,-2.1999,-2.2156,-2.1956,-2.1827,-2.1781,-2.1631,-2.137,-2.115,-2.0909,-2.0778,-2.0712,-2.0811,-2.0844,-2.0778,-2.0579,-2.0494,-2.0392,-2.0304,-3.1479,-3.0717,-3.0826,-3.0679,-3.0402,-3.0732,-3.1011,-3.1451,-3.2583,-3.3072,-3.2756,-3.2501,-3.2398,-3.2231,-3.1796,-3.1467,-3.1467,-3.1467,-3.1467,-3.1467,-3.1467,-3.164,-3.191,-3.217,-3.2439,-3.2504,-3.2408,-3.2265,-3.1613,-3.03,-2.9391,-2.8771,-2.8351,-2.7719,-2.7018,-2.6381,-2.5604,-2.4973,-2.4357,-2.4234,-2.4261,-2.423,-2.423,-2.4177,-2.4032,-2.3952,-2.412,-2.4036,-2.3824,-2.3809,-2.3782,-2.3696,-2.348,-2.3377,-2.3363,-2.3377,-2.3421,-2.3595,-2.3782,-2.3809,-2.3666,-2.3507,-2.3406,-2.3566,-2.3824,-2.3967,-2.4094,-2.4261,-2.4359,-2.4359,-2.4317,-2.4317,-2.4302,-2.4302,-2.44,-2.44,-2.4441,-2.4539,-2.4751,-2.4751,-2.4879,-2.4671,-2.4628,-2.4511,-2.4305,-2.362,-2.2964,-2.2452,-2.1919,-2.1913,-2.1897,-2.1974,-2.2106,-2.2104,-2.2038,-2.195,-2.1919,-2.1974,-2.2032,-2.2106,-2.2089,-2.2044,-2.1957,-2.184,-2.1493,-2.1245,-2.115,-2.115,-2.1276,-2.1308,-2.1276,-2.1023,-2.0697,-2.0512,-2.0392,-3.0534,-3.0542,-3.0826,-3.0924,-3.08,-3.0464,-3.0575,-3.1252,-3.2618,-3.2875,-3.2199,-3.2384,-3.236,-3.2272,-3.1739,-3.1524,-3.1467,-3.1467,-3.1582,-3.1522,-3.1546,-3.1845,-3.2103,-3.2338,-3.2431,-3.2737,-3.2707,-3.2043,-3.1177,-3.0273,-2.9214,-2.8335,-2.8213,-2.7725,-2.7193,-2.6459,-2.5661,-2.4921,-2.4583,-2.4414,-2.4364,-2.4302,-2.4302,-2.4261,-2.4219,-2.4219,-2.4261,-2.4219,-2.4219,-2.4219,-2.4219,-2.4219,-2.4261,-2.4261,-2.4302,-2.4261,-2.4177,-2.4177,-2.4177,-2.4177,-2.4245,-2.409,-2.4188,-2.4374,-2.4431,-2.4359,-2.44,-2.4441,-2.4482,-2.44,-2.4359,-2.4343,-2.4343,-2.4426,-2.4523,-2.4564,-2.4605,-2.4751,-2.5036,-2.5192,-2.5346,-2.5394,-2.5517,-2.5454,-2.5095,-2.4363,-2.3644,-2.2936,-2.2459,-2.2163,-2.2106,-2.1949,-2.2091,-2.2214,-2.218,-2.214,-2.2168,-2.222,-2.2304,-2.2332,-2.2315,-2.2287,-2.2158,-2.2015,-2.1735,-2.1568,-2.1645,-2.1675,-2.1718,-2.1735,-2.1675,-2.1385,-2.1039,-2.073,-2.0613,-3.099,-3.0617,-3.172,-3.1611,-3.0761,-3.098,-3.1818,-3.2978,-3.3515,-3.3275,-3.2721,-3.2341,-3.2135,-3.2312,-3.1811,-3.1509,-3.1495,-3.1582,-3.1853,-3.1799,-3.1555,-3.1813,-3.1982,-3.2143,-3.2192,-3.2141,-3.2047,-3.1867,-3.1281,-3.0384,-2.9328,-2.8314,-2.8332,-2.7917,-2.738,-2.6673,-2.5828,-2.5136,-2.4902,-2.461,-2.4394,-2.4317,-2.4302,-2.4302,-2.4302,-2.4302,-2.4302,-2.4302,-2.4302,-2.4302,-2.4302,-2.4302,-2.4302,-2.4302,-2.4302,-2.4302,-2.4261,-2.4261,-2.4317,-2.44,-2.4441,-2.4467,-2.4467,-2.4477,-2.4533,-2.4549,-2.4605,-2.458,-2.4564,-2.4523,-2.4482,-2.4426,-2.4508,-2.4589,-2.4751,-2.4934,-2.5013,-2.5269,-2.5519,-2.5705,-2.5888,-2.6033,-2.6197,-2.6267,-2.5849,-2.5055,-2.432,-2.3587,-2.2915,-2.2586,-2.2354,-2.2158,-2.2175,-2.236,-2.2388,-2.2349,-2.2405,-2.246,-2.2515,-2.2515,-2.247,-2.2415,-2.2371,-2.226,-2.2027,-2.2101,-2.2231,-2.2203,-2.2084,-2.2101,-2.2044,-2.1705,-2.1385,-2.1071,-2.0926,-3.0493,-3.0311,-3.1653,-3.1901,-3.152,-3.1851,-3.2332,-3.2564,-3.2796,-3.2479,-3.1738,-3.1355,-3.1373,-3.1467,-3.1177,-3.1054,-3.1006,-3.1304,-3.1564,-3.157,-3.1467,-3.1738,-3.1852,-3.195,-3.1974,-3.1827,-3.1704,-3.1596,-3.1146,-3.0457,-2.9438,-2.8858,-2.8732,-2.828,-2.7705,-2.7087,-2.6272,-2.5533,-2.4995,-2.4687,-2.4471,-2.4302,-2.4302,-2.4302,-2.4302,-2.4343,-2.4302,-2.4343,-2.4302,-2.4302,-2.4302,-2.4302,-2.4302,-2.4302,-2.4302,-2.4302,-2.4302,-2.4343,-2.44,-2.4457,-2.4539,-2.462,-2.4686,-2.467,-2.471,-2.471,-2.4686,-2.4701,-2.4686,-2.463,-2.4589,-2.4589,-2.467,-2.4791,-2.5036,-2.5329,-2.554,-2.5815,-2.6033,-2.6262,-2.6401,-2.6556,-2.6691,-2.6792,-2.6602,-2.578,-2.5077,-2.4504,-2.3624,-2.2853,-2.262,-2.2426,-2.2443,-2.2497,-2.2525,-2.2525,-2.2525,-2.2569,-2.2579,-2.2579,-2.2579,-2.2552,-2.2525,-2.248,-2.2398,-2.247,-2.2497,-2.2453,-2.2354,-2.2371,-2.236,-2.2158,-2.1823,-2.1415,-2.137,-2.9433,-2.9549,-3.094,-3.1928,-3.2558,-3.2359,-3.158,-3.0493,-3.094,-3.0707,-2.9964,-3.0067,-3.0378,-3.0747,-3.0738,-3.0716,-3.0852,-3.118,-3.1462,-3.1275,-3.1244,-3.147,-3.1832,-3.1887,-3.1649,-3.1679,-3.1591,-3.1275,-3.0875,-3.0368,-2.9908,-2.9629,-2.9303,-2.8817,-2.8155,-2.7572,-2.672,-2.5737,-2.5072,-2.4611,-2.4431,-2.4302,-2.4343,-2.4385,-2.4426,-2.4451,-2.4426,-2.4426,-2.4343,-2.4385,-2.4385,-2.4385,-2.4492,-2.4492,-2.4492,-2.4508,-2.4614,-2.4655,-2.4775,-2.4831,-2.4886,-2.4926,-2.4886,-2.5052,-2.5169,-2.491,-2.4846,-2.4806,-2.4806,-2.4855,-2.4855,-2.4918,-2.4997,-2.5253,-2.5594,-2.5799,-2.6016,-2.628,-2.6556,-2.6708,-2.6842,-2.6957,-2.7007,-2.7072,-2.6781,-2.6189,-2.5738,-2.52,-2.4477,-2.346,-2.302,-2.2811,-2.2623,-2.2596,-2.2579,-2.2579,-2.2605,-2.2632,-2.2642,-2.2659,-2.2632,-2.2659,-2.2712,-2.2632,-2.2579,-2.2632,-2.2659,-2.2588,-2.2535,-2.2552,-2.2552,-2.2525,-2.226,-2.1853,-2.1794,-2.94,-2.9499,-3.0493,-3.1349,-3.1815,-3.08,-2.9926,-2.9087,-2.8593,-2.9,-2.9653,-3.0231,-3.0609,-3.0629,-3.0807,-3.0876,-3.0945,-3.111,-3.1582,-3.153,-3.1362,-3.1377,-3.1735,-3.1497,-3.1241,-3.1124,-3.1048,-3.0983,-3.0684,-3.0393,-3.0182,-2.9837,-2.9597,-2.915,-2.8442,-2.7849,-2.6946,-2.5909,-2.5441,-2.4799,-2.4492,-2.4639,-2.4759,-2.4839,-2.4902,-2.5059,-2.502,-2.4879,-2.502,-2.5121,-2.4863,-2.4942,-2.5198,-2.5198,-2.5198,-2.5237,-2.523,-2.523,-2.5307,-2.54,-2.5546,-2.5642,-2.5701,-2.5795,-2.5668,-2.5208,-2.5005,-2.4982,-2.4989,-2.5091,-2.5153,-2.5253,-2.5389,-2.5762,-2.6104,-2.628,-2.6505,-2.6725,-2.7007,-2.7105,-2.7218,-2.7282,-2.7299,-2.7144,-2.6816,-2.6506,-2.6195,-2.573,-2.5195,-2.4384,-2.3702,-2.3364,-2.2814,-2.271,-2.2649,-2.2632,-2.2659,-2.2659,-2.2685,-2.2685,-2.2712,-2.2712,-2.2712,-2.2712,-2.2685,-2.2712,-2.2712,-2.2685,-2.2659,-2.2659,-2.2632,-2.2605,-2.2579,-2.2243,-2.226,-2.9071,-2.9243,-3.0299,-3.1007,-3.1191,-3.049,-2.9627,-2.8762,-2.8486,-2.8511,-2.8747,-2.9284,-2.9722,-3.024,-3.0608,-3.075,-3.0812,-3.1114,-3.1271,-3.1396,-3.1394,-3.1299,-3.124,-3.1153,-3.1039,-3.0912,-3.0952,-3.0871,-3.0658,-3.0699,-3.0576,-3.0285,-3.002,-2.9295,-2.8519,-2.768,-2.6863,-2.6047,-2.5702,-2.5285,-2.4759,-2.4902,-2.4942,-2.502,-2.5137,-2.5351,-2.5427,-2.5275,-2.5351,-2.5427,-2.5253,-2.5237,-2.5389,-2.5427,-2.5481,-2.5519,-2.5556,-2.5738,-2.5811,-2.5974,-2.6201,-2.6319,-2.6118,-2.6049,-2.7061,-2.6645,-2.5886,-2.5837,-2.5642,-2.5668,-2.5668,-2.5762,-2.5944,-2.6245,-2.6436,-2.6607,-2.6808,-2.7072,-2.7186,-2.7218,-2.7299,-2.7299,-2.7299,-2.7299,-2.6954,-2.6523,-2.6247,-2.6053,-2.5569,-2.5415,-2.4728,-2.4043,-2.3552,-2.2945,-2.2703,-2.2685,-2.2685,-2.2712,-2.2712,-2.2712,-2.2712,-2.2712,-2.2712,-2.2738,-2.2738,-2.2712,-2.2712,-2.2712,-2.2712,-2.2685,-2.2659,-2.2642,-2.2632,-2.2605,-2.2579,-2.8427,-2.8728,-3.0023,-3.061,-3.0593,-3.0476,-2.9688,-2.8732,-2.8996,-2.8511,-2.7651,-2.7866,-2.8303,-2.9049,-2.9853,-2.9951,-3.026,-3.0882,-3.1083,-3.0948,-3.1019,-3.1143,-3.1143,-3.1032,-3.1015,-3.0992,-3.1032,-3.1072,-3.1055,-3.1055,-3.0988,-3.0875,-3.009,-2.9098,-2.8224,-2.7356,-2.6542,-2.6126,-2.5815,-2.5652,-2.5427,-2.5237,-2.5198,-2.5121,-2.5098,-2.5323,-2.5621,-2.561,-2.561,-2.5824,-2.5877,-2.5815,-2.5852,-2.5888,-2.5852,-2.5888,-2.6013,-2.6066,-2.612,-2.6262,-2.6649,-2.6833,-2.6445,-2.6728,-2.7718,-2.7564,-2.6828,-2.6543,-2.6343,-2.6206,-2.6206,-2.621,-2.6436,-2.6657,-2.6791,-2.6875,-2.7105,-2.7299,-2.7299,-2.7299,-2.733,-2.733,-2.733,-2.733,-2.7089,-2.664,-2.6394,-2.6117,-2.5987,-2.6173,-2.596,-2.5143,-2.4425,-2.3788,-2.3066,-2.2738,-2.2738,-2.2712,-2.2712,-2.2712,-2.2712,-2.2712,-2.2738,-2.279,-2.279,-2.2764,-2.2747,-2.2747,-2.2721,-2.2738,-2.2799,-2.2799,-2.2712,-2.2712,-2.2712,-2.7238,-2.7841,-2.8803,-2.9227,-2.9143,-2.8622,-2.8138,-2.7923,-2.7464,-2.701,-2.7112,-2.7582,-2.8142,-2.871,-2.9582,-2.9772,-2.9526,-3.0379,-3.0549,-3.0408,-3.0644,-3.0948,-3.0982,-3.0656,-3.105,-3.1016,-3.0915,-3.1083,-3.0784,-3.0903,-3.0835,-3.0256,-3.0188,-2.9231,-2.8053,-2.7356,-2.7,-2.6549,-2.6364,-2.6274,-2.5832,-2.5742,-2.5961,-2.5961,-2.6013,-2.6697,-2.6935,-2.6241,-2.6531,-2.6866,-2.6873,-2.6621,-2.6487,-2.6453,-2.6469,-2.6418,-2.6538,-2.659,-2.6657,-2.6775,-2.7148,-2.7351,-2.7079,-2.7078,-2.764,-2.764,-2.7215,-2.7199,-2.6996,-2.6789,-2.6756,-2.6606,-2.6725,-2.6957,-2.7154,-2.7154,-2.7267,-2.7299,-2.733,-2.7313,-2.7345,-2.7376,-2.7421,-2.7421,-2.7404,-2.7122,-2.7267,-2.7052,-2.7058,-2.7113,-2.711,-2.6276,-2.5402,-2.4547,-2.3794,-2.2937,-2.2764,-2.2738,-2.2747,-2.2833,-2.2833,-2.2712,-2.2764,-2.2935,-2.2902,-2.285,-2.2825,-2.291,-2.2833,-2.2859,-2.2977,-2.2977,-2.2876,-2.285,-2.291]},{"header":{"parameterUnit":"m.s-1","parameterCategory":1,"la1":31.0,"la2":29.5877,"lo1":-88.7671,"lo2":-86.6584,"dy":0.0162,"dx":0.0185,"nx":115,"ny":88,"refTime":"2023-07-01T12:00:00:Z","depth":0,"parameterNumber":3,"parameterNumberName":"V-component_of_WINDS"},"data":[0.0,0.0,0.0,0.0,0.0,0.0,0.0,0.0,0.0,0.0,0.0,0.0,0.0,0.0,0.0,0.0,0.0,0.0,0.0,0.0,0.0,0.0,0.0,0.0,0.0,0.0,0.0,0.0,0.0,0.0,0.0,0.0,0.0,0.0,0.0,0.0,0.0,0.0,0.0,0.0,0.0,0.0,0.0,0.0,0.0,0.0,0.0,0.0,0.0,0.0,0.0,0.0,0.0,0.0,0.0,0.0,0.0,0.0,0.0,0.0,0.0,0.0,0.0,0.0,0.0,0.0,0.0,0.0,0.0,0.0,0.0,0.0,0.0,0.0,0.0,0.0,0.0,0.0,0.0,0.0,0.0,0.0,0.0,0.0,0.0,0.0,0.0,0.0,0.0,0.0,0.0,0.0,0.0,0.0,0.0,0.0,0.0,0.0,0.0,0.0,0.0,0.0,0.0,0.0,0.0,0.0,0.0,0.0,0.0,0.0,0.0,0.0,0.0,0.0,0.0,0.0,0.0,0.0,0.0,0.0,0.0,0.0,0.0,0.0,0.0,0.0,0.0,0.0,0.0,0.0,0.0,0.0,0.0,0.0,0.0,0.0,0.0,0.0,0.0,0.0,0.0,0.0,0.0,0.0,0.0,0.0,0.0,0.0,0.0,0.0,0.0,0.0,0.0,0.0,0.0,0.0,0.0,0.0,0.0,0.0,0.0,0.0,0.0,0.0,0.0,0.0,0.0,0.0,0.0,0.0,0.0,0.0,0.0,0.0,0.0,0.0,0.0,0.0,0.0,0.0,0.0,0.0,0.0,0.0,0.0,0.0,0.0,0.0,0.0,0.0,0.0,0.0,0.0,0.0,0.0,0.0,0.0,0.0,0.0,0.0,0.0,0.0,0.0,0.0,0.0,0.0,0.0,0.0,0.0,0.0,0.0,0.0,0.0,0.0,0.0,0.0,0.0,0.0,0.0,0.0,0.0,0.0,0.0,0.0,0.0,0.0,0.0,0.0,0.0,0.0,0.0,0.0,0.0,0.0,0.0,0.0,0.0,0.0,0.0,0.0,0.0,0.0,0.0,0.0,0.0,0.0,0.0,0.0,0.0,0.0,0.0,0.0,0.0,0.0,0.0,0.0,0.0,0.0,0.0,0.0,0.0,0.0,0.0,0.0,0.0,0.0,0.0,0.0,0.0,0.0,0.0,0.0,0.0,0.0,0.0,0.0,0.0,0.0,0.0,0.0,0.0,0.0,0.0,0.0,0.0,0.0,0.0,0.0,0.0,0.0,0.0,0.0,0.0,0.0,0.0,0.0,0.0,0.0,0.0,0.0,0.0,0.0,0.0,0.0,0.0,0.0,0.0,0.0,0.0,0.0,0.0,0.0,0.0,0.0,0.0,0.0,0.0,0.0,0.0,0.0,0.0,0.0,0.0,0.0,0.0,0.0,0.0,0.0,0.0,0.0,0.0,0.0,0.0,0.0,0.0,0.0,0.0,0.0,0.0,0.0,0.0,0.0,0.0,0.0,0.0,0.0,0.0,0.0,0.0,0.0,0.0,0.0,0.0,0.0,0.0,0.0,0.0,0.0,0.0,0.0,0.0,0.0,0.0,0.0,0.0,0.0,0.0,0.0,0.0,0.0,0.0,0.0,0.0,0.0,0.0,0.0,0.0,0.0,0.0,0.0,0.0,0.0,0.0,0.0,0.0,0.0,0.0,0.0,0.0,0.0,0.0,0.0,0.0,0.0,0.0,0.0,0.0,0.0,0.0,0.0,0.0,0.0,0.0,0.0,0.0,0.0,0.0,0.0,0.0,0.0,0.0,0.0,0.0,0.0,0.0,0.0,0.0,0.0,0.0,0.0,0.0,0.0,0.0,0.0,0.0,0.0,0.0,0.0,0.0,0.0,0.0,0.0,0.0,0.0,0.0,0.0,0.0,0.0,0.0,0.0,0.0,0.0,0.0,0.0,0.0,0.0,0.0,0.0,0.0,0.0,0.0,0.0,0.0,0.0,0.0,0.0,0.0,0.0,0.0,0.0,0.0,0.0,0.0,0.0,0.0,0.0,0.0,0.0,0.0,0.0,0.0,0.0,0.0,0.0,0.0,0.0,0.0,0.0,0.0,0.0,0.0,0.0,0.0,0.0,0.0,0.0,0.0,0.0,0.0,0.0,0.0,0.0,0.0,0.0,0.0,0.0,0.0,0.0,0.0,0.0,0.0,0.0,0.0,0.0,0.0,0.0,0.0,0.0,0.0,0.0,0.0,0.0,0.0,0.0,0.0,0.0,0.0,0.0,0.0,0.0,0.0,0.0,0.0,0.0,0.0,0.0,0.0,0.0,0.0,0.0,0.0,0.0,0.0,0.0,0.0,0.0,0.0,0.0,0.0,0.0,0.0,0.0,0.0,0.0,0.0,0.0,0.0,0.0,0.0,0.0,0.0,0.0,0.0,0.0,0.0,0.0,0.0,0.0,0.0,0.0,0.0,0.0,0.0,0.0,0.0,0.0,0.0,0.0,0.0,0.0,0.0,0.0,0.0,0.0,0.0,0.0,0.0,0.0,0.0,0.0,0.0,0.0,0.0,0.0,0.0,0.0,0.0,0.0,0.0,0.0,0.0,0.0,0.0,0.0,0.0,0.0,0.0,0.0,0.0,0.0,0.0,0.0,0.0,0.0,0.0,0.0,0.0,0.0,0.0,0.0,0.0,0.0,0.0,0.0,0.0,0.0,0.0,0.0,0.0,0.0,0.0,0.0,0.0,0.0,0.0,0.0,0.0,0.0,0.0,0.0,0.0,0.0,0.0,0.0,0.0,0.0,0.0,0.0,0.0,0.0,0.0,0.0,0.0,0.0,0.0,0.0,0.0,0.0,0.0,0.0,0.0,0.0,0.0,0.0,0.0,0.0,0.0,0.0,0.0,0.0,0.0,0.0,0.0,0.0,0.0,0.0,0.0,0.0,0.0,0.0,0.0,0.0,0.0,0.0,0.0,0.0,0.0,0.0,0.0,0.0,0.0,0.0,0.0,0.0,0.0,0.0,0.0,0.0,0.0,0.0,0.0,0.0,0.0,0.0,0.0,0.0,0.0,0.0,0.0,0.0,0.0,0.0,0.0,0.0,0.0,0.0,0.0,0.0,0.0,0.0,0.0,0.0,0.0,0.0,0.0,0.0,0.0,0.0,0.0,0.0,0.0,0.0,0.0,0.0,0.0,0.0,0.0,0.0,0.0,0.0,0.0,0.0,0.0,0.0,0.0,0.0,0.0,0.0,0.0,0.0,0.0,0.0,0.0,0.0,0.0,0.0,0.0,0.0,0.0,0.0,0.0,0.0,0.0,0.0,0.0,0.0,0.0,0.0,0.0,0.0,0.0,0.0,0.0,0.0,0.0,0.0,0.0,0.0,0.0,0.0,0.0,0.0,0.0,0.0,0.0,0.0,0.0,0.0,0.0,0.0,0.0,0.0,0.0,0.0,0.0,0.0,0.0,0.0,0.0,0.0,0.0,0.0,0.0,0.0,0.0,0.0,0.0,0.0,0.0,0.0,0.0,0.0,0.0,0.0,0.0,0.0,0.0,0.0,0.0,0.0,0.0,0.0,0.0,0.0,0.0,0.0,0.0,0.0,0.0,0.0,0.0,0.0,0.0,0.0,0.0,0.0,0.0,0.0,0.0,0.0,0.0,0.0,0.0,0.0,0.0,0.0,0.0,0.0,0.0,0.0,0.0,0.0,0.0,0.0,0.0,0.0,0.0,0.0,0.0,0.0,0.0,0.0,0.0,0.0,0.0,0.0,0.0,0.0,0.0,0.0,0.0,0.0,0.0,0.0,0.0,0.0,0.0,0.0,0.0,0.0,0.0,0.0,0.0,0.0,0.0,0.0,0.0,0.0,0.0,0.0,0.0,0.0,0.0,0.0,0.0,0.0,0.0,0.0,0.0,0.0,0.0,0.0,0.0,0.0,0.0,0.0,0.0,0.0,0.0,0.0,0.0,0.0,0.0,0.0,0.0,0.0,0.0,0.0,0.0,0.0,0.0,0.0,0.0,0.0,0.0,0.0,0.0,0.0,0.0,0.0,0.0,0.0,0.0,0.0,0.0,0.0,0.0,0.0,0.0,0.0,0.0,0.0,0.0,0.0,0.0,0.0,0.0,0.0,0.0,0.0,0.0,0.0,0.0,0.0,0.0,0.0,0.0,0.0,0.0,0.0,0.0,0.0,0.0,0.0,0.0,0.0,0.0,0.0,0.0,0.0,0.0,0.0,0.0,0.0,0.0,0.0,-1.6818,0.0,0.0,0.0,0.0,0.0,0.0,0.0,0.0,0.0,0.0,0.0,0.0,0.0,0.0,0.0,0.0,0.0,0.0,0.0,0.0,0.0,0.0,0.0,0.0,0.0,0.0,0.0,0.0,0.0,0.0,0.0,0.0,0.0,0.0,0.0,0.0,0.0,0.0,0.0,0.0,0.0,0.0,0.0,0.0,0.0,0.0,0.0,0.0,0.0,0.0,0.0,0.0,0.0,0.0,0.0,0.0,0.0,0.0,0.0,0.0,0.0,0.0,0.0,0.0,0.0,0.0,0.0,0.0,0.0,0.0,0.0,0.0,0.0,0.0,0.0,0.0,0.0,0.0,0.0,0.0,0.0,0.0,0.0,0.0,0.0,0.0,0.0,0.0,0.0,0.0,0.0,0.0,0.0,0.0,0.0,0.0,0.0,0.0,0.0,0.0,0.0,0.0,0.0,0.0,0.0,0.0,0.0,0.0,0.0,0.0,-1.808,-1.7734,-1.6236,-1.5668,-1.6128,0.0,0.0,0.0,0.0,0.0,0.0,0.0,0.0,0.0,0.0,0.0,0.0,0.0,0.0,0.0,0.0,0.0,0.0,0.0,0.0,0.0,0.0,0.0,0.0,0.0,0.0,0.0,0.0,0.0,0.0,0.0,0.0,0.0,0.0,0.0,0.0,0.0,0.0,0.0,0.0,0.0,0.0,0.0,0.0,0.0,0.0,0.0,0.0,0.0,0.0,0.0,0.0,0.0,0.0,0.0,0.0,0.0,0.0,0.0,0.0,0.0,0.0,0.0,0.0,0.0,0.0,0.0,0.0,0.0,0.0,0.0,0.0,0.0,0.0,0.0,0.0,0.0,0.0,0.0,0.0,0.0,0.0,0.0,0.0,0.0,0.0,0.0,0.0,0.0,0.0,0.0,0.0,0.0,0.0,0.0,0.0,0.0,0.0,0.0,0.0,0.0,0.0,0.0,0.0,0.0,0.0,0.0,0.0,0.0,0.0,0.0,0.0,-1.5873,-1.5281,-1.5928,0.0,0.0,0.0,0.0,0.0,0.0,0.0,0.0,0.0,0.0,0.0,0.0,0.0,0.0,0.0,0.0,0.0,0.0,0.0,0.0,0.0,0.0,0.0,0.0,0.0,0.0,0.0,0.0,0.0,0.0,0.0,0.0,0.0,0.0,0.0,0.0,0.0,0.0,0.0,0.0,0.0,0.0,0.0,0.0,0.0,0.0,0.0,0.0,0.0,0.0,0.0,0.0,0.0,0.0,0.0,0.0,0.0,0.0,0.0,0.0,0.0,0.0,0.0,0.0,0.0,0.0,0.0,0.0,0.0,0.0,0.0,0.0,0.0,0.0,0.0,0.0,0.0,0.0,0.0,0.0,0.0,0.0,0.0,0.0,0.0,0.0,0.0,0.0,0.0,0.0,0.0,0.0,0.0,0.0,0.0,0.0,0.0,0.0,0.0,0.0,0.0,0.0,0.0,0.0,0.0,0.0,0.0,0.0,0.0,0.0,-1.8732,-1.998,-1.8101,0.0,-1.7518,0.0,0.0,0.0,0.0,0.0,0.0,0.0,0.0,0.0,0.0,0.0,0.0,0.0,0.0,0.0,0.0,0.0,0.0,0.0,0.0,0.0,0.0,0.0,0.0,0.0,0.0,0.0,0.0,0.0,0.0,0.0,0.0,0.0,0.0,0.0,0.0,0.0,0.0,0.0,0.0,0.0,0.0,0.0,0.0,0.0,0.0,0.0,0.0,0.0,0.0,0.0,0.0,0.0,0.0,0.0,0.0,0.0,0.0,0.0,0.0,0.0,0.0,0.0,0.0,0.0,0.0,0.0,0.0,0.0,0.0,0.0,0.0,0.0,0.0,0.0,0.0,0.0,0.0,0.0,0.0,0.0,0.0,0.0,0.0,0.0,0.0,0.0,0.0,0.0,0.0,0.0,0.0,0.0,0.0,0.0,0.0,0.0,0.0,0.0,0.0,0.0,0.0,0.0,0.0,0.0,0.0,0.0,0.0,0.0,0.0,-1.8003,-1.8962,-1.7998,-1.746,0.0,0.0,0.0,0.0,0.0,0.0,0.0,0.0,0.0,0.0,0.0,0.0,0.0,0.0,0.0,0.0,0.0,0.0,0.0,0.0,0.0,0.0,0.0,0.0,0.0,0.0,0.0,0.0,0.0,0.0,0.0,0.0,0.0,0.0,0.0,0.0,0.0,0.0,0.0,0.0,0.0,0.0,0.0,0.0,0.0,0.0,0.0,0.0,0.0,0.0,0.0,0.0,0.0,0.0,0.0,0.0,0.0,0.0,0.0,0.0,0.0,0.0,0.0,0.0,0.0,0.0,0.0,0.0,0.0,0.0,0.0,0.0,0.0,0.0,0.0,0.0,0.0,0.0,0.0,0.0,0.0,0.0,0.0,0.0,0.0,0.0,0.0,0.0,0.0,0.0,0.0,0.0,0.0,0.0,0.0,0.0,0.0,0.0,0.0,0.0,0.0,0.0,0.0,0.0,0.0,0.0,0.0,0.0,0.0,0.0,-1.7606,-1.7464,-1.8012,-1.7658,-1.7475,-1.7397,0.0,0.0,0.0,0.0,0.0,0.0,0.0,0.0,0.0,0.0,0.0,0.0,0.0,0.0,0.0,0.0,0.0,0.0,0.0,0.0,0.0,0.0,0.0,0.0,0.0,0.0,0.0,0.0,0.0,0.0,0.0,0.0,0.0,0.0,0.0,0.0,0.0,0.0,0.0,0.0,0.0,0.0,0.0,0.0,0.0,0.0,0.0,0.0,0.0,0.0,0.0,0.0,0.0,0.0,0.0,0.0,0.0,0.0,0.0,0.0,0.0,0.0,0.0,0.0,0.0,0.0,0.0,0.0,0.0,0.0,0.0,0.0,0.0,0.0,0.0,0.0,0.0,0.0,0.0,0.0,0.0,0.0,0.0,0.0,0.0,0.0,0.0,0.0,0.0,0.0,0.0,0.0,0.0,0.0,0.0,0.0,0.0,0.0,0.0,0.0,0.0,0.0,0.0,0.0,0.0,0.0,0.0,0.0,-2.1211,-1.878,-1.7625,-1.8127,-1.7685,-1.7504,0.0,0.0,0.0,0.0,0.0,0.0,0.0,0.0,0.0,0.0,0.0,0.0,0.0,0.0,0.0,0.0,0.0,0.0,0.0,0.0,0.0,0.0,0.0,0.0,0.0,0.0,0.0,0.0,0.0,0.0,0.0,0.0,0.0,0.0,0.0,0.0,0.0,0.0,0.0,0.0,0.0,0.0,0.0,0.0,0.0,0.0,0.0,0.0,0.0,0.0,0.0,0.0,0.0,0.0,0.0,0.0,0.0,0.0,0.0,0.0,0.0,0.0,0.0,0.0,0.0,0.0,0.0,0.0,0.0,0.0,0.0,0.0,0.0,0.0,0.0,0.0,0.0,0.0,0.0,0.0,0.0,0.0,0.0,0.0,0.0,0.0,0.0,0.0,0.0,0.0,0.0,0.0,0.0,0.0,0.0,0.0,0.0,0.0,0.0,0.0,0.0,0.0,0.0,0.0,0.0,0.0,0.0,0.0,0.0,-1.867,-1.8354,-1.8187,-1.808,-1.7923,-1.7731,0.0,0.0,0.0,0.0,0.0,0.0,0.0,0.0,0.0,0.0,0.0,0.0,0.0,0.0,0.0,0.0,0.0,0.0,0.0,0.0,0.0,0.0,0.0,0.0,0.0,0.0,0.0,0.0,0.0,0.0,0.0,0.0,0.0,0.0,0.0,0.0,0.0,0.0,0.0,0.0,0.0,0.0,0.0,0.0,0.0,0.0,0.0,0.0,0.0,0.0,0.0,0.0,0.0,0.0,0.0,0.0,0.0,0.0,0.0,0.0,0.0,0.0,0.0,0.0,0.0,0.0,0.0,0.0,0.0,0.0,0.0,0.0,0.0,0.0,0.0,0.0,0.0,0.0,0.0,0.0,0.0,0.0,0.0,0.0,0.0,0.0,0.0,0.0,0.0,0.0,0.0,0.0,0.0,0.0,0.0,0.0,0.0,0.0,0.0,0.0,0.0,0.0,0.0,0.0,0.0,0.0,0.0,0.0,0.0,-1.7776,0.0,-1.8383,-1.8121,-1.7944,-1.7584,0.0,0.0,0.0,0.0,0.0,0.0,0.0,0.0,0.0,0.0,0.0,0.0,0.0,0.0,0.0,0.0,0.0,0.0,0.0,0.0,0.0,0.0,0.0,0.0,0.0,0.0,0.0,0.0,0.0,0.0,0.0,0.0,0.0,0.0,0.0,0.0,0.0,0.0,0.0,0.0,0.0,0.0,0.0,0.0,0.0,0.0,0.0,0.0,0.0,0.0,0.0,0.0,0.0,0.0,0.0,0.0,0.0,0.0,0.0,0.0,0.0,0.0,0.0,0.0,0.0,0.0,0.0,0.0,0.0,0.0,0.0,0.0,0.0,0.0,0.0,0.0,0.0,0.0,0.0,0.0,0.0,0.0,0.0,0.0,0.0,0.0,0.0,0.0,0.0,0.0,0.0,0.0,0.0,0.0,0.0,0.0,0.0,0.0,0.0,0.0,0.0,0.0,0.0,0.0,0.0,0.0,0.0,0.0,-1.972,-1.9155,-1.853,-1.8228,-1.8293,-1.7692,-1.7113,0.0,0.0,0.0,0.0,0.0,0.0,0.0,0.0,0.0,0.0,0.0,0.0,0.0,0.0,0.0,0.0,0.0,0.0,0.0,0.0,0.0,0.0,0.0,0.0,0.0,0.0,0.0,0.0,0.0,0.0,0.0,0.0,0.0,0.0,0.0,0.0,0.0,0.0,0.0,0.0,0.0,0.0,0.0,0.0,0.0,0.0,0.0,0.0,0.0,0.0,0.0,0.0,0.0,0.0,0.0,0.0,0.0,0.0,0.0,0.0,0.0,0.0,0.0,0.0,0.0,0.0,0.0,0.0,0.0,0.0,0.0,0.0,0.0,0.0,0.0,0.0,0.0,0.0,0.0,0.0,0.0,0.0,0.0,0.0,0.0,0.0,0.0,0.0,0.0,0.0,0.0,0.0,0.0,0.0,0.0,0.0,0.0,0.0,0.0,0.0,0.0,0.0,0.0,0.0,0.0,0.0,0.0,0.0,0.0,-1.8972,-1.8387,-1.8072,-1.8076,-1.7408,-1.7021,0.0,0.0,0.0,0.0,0.0,0.0,0.0,0.0,0.0,0.0,0.0,0.0,0.0,0.0,0.0,0.0,0.0,0.0,0.0,0.0,0.0,0.0,0.0,0.0,0.0,0.0,0.0,0.0,0.0,0.0,0.0,0.0,0.0,0.0,0.0,0.0,0.0,0.0,0.0,0.0,0.0,0.0,0.0,0.0,0.0,0.0,0.0,0.0,0.0,0.0,0.0,0.0,0.0,0.0,0.0,0.0,0.0,0.0,0.0,0.0,0.0,0.0,0.0,0.0,0.0,0.0,0.0,0.0,0.0,0.0,0.0,0.0,0.0,0.0,0.0,0.0,0.0,0.0,0.0,0.0,0.0,0.0,0.0,0.0,0.0,0.0,0.0,0.0,0.0,0.0,0.0,0.0,0.0,0.0,0.0,0.0,0.0,0.0,0.0,0.0,0.0,0.0,0.0,0.0,0.0,0.0,0.0,0.0,0.0,-1.8576,-1.8232,-1.8018,-1.7893,-1.731,-1.7029,-1.7162,0.0,0.0,0.0,0.0,0.0,0.0,0.0,0.0,0.0,0.0,0.0,0.0,0.0,0.0,0.0,0.0,0.0,0.0,0.0,0.0,0.0,0.0,0.0,0.0,0.0,0.0,0.0,0.0,0.0,0.0,0.0,0.0,0.0,0.0,0.0,0.0,0.0,0.0,0.0,0.0,0.0,0.0,0.0,0.0,0.0,0.0,0.0,0.0,0.0,0.0,0.0,0.0,0.0,0.0,0.0,0.0,0.0,0.0,0.0,0.0,0.0,0.0,0.0,0.0,0.0,0.0,0.0,0.0,0.0,0.0,0.0,0.0,0.0,0.0,0.0,0.0,0.0,0.0,0.0,0.0,0.0,0.0,0.0,0.0,0.0,0.0,0.0,0.0,0.0,0.0,0.0,0.0,0.0,0.0,0.0,0.0,0.0,0.0,0.0,0.0,0.0,0.0,0.0,0.0,0.0,0.0,0.0,0.0,-1.8014,-1.8184,-1.8111,-1.78,-1.7444,-1.7251,0.0,0.0,0.0,0.0,0.0,0.0,0.0,0.0,0.0,0.0,0.0,0.0,0.0,0.0,0.0,0.0,0.0,0.0,0.0,0.0,0.0,0.0,0.0,0.0,0.0,0.0,0.0,0.0,0.0,0.0,0.0,0.0,0.0,0.0,0.0,0.0,0.0,0.0,0.0,0.0,0.0,0.0,0.0,0.0,0.0,0.0,0.0,0.0,0.0,0.0,0.0,0.0,0.0,0.0,0.0,0.0,0.0,0.0,0.0,0.0,0.0,0.0,0.0,0.0,0.0,0.0,0.0,0.0,0.0,0.0,0.0,0.0,0.0,0.0,0.0,0.0,0.0,0.0,0.0,0.0,0.0,0.0,0.0,0.0,0.0,0.0,0.0,0.0,0.0,0.0,0.0,0.0,0.0,0.0,0.0,0.0,0.0,0.0,0.0,0.0,0.0,0.0,0.0,0.0,0.0,0.0,0.0,0.0,0.0,-1.8072,-1.8444,-1.8625,-1.8561,-1.8135,-1.7739,0.0,0.0,0.0,0.0,0.0,0.0,0.0,0.0,0.0,0.0,0.0,0.0,0.0,0.0,0.0,0.0,0.0,0.0,0.0,0.0,0.0,0.0,0.0,0.0,0.0,0.0,0.0,0.0,0.0,0.0,0.0,0.0,0.0,0.0,0.0,0.0,0.0,0.0,0.0,0.0,0.0,0.0,0.0,0.0,0.0,0.0,0.0,0.0,0.0,0.0,0.0,0.0,0.0,0.0,0.0,0.0,0.0,0.0,0.0,0.0,0.0,0.0,0.0,0.0,0.0,0.0,0.0,0.0,0.0,0.0,0.0,0.0,0.0,0.0,0.0,0.0,0.0,0.0,0.0,0.0,0.0,0.0,0.0,0.0,0.0,0.0,0.0,0.0,0.0,0.0,0.0,0.0,0.0,0.0,0.0,0.0,0.0,0.0,0.0,0.0,0.0,0.0,0.0,0.0,0.0,0.0,0.0,0.0,-1.8921,-1.8029,-1.8796,-1.9014,-1.8711,-1.8453,-1.8091,0.0,0.0,0.0,0.0,0.0,0.0,0.0,0.0,0.0,0.0,0.0,0.0,0.0,0.0,0.0,0.0,0.0,0.0,0.0,0.0,0.0,0.0,0.0,0.0,0.0,0.0,0.0,0.0,0.0,0.0,0.0,0.0,0.0,0.0,0.0,0.0,0.0,0.0,0.0,0.0,0.0,0.0,0.0,0.0,0.0,0.0,0.0,0.0,0.0,0.0,0.0,0.0,0.0,0.0,0.0,0.0,0.0,0.0,0.0,0.0,0.0,0.0,0.0,0.0,0.0,0.0,0.0,0.0,0.0,0.0,0.0,0.0,0.0,0.0,0.0,0.0,0.0,0.0,0.0,0.0,0.0,0.0,0.0,0.0,0.0,0.0,0.0,0.0,0.0,0.0,0.0,0.0,0.0,0.0,0.0,0.0,0.0,0.0,0.0,0.0,0.0,0.0,0.0,0.0,0.0,0.0,0.0,0.0,-1.8739,-1.8029,-1.9069,-1.9265,-1.8481,-1.8621,-1.8341,0.0,0.0,0.0,0.0,0.0,0.0,0.0,0.0,0.0,0.0,0.0,0.0,0.0,0.0,0.0,0.0,0.0,0.0,0.0,0.0,0.0,0.0,0.0,0.0,0.0,0.0,0.0,0.0,0.0,0.0,0.0,0.0,0.0,0.0,0.0,0.0,0.0,0.0,0.0,0.0,0.0,0.0,0.0,0.0,0.0,0.0,0.0,0.0,0.0,0.0,0.0,0.0,0.0,0.0,0.0,0.0,0.0,0.0,0.0,0.0,0.0,0.0,0.0,0.0,0.0,0.0,0.0,0.0,0.0,0.0,0.0,0.0,0.0,0.0,0.0,0.0,0.0,0.0,0.0,0.0,0.0,0.0,0.0,0.0,0.0,0.0,0.0,0.0,0.0,0.0,0.0,0.0,0.0,0.0,0.0,0.0,0.0,0.0,0.0,0.0,0.0,0.0,0.0,0.0,0.0,0.0,0.0,0.0,-1.787,-1.8014,-1.8782,-1.9017,-1.8553,-1.876,-1.8505,0.0,0.0,0.0,0.0,0.0,0.0,0.0,0.0,0.0,0.0,0.0,0.0,0.0,0.0,0.0,0.0,0.0,0.0,0.0,0.0,0.0,0.0,0.0,0.0,0.0,0.0,0.0,0.0,0.0,0.0,0.0,0.0,0.0,0.0,0.0,0.0,0.0,0.0,0.0,0.0,0.0,0.0,0.0,0.0,0.0,0.0,0.0,0.0,-1.6799,0.0,0.0,0.0,0.0,0.0,0.0,0.0,0.0,0.0,0.0,0.0,0.0,0.0,0.0,0.0,0.0,0.0,0.0,0.0,0.0,0.0,0.0,0.0,0.0,0.0,0.0,0.0,0.0,0.0,0.0,0.0,0.0,0.0,0.0,0.0,0.0,0.0,0.0,0.0,0.0,0.0,0.0,0.0,0.0,0.0,0.0,0.0,0.0,0.0,0.0,0.0,0.0,0.0,0.0,0.0,0.0,0.0,0.0,0.0,-1.808,-1.8505,-1.8902,-1.8913,-1.859,-1.8563,-1.829,0.0,0.0,0.0,0.0,0.0,0.0,0.0,0.0,0.0,0.0,0.0,0.0,0.0,0.0,0.0,0.0,0.0,0.0,0.0,0.0,0.0,0.0,0.0,0.0,0.0,0.0,0.0,0.0,0.0,0.0,0.0,0.0,0.0,0.0,0.0,0.0,0.0,0.0,0.0,0.0,0.0,0.0,0.0,0.0,0.0,0.0,0.0,0.0,0.0,0.0,0.0,0.0,0.0,0.0,0.0,0.0,0.0,0.0,0.0,0.0,0.0,0.0,0.0,0.0,0.0,0.0,0.0,0.0,0.0,0.0,0.0,0.0,0.0,0.0,0.0,0.0,0.0,0.0,0.0,0.0,0.0,0.0,0.0,0.0,0.0,0.0,0.0,0.0,0.0,0.0,0.0,0.0,0.0,0.0,0.0,0.0,0.0,0.0,0.0,0.0,0.0,0.0,0.0,0.0,0.0,0.0,0.0,-1.8697,-1.8525,-1.9072,-1.9116,-1.8898,-1.85,-1.8307,-1.8029,-1.7666,0.0,0.0,0.0,0.0,0.0,0.0,0.0,0.0,0.0,0.0,0.0,0.0,0.0,0.0,0.0,0.0,0.0,0.0,0.0,0.0,0.0,0.0,0.0,0.0,0.0,0.0,0.0,0.0,0.0,0.0,0.0,0.0,0.0,0.0,0.0,0.0,0.0,0.0,-1.5683,-1.5595,0.0,0.0,0.0,0.0,0.0,0.0,0.0,0.0,-1.6398,0.0,0.0,0.0,0.0,0.0,0.0,0.0,0.0,0.0,0.0,0.0,0.0,0.0,0.0,0.0,0.0,0.0,0.0,0.0,0.0,0.0,0.0,0.0,0.0,0.0,0.0,0.0,0.0,0.0,0.0,0.0,0.0,0.0,0.0,0.0,0.0,0.0,0.0,0.0,0.0,0.0,0.0,0.0,0.0,0.0,0.0,0.0,0.0,0.0,0.0,0.0,0.0,0.0,0.0,0.0,0.0,-1.942,-1.8204,-1.8036,-1.9072,-1.9116,-1.8898,-1.8514,-1.8293,-1.8163,-1.8083,0.0,0.0,0.0,0.0,0.0,0.0,0.0,0.0,0.0,0.0,0.0,0.0,0.0,0.0,0.0,0.0,0.0,0.0,0.0,0.0,0.0,0.0,0.0,0.0,0.0,0.0,0.0,0.0,0.0,0.0,0.0,0.0,0.0,0.0,0.0,0.0,0.0,0.0,0.0,-1.6085,-1.6222,0.0,0.0,0.0,0.0,0.0,0.0,0.0,0.0,-1.709,0.0,0.0,0.0,0.0,0.0,0.0,0.0,0.0,0.0,0.0,0.0,0.0,0.0,0.0,0.0,0.0,0.0,0.0,0.0,0.0,0.0,0.0,0.0,0.0,0.0,0.0,0.0,0.0,0.0,0.0,0.0,0.0,0.0,0.0,0.0,0.0,0.0,0.0,0.0,0.0,0.0,0.0,0.0,0.0,0.0,0.0,0.0,0.0,0.0,0.0,0.0,0.0,0.0,0.0,0.0,-1.931,-1.8405,-1.8306,-1.9072,-1.9116,-1.9026,-1.8808,-1.8295,-1.8103,0.0,0.0,0.0,0.0,0.0,0.0,0.0,0.0,0.0,0.0,0.0,0.0,0.0,0.0,0.0,0.0,0.0,0.0,0.0,0.0,0.0,0.0,0.0,0.0,0.0,0.0,0.0,0.0,0.0,0.0,0.0,0.0,0.0,0.0,0.0,0.0,0.0,0.0,0.0,0.0,-1.6038,-1.6182,-1.6129,0.0,0.0,0.0,0.0,0.0,0.0,-1.6686,-1.6786,0.0,0.0,0.0,0.0,0.0,0.0,0.0,0.0,0.0,0.0,0.0,0.0,0.0,0.0,0.0,0.0,0.0,0.0,0.0,0.0,0.0,0.0,0.0,0.0,0.0,0.0,0.0,0.0,0.0,0.0,0.0,0.0,0.0,0.0,0.0,0.0,0.0,0.0,0.0,0.0,0.0,0.0,0.0,0.0,0.0,0.0,0.0,0.0,0.0,0.0,0.0,0.0,0.0,0.0,0.0,-1.9384,-1.8882,-1.876,-1.9087,-1.9116,-1.9116,-1.9101,-1.8184,-1.7969,0.0,0.0,0.0,0.0,0.0,0.0,0.0,0.0,0.0,0.0,0.0,0.0,0.0,0.0,0.0,0.0,0.0,0.0,0.0,0.0,0.0,0.0,0.0,0.0,0.0,0.0,0.0,0.0,0.0,0.0,0.0,0.0,0.0,0.0,0.0,0.0,0.0,0.0,0.0,0.0,0.0,-1.5999,-1.6361,-1.6115,0.0,0.0,0.0,0.0,-1.6525,-1.6619,0.0,0.0,0.0,0.0,0.0,0.0,0.0,0.0,0.0,0.0,0.0,0.0,0.0,0.0,0.0,0.0,0.0,0.0,0.0,0.0,0.0,0.0,0.0,0.0,0.0,0.0,0.0,0.0,0.0,0.0,0.0,0.0,0.0,0.0,0.0,0.0,0.0,0.0,0.0,0.0,0.0,0.0,0.0,0.0,0.0,0.0,0.0,0.0,0.0,0.0,0.0,0.0,0.0,0.0,0.0,0.0,-1.9428,-1.9354,-1.9229,-1.9101,-1.9116,-1.9116,-1.9101,-1.7946,-1.7706,0.0,0.0,0.0,0.0,0.0,0.0,0.0,0.0,0.0,0.0,0.0,0.0,0.0,0.0,0.0,0.0,0.0,0.0,0.0,0.0,0.0,0.0,0.0,0.0,0.0,0.0,0.0,0.0,0.0,0.0,0.0,0.0,0.0,0.0,0.0,0.0,0.0,0.0,0.0,0.0,0.0,-1.598,-1.641,-1.5985,-1.5909,0.0,0.0,-1.7087,-1.762,-1.8016,0.0,0.0,0.0,0.0,0.0,0.0,0.0,0.0,0.0,0.0,0.0,0.0,0.0,0.0,0.0,0.0,0.0,0.0,0.0,0.0,0.0,0.0,0.0,0.0,0.0,0.0,0.0,0.0,0.0,0.0,0.0,0.0,0.0,0.0,0.0,0.0,0.0,0.0,0.0,0.0,0.0,0.0,0.0,0.0,0.0,0.0,0.0,0.0,0.0,0.0,0.0,0.0,0.0,0.0,0.0,-1.9848,-1.9523,-1.9465,-1.9302,-1.9101,-1.9116,-1.9139,-1.9228,-1.7812,-1.7551,0.0,0.0,0.0,0.0,0.0,0.0,0.0,0.0,0.0,0.0,0.0,0.0,0.0,0.0,0.0,0.0,0.0,0.0,0.0,0.0,0.0,0.0,0.0,0.0,0.0,0.0,0.0,0.0,0.0,0.0,0.0,0.0,0.0,0.0,0.0,0.0,0.0,0.0,0.0,0.0,0.0,0.0,-1.6247,-1.6385,0.0,0.0,0.0,-1.7377,-1.732,0.0,0.0,0.0,0.0,0.0,0.0,0.0,0.0,0.0,0.0,0.0,0.0,0.0,0.0,0.0,0.0,0.0,0.0,0.0,0.0,0.0,0.0,0.0,0.0,0.0,0.0,0.0,0.0,0.0,0.0,0.0,0.0,0.0,0.0,0.0,0.0,0.0,0.0,0.0,0.0,0.0,0.0,0.0,0.0,0.0,0.0,0.0,0.0,0.0,0.0,0.0,0.0,0.0,0.0,0.0,0.0,0.0,-1.9626,-1.9465,-1.9288,-1.9101,-1.9078,-1.9153,-1.9273,-1.782,0.0,0.0,0.0,0.0,0.0,0.0,0.0,0.0,0.0,0.0,0.0,0.0,0.0,0.0,0.0,0.0,0.0,0.0,0.0,0.0,0.0,0.0,0.0,0.0,0.0,0.0,0.0,-1.6671,0.0,0.0,0.0,0.0,0.0,0.0,0.0,0.0,0.0,0.0,0.0,0.0,0.0,0.0,-1.5868,-1.62,-1.6726,-1.7156,0.0,0.0,-1.7596,-1.7406,-1.7849,-1.8093,0.0,0.0,0.0,0.0,0.0,0.0,0.0,0.0,0.0,0.0,0.0,0.0,0.0,0.0,0.0,0.0,0.0,0.0,0.0,0.0,0.0,0.0,0.0,0.0,0.0,0.0,0.0,0.0,0.0,0.0,0.0,0.0,0.0,0.0,0.0,0.0,0.0,0.0,0.0,0.0,0.0,0.0,0.0,0.0,0.0,0.0,0.0,0.0,0.0,0.0,0.0,0.0,0.0,0.0,-1.9863,-1.9611,-1.9428,-1.9265,-1.9116,-1.9055,-1.9093,-1.9288,-1.7978,-1.7674,0.0,0.0,0.0,0.0,0.0,0.0,0.0,0.0,0.0,0.0,0.0,0.0,0.0,0.0,0.0,0.0,0.0,0.0,0.0,0.0,0.0,0.0,0.0,0.0,0.0,0.0,0.0,0.0,0.0,0.0,0.0,0.0,0.0,0.0,0.0,0.0,0.0,0.0,0.0,0.0,0.0,-1.6213,-1.6619,-1.6817,-1.7202,0.0,-1.7903,-1.7893,-1.8498,-1.8812,-1.8622,-1.7539,0.0,0.0,0.0,0.0,0.0,0.0,0.0,0.0,0.0,0.0,0.0,0.0,0.0,0.0,0.0,0.0,0.0,0.0,0.0,0.0,0.0,0.0,0.0,0.0,0.0,0.0,0.0,0.0,0.0,0.0,0.0,0.0,0.0,0.0,0.0,0.0,0.0,0.0,0.0,0.0,0.0,0.0,0.0,0.0,0.0,0.0,0.0,0.0,0.0,0.0,0.0,0.0,0.0,-1.9863,-1.9611,-1.945,-1.9265,-1.9116,-1.9078,-1.9168,-1.9354,-1.8258,-1.8104,0.0,0.0,0.0,0.0,0.0,0.0,0.0,0.0,0.0,0.0,0.0,0.0,0.0,0.0,0.0,0.0,0.0,0.0,0.0,0.0,0.0,0.0,0.0,0.0,0.0,0.0,0.0,0.0,-1.6775,-1.643,-1.6059,0.0,0.0,0.0,0.0,0.0,0.0,0.0,0.0,0.0,0.0,-1.64,-1.6673,-1.7154,0.0,0.0,-1.8293,-1.8323,-1.8241,-1.8411,-1.8266,-1.7543,-1.7533,0.0,0.0,0.0,0.0,0.0,0.0,0.0,0.0,0.0,0.0,0.0,0.0,0.0,0.0,0.0,0.0,0.0,0.0,0.0,0.0,0.0,0.0,0.0,0.0,0.0,0.0,0.0,0.0,0.0,0.0,0.0,0.0,0.0,0.0,0.0,0.0,0.0,0.0,0.0,0.0,0.0,0.0,0.0,0.0,0.0,0.0,0.0,0.0,0.0,0.0,0.0,0.0,-1.9863,-1.9611,-1.945,-1.9302,-1.9101,-1.9116,-1.9176,-1.9362,-1.8614,-1.86,0.0,0.0,0.0,0.0,0.0,0.0,0.0,0.0,0.0,0.0,0.0,0.0,0.0,0.0,0.0,0.0,0.0,0.0,0.0,0.0,0.0,0.0,0.0,0.0,0.0,0.0,0.0,0.0,-1.7178,-1.6655,-1.6396,0.0,0.0,0.0,0.0,0.0,0.0,0.0,0.0,0.0,0.0,-1.6716,-1.6853,-1.7593,-1.8145,-1.8271,-1.8631,-1.8821,-1.8528,-1.847,-1.8302,-1.7831,0.0,0.0,0.0,0.0,0.0,0.0,0.0,0.0,0.0,0.0,0.0,0.0,0.0,0.0,0.0,0.0,0.0,0.0,0.0,0.0,0.0,0.0,0.0,0.0,0.0,0.0,0.0,-1.8268,0.0,0.0,-1.9244,0.0,0.0,0.0,0.0,0.0,0.0,0.0,0.0,0.0,0.0,0.0,0.0,0.0,0.0,0.0,0.0,0.0,0.0,0.0,0.0,0.0,0.0,-1.9863,-1.9611,-1.9428,-1.9265,-1.9116,-1.9116,-1.9176,-1.9376,-1.9058,-1.9058,-1.9376,0.0,0.0,0.0,0.0,0.0,0.0,0.0,0.0,0.0,0.0,0.0,0.0,0.0,0.0,0.0,0.0,0.0,0.0,0.0,0.0,0.0,0.0,0.0,0.0,0.0,0.0,-1.854,-1.7612,-1.6776,0.0,0.0,0.0,0.0,0.0,0.0,0.0,0.0,0.0,-1.7713,-1.7497,-1.7301,-1.7301,-1.8016,-1.846,-1.8329,-1.8848,-1.9347,-1.9594,-1.9413,-1.9053,0.0,0.0,0.0,0.0,0.0,0.0,0.0,0.0,0.0,0.0,0.0,0.0,0.0,0.0,0.0,0.0,0.0,0.0,0.0,0.0,0.0,0.0,0.0,0.0,0.0,0.0,0.0,-1.8632,-1.8604,0.0,0.0,0.0,0.0,0.0,0.0,0.0,0.0,0.0,0.0,0.0,-2.0393,-2.0873,0.0,0.0,0.0,0.0,0.0,0.0,0.0,0.0,0.0,0.0,0.0,0.0,-2.011,-2.0311,-1.976,-1.9657,-1.9956,-1.9522,-1.9376,-1.9538,-1.9435,-1.9398,-1.9457,0.0,0.0,0.0,0.0,0.0,0.0,0.0,0.0,0.0,0.0,0.0,0.0,0.0,0.0,0.0,0.0,0.0,0.0,0.0,0.0,0.0,0.0,0.0,0.0,0.0,-1.8322,0.0,0.0,0.0,0.0,0.0,0.0,0.0,0.0,0.0,0.0,-1.7951,-1.8248,-1.8028,-1.7709,-1.7548,-1.774,-1.7684,-1.7908,0.0,0.0,0.0,0.0,0.0,0.0,0.0,0.0,0.0,0.0,0.0,0.0,0.0,0.0,-2.0272,-2.0256,-2.0803,-2.1325,-2.1446,0.0,0.0,0.0,0.0,0.0,0.0,0.0,0.0,0.0,0.0,0.0,0.0,0.0,0.0,-1.9377,-1.9567,-1.9948,0.0,0.0,0.0,0.0,0.0,0.0,0.0,0.0,-2.1076,-2.1392,-2.1196,-2.1868,-2.2088,-2.1862,-2.1743,-2.1622,0.0,0.0,0.0,0.0,0.0,0.0,0.0,0.0,-2.0131,-2.0318,-1.9893,-1.9768,-2.0017,-1.9671,-1.9538,-1.9632,-1.972,-1.9705,-1.969,-1.9566,-1.9258,0.0,0.0,0.0,0.0,0.0,0.0,0.0,0.0,0.0,0.0,0.0,0.0,0.0,0.0,0.0,0.0,0.0,0.0,0.0,0.0,0.0,0.0,0.0,-1.8197,0.0,0.0,0.0,0.0,0.0,0.0,0.0,0.0,0.0,-1.7842,-1.8564,-1.8952,-1.8549,-1.8448,-1.8418,-1.8451,0.0,0.0,0.0,0.0,0.0,0.0,0.0,-2.0438,-2.0049,-1.9972,-1.9824,-1.9463,-2.0038,-2.0602,-2.0718,0.0,0.0,-2.0827,-2.1166,-2.154,-2.1678,-2.1446,-2.1333,-2.177,-2.159,-2.1457,0.0,0.0,0.0,0.0,-1.9161,0.0,0.0,0.0,-1.9771,-2.0387,0.0,-2.1349,0.0,0.0,0.0,0.0,-2.1231,-2.1782,0.0,0.0,-2.2419,-2.2692,-2.2176,-2.2798,-2.2738,-2.2115,-2.2747,-2.2741,-2.2156,-2.0834,-2.0231,0.0,0.0,0.0,0.0,0.0,-1.9975,-1.9786,-1.9741,-1.9632,-1.9509,-1.9589,-1.9632,-1.969,-1.9884,-1.997,-1.9955,-1.9493,-1.9118,-1.8907,-1.8683,0.0,0.0,0.0,0.0,0.0,0.0,0.0,0.0,0.0,0.0,0.0,0.0,0.0,0.0,0.0,0.0,0.0,0.0,0.0,0.0,-1.9101,0.0,0.0,0.0,0.0,0.0,0.0,0.0,0.0,0.0,-1.9505,-1.9465,-1.9713,-1.9758,-1.9332,0.0,0.0,0.0,0.0,-2.0501,-2.0991,-2.1363,-2.1941,-2.3026,-2.2754,-2.2556,-2.2722,0.0,0.0,-2.0744,-2.1008,-2.1189,-2.057,-2.0949,-2.1214,-2.0909,-2.1039,-2.1275,-2.1601,-2.1735,-2.1811,-2.1794,-2.1866,-2.1878,-2.2834,0.0,0.0,0.0,0.0,-2.1367,-2.1891,-2.2847,-2.2452,-2.2265,-2.2212,-2.2629,0.0,0.0,0.0,0.0,0.0,0.0,-2.2278,-2.2449,-2.334,-2.3846,-2.4149,-2.4904,-2.4658,-2.3575,-2.381,-2.3345,-2.2279,-2.1864,-2.147,-2.1029,0.0,0.0,0.0,0.0,-2.0294,-2.0649,-2.0197,-2.0125,-2.0504,-2.0089,-1.9777,-1.9566,-1.9741,-1.9675,-1.9442,-1.9398,-1.9199,-1.8936,-1.9064,0.0,0.0,0.0,0.0,0.0,0.0,0.0,0.0,0.0,0.0,0.0,0.0,0.0,0.0,0.0,0.0,0.0,0.0,0.0,-1.8426,-1.8563,-1.856,0.0,0.0,0.0,0.0,0.0,0.0,0.0,0.0,0.0,-2.0004,-2.0139,-2.0393,0.0,0.0,-1.9524,-1.9641,-1.9514,-1.9842,-2.1085,-2.1408,0.0,-2.342,-2.311,-2.2735,-2.2769,-2.2247,-2.1837,-2.1999,-2.166,-2.1399,-2.1398,-2.1469,-2.1587,-2.1645,-2.1584,-2.157,-2.1678,-2.1811,-2.194,-2.201,-2.201,-2.2073,-2.5241,-2.3345,-2.3025,-2.3344,-2.4048,-2.397,-2.444,-2.5123,-2.4687,-2.467,-2.4993,-2.4792,-2.4396,-2.3902,-2.4097,0.0,0.0,0.0,-2.3692,-2.3926,-2.464,-2.519,-2.5603,-2.6306,-2.5968,-2.4679,-2.4675,-2.401,-2.2686,-2.2701,-2.2347,-2.1723,0.0,-2.0983,-2.072,-2.088,-2.1008,-2.1094,-2.0655,-2.0482,-2.0597,-2.0131,-1.9762,-1.9603,-1.9581,-1.9508,-1.9273,-1.925,-1.9101,-1.8898,-1.8988,-1.8889,0.0,0.0,0.0,0.0,0.0,0.0,0.0,0.0,0.0,0.0,0.0,-1.849,-1.8347,0.0,0.0,0.0,-1.8836,-1.8844,-1.8381,-1.8687,0.0,0.0,0.0,0.0,0.0,0.0,0.0,-2.0273,-2.0446,-2.0742,-2.111,-2.124,-2.127,-2.1227,-2.0636,-2.0289,-2.0493,0.0,-2.0481,-2.1631,-2.1905,-2.2376,-2.3572,-2.3457,-2.3126,-2.2894,-2.2467,-2.2139,-2.2176,-2.1756,-2.1526,-2.1738,-2.1738,-2.1768,-2.1969,-2.1974,-2.1991,-2.1974,-2.2147,-2.2281,-2.2309,-2.2326,-2.2298,-2.7167,-2.7277,-2.6654,-2.6319,-2.6259,-2.7133,-2.7165,-2.6596,-2.6565,-2.7389,-2.8656,-2.7489,-2.7752,-2.8939,-2.7606,0.0,-2.5438,-2.5668,-2.5625,-2.5503,-2.6164,-2.6488,-2.6565,-2.7134,-2.6718,-2.5472,-2.5426,-2.4733,-2.3502,-2.3471,-2.3086,-2.2378,-2.244,-2.2086,-2.1476,-2.1916,-2.1864,-2.1109,-2.1063,-2.0691,-2.0005,-1.9797,-1.9675,-1.9617,-1.9435,-1.9354,-1.9302,-1.9026,-1.8874,-1.8874,-1.862,-1.8503,-1.8503,0.0,0.0,0.0,0.0,0.0,0.0,0.0,0.0,0.0,0.0,0.0,0.0,0.0,0.0,0.0,-1.8851,0.0,-1.886,-1.9332,0.0,0.0,0.0,-2.0579,-2.0747,-2.0728,-2.081,-2.1214,0.0,0.0,-2.2409,-2.2653,-2.2312,-2.1119,-2.1437,-2.1769,-2.1769,-2.1786,-2.1982,-2.2621,-2.2703,-2.2965,-2.3671,-2.3704,-2.3407,-2.2944,-2.2811,-2.2419,-2.1927,-2.162,-2.1587,-2.1781,-2.1797,-2.184,-2.201,-2.2271,-2.2432,-2.2432,-2.2569,-2.2685,-2.2659,-2.2605,-2.2552,-2.9489,-2.961,-3.0112,-2.9674,-2.856,-2.8255,-2.8658,-2.9346,-2.8904,-2.8916,-2.9215,-2.9117,-2.8842,-2.8323,-2.6972,-2.6325,-2.6368,-2.6455,-2.6603,-2.6903,-2.7072,-2.7442,-2.7904,-2.7565,-2.7226,-2.6888,-2.638,-2.5687,-2.4872,-2.4841,-2.4241,-2.3132,-2.3579,-2.324,-2.207,-2.1738,-2.1424,-2.1234,-2.0727,-2.0284,-1.9839,-1.9803,-1.9536,-1.9087,-1.9049,-1.8912,-1.875,-1.862,-1.8581,-1.8581,-1.8517,-1.8581,-1.8784,-1.8798,0.0,0.0,0.0,0.0,0.0,0.0,0.0,0.0,0.0,-1.8864,-1.863,0.0,-1.8878,0.0,-1.9064,-1.9384,-1.9413,-2.0124,0.0,0.0,-2.1503,-2.1876,-2.1436,-2.1794,-2.1956,-2.153,-2.2017,-2.2276,-2.196,-2.245,-2.2516,-2.1732,-2.2571,-2.3293,-2.3276,-2.3276,-2.3326,-2.349,-2.349,-2.3671,-2.3786,-2.3407,-2.2947,-2.2638,-2.2273,-2.2104,-2.2199,-2.2024,-2.1866,-2.1969,-2.2198,-2.2436,-2.2624,-2.2842,-2.2868,-2.2799,-2.2738,-2.2685,-2.2632,-2.2605,-2.2579,-3.0251,-3.0673,-3.1204,-3.1147,-3.072,-3.0335,-3.0612,-3.1243,-3.0582,-3.0458,-3.072,-3.0721,-3.0031,-2.8872,-2.8205,-2.7727,-2.7488,-2.7564,-2.769,-2.7842,-2.7842,-2.8042,-2.8381,-2.8027,-2.7688,-2.738,-2.6718,-2.6026,-2.5333,-2.501,-2.4471,-2.3763,-2.4117,-2.3933,-2.3209,-2.2809,-2.2471,-2.2163,-2.1084,-2.0284,-1.9803,-1.9551,-1.9258,-1.8898,-1.876,-1.8644,-1.8517,-1.8478,-1.8542,-1.8659,-1.8683,-1.8798,-1.9116,-1.9101,-1.9419,0.0,0.0,0.0,0.0,0.0,0.0,0.0,0.0,0.0,0.0,0.0,-1.9238,-1.9101,-1.9427,-1.9773,-1.9984,-2.0565,-2.0975,-2.1055,-2.1743,-2.2221,-2.2172,-2.2252,-2.2252,-2.225,-2.233,-2.2261,-2.1864,-2.2457,-2.2789,-2.2344,-2.3192,-2.3654,-2.3045,-2.2913,-2.2913,-2.296,-2.296,-2.296,-2.2992,-2.2584,-2.2241,-2.2115,-2.1897,-2.1812,-2.2081,-2.2032,-2.1969,-2.2158,-2.2371,-2.2588,-2.2842,-2.2919,-2.2919,-2.2893,-2.279,-2.2685,-2.2659,-2.2632,-2.2632,-3.0083,-3.0851,-3.097,-3.1422,-3.216,-3.2287,-3.2342,-3.2351,-3.1767,-3.1898,-3.2407,-3.2011,-3.1134,-3.0014,-3.013,-2.9546,-2.846,-2.8698,-2.8745,-2.8535,-2.8442,-2.8442,-2.8535,-2.8365,-2.8011,-2.7503,-2.6857,-2.6195,-2.558,-2.4979,-2.461,-2.4441,-2.4441,-2.4394,-2.4302,-2.4261,-2.3892,-2.3163,-2.1698,-2.0632,-1.9987,-1.9359,-1.9027,-1.8951,-1.8662,-1.8478,-1.8478,-1.8556,-1.8644,-1.886,-1.895,-1.9101,-1.9435,-1.9435,-1.9834,0.0,-2.0376,0.0,0.0,0.0,0.0,0.0,0.0,0.0,0.0,-2.0084,-1.9988,-1.9762,-1.9864,-2.0108,-2.0465,-2.0878,-2.1134,-2.1213,-2.1554,-2.2046,-2.2642,-2.2252,-2.2132,-2.2781,-2.2298,-2.1899,-2.1915,-2.2465,-2.2834,-2.2739,-2.3156,-2.3156,-2.2178,-2.2212,-2.251,-2.2195,-2.2029,-2.2087,-2.1829,-2.1669,-2.1622,-2.1606,-2.1636,-2.1664,-2.1784,-2.1857,-2.2003,-2.2321,-2.246,-2.2579,-2.2868,-2.2842,-2.279,-2.2893,-2.2799,-2.2738,-2.2712,-2.2685,-2.2685,-2.9727,-2.996,-3.0673,-3.0896,-3.0777,-3.148,-3.2064,-3.2382,-3.2259,-3.2454,-3.278,-3.208,-3.1471,-3.095,-3.0937,-3.0082,-2.87,-2.9308,-2.9474,-2.9212,-2.8658,-2.8688,-2.9135,-2.8104,-2.7811,-2.8165,-2.7519,-2.7134,-2.6995,-2.6872,-2.6241,-2.5164,-2.5118,-2.4856,-2.4333,0.0,0.0,0.0,-2.1903,-2.1434,-2.0996,-2.0171,-1.9584,-1.9315,-1.877,0.0,-1.8517,-1.8736,-1.8822,-1.8912,-1.9139,0.0,0.0,0.0,0.0,0.0,0.0,0.0,0.0,0.0,0.0,0.0,-2.0028,-1.9789,-1.9731,-1.9605,-1.9531,-1.9487,-2.0035,-2.0447,-2.0563,-2.1166,-2.1601,-2.1661,-2.1768,-2.1847,-2.198,-2.1953,-2.1965,-2.2065,-2.1965,-2.1899,-2.1915,-2.199,-2.2026,-2.2046,-2.2129,-2.2096,-2.188,-2.3222,-2.4331,-2.4281,-2.3095,-2.221,-2.156,-2.1448,-2.1433,-2.1448,-2.1648,-2.1768,-2.1797,-2.2118,-2.2304,-2.2405,-2.2605,-2.2799,-2.2876,-2.2952,-2.297,-2.2919,-2.2893,-2.2842,-2.2738,-2.2712,-2.2685,-2.9727,-3.0021,-3.0433,-3.0687,0.0,-3.1146,-3.1495,-3.1724,-3.1951,-3.2302,-3.2617,-3.2261,-3.1787,-3.1275,-3.0947,-3.013,-2.9036,-2.9456,-2.9527,-2.9412,-2.9396,-2.9396,-2.9396,-2.8704,-2.8299,-2.8073,-2.7403,-2.6972,-2.6766,-2.6449,-2.5998,-2.5484,-2.4987,-2.4684,-2.4539,-2.3861,-2.3131,-2.232,-2.1966,-2.141,-2.0633,-1.9993,-1.9412,-1.8981,-1.8789,0.0,0.0,0.0,0.0,0.0,0.0,0.0,0.0,-1.996,-2.0112,-2.0538,-2.0476,-2.0382,-2.0346,-2.0272,-2.0198,-2.0109,-1.9811,-1.9596,-1.9487,-1.9669,-1.9833,-1.9995,-2.0563,-2.0991,-2.1182,-2.157,-2.1781,-2.1797,-2.1869,-2.1869,-2.1811,-2.1899,-2.194,-2.194,-2.194,-2.194,-2.194,-2.1882,-2.184,-2.1781,-2.1797,-2.193,-2.2294,-2.2926,-2.3357,-2.326,-2.2654,-2.1872,-2.1515,-2.1355,-2.1355,-2.1386,-2.1479,-2.1631,-2.1738,-2.1974,-2.2147,-2.2203,-2.247,-2.2685,-2.2747,-2.2842,-2.2893,-2.2893,-2.2825,-2.279,-2.2712,-2.2712,-2.2712,-2.9851,-3.0205,-3.0266,-3.0433,-3.0732,-3.0851,-3.0851,-3.0911,-3.1437,0.0,0.0,-3.2342,-3.1958,-3.1259,-3.0845,-3.0179,-2.9445,-2.9501,-2.9546,-2.9644,-3.0005,-2.9922,-2.9495,-2.9266,-2.8703,-2.784,-2.71,-2.6574,-2.6247,-2.5781,-2.5616,-2.5689,-2.4891,-2.4476,-2.4403,-2.3615,-2.2878,-2.2322,-2.1961,-2.1283,-2.0249,-1.9666,-1.9192,-1.8764,-1.8841,-1.8936,-1.8974,-1.9288,-1.9566,-1.9803,-1.9859,-2.003,-2.027,-2.0185,-2.0345,-2.0843,-2.0721,-2.0625,-2.0692,-2.058,-2.0288,-1.972,-1.9705,-1.9617,-1.9487,-1.9869,-2.0239,-2.053,-2.1007,-2.1402,-2.1691,-2.1823,-2.1899,-2.184,-2.194,-2.194,-2.1869,-2.1911,-2.1998,-2.1998,-2.1998,-2.1982,-2.1969,-2.1911,-2.1869,-2.1811,-2.1781,-2.198,-2.2479,-2.245,-2.2322,-2.2112,-2.1952,-2.1645,-2.145,-2.1371,-2.1309,-2.1388,-2.1433,-2.154,-2.1738,-2.1811,-2.1899,-2.2101,-2.2231,-2.2388,-2.2535,-2.2615,-2.2685,-2.2842,-2.279,-2.2712,-2.2712,-2.2712,-2.2712,-2.9665,-2.9727,-3.0144,-3.0144,-2.9837,-3.019,-3.0372,-3.0493,-3.1321,-3.1724,-3.1838,-3.2216,-3.1793,-3.0815,-3.1298,-3.083,-2.9674,-2.9818,-3.0127,-3.0443,-2.9595,-2.9459,-2.9829,-2.8764,-2.8187,-2.8001,-2.7351,-2.7041,-2.6975,-2.722,-2.6956,-2.6115,-2.5717,-2.4729,-2.3138,-2.2828,-2.262,-2.2215,-2.1958,-2.1715,-2.1499,-2.0132,-1.947,-1.9666,-1.92,-1.9026,-1.9339,-1.9603,-1.9752,-1.9823,-2.0065,-2.027,-2.0304,-2.015,-2.0111,-2.0162,-2.002,-1.9948,-1.9876,-1.9861,-1.9794,-1.9705,-1.9705,-1.969,-1.969,-1.998,-2.0208,-2.0277,-2.0909,-2.134,-2.1448,-2.1751,-2.1911,-2.1969,-2.1998,-2.1998,-2.1969,-2.1998,-2.1998,-2.1998,-2.194,-2.1928,-2.1928,-2.1869,-2.1811,-2.1797,-2.1781,-2.1864,-2.2038,-2.2767,-2.3096,-2.267,-2.2442,-2.2149,-2.1675,-2.1464,-2.1433,-2.1559,-2.1617,-2.1735,-2.1911,-2.1953,-2.2044,-2.2276,-2.2147,-2.2158,-2.236,-2.2432,-2.2497,-2.2659,-2.2659,-2.2659,-2.2642,-2.2659,-2.2659,-2.9602,-2.9602,-2.9851,-2.9789,-2.9602,-2.9837,-2.9898,-2.996,-3.0673,-3.1087,-3.1321,-3.1552,-3.1372,-3.0875,-3.0815,-3.0473,-2.9867,-2.998,-3.0113,-3.0297,-3.0172,-3.0057,-2.991,-2.9028,-2.8301,-2.7704,-2.7079,-2.6654,-2.651,-2.6683,-2.6643,-2.6279,-2.5609,-2.4436,-2.2989,-2.2605,-2.2342,-2.2203,-2.1747,-2.1367,-2.1026,-1.9978,-1.9397,-1.9372,-1.9208,-1.9325,-1.9603,-1.9925,-2.003,-1.9945,-2.0115,-2.0166,-2.0146,-2.001,-1.9904,-1.9884,-1.9812,-1.9726,-1.9705,-1.9705,-1.9705,-1.9726,-1.9889,-1.998,-1.998,-2.0292,-2.0613,-2.0795,-2.1293,-2.1587,-2.1601,-2.1823,-2.1924,-2.194,-2.2015,-2.2061,-2.1969,-2.1953,-2.1998,-2.194,-2.1911,-2.1899,-2.1899,-2.184,-2.1781,-2.1781,-2.1781,-2.1768,-2.1708,-2.219,-2.2489,-2.2067,-2.2001,-2.1871,-2.156,-2.1511,-2.1495,-2.1495,-2.1556,-2.1601,-2.1675,-2.1675,-2.1705,-2.1797,-2.1797,-2.1869,-2.202,-2.2118,-2.2215,-2.2271,-2.2326,-2.2326,-2.2326,-2.2271,-2.226,-2.9602,-2.9602,-2.9602,-2.9602,-2.9602,-2.9665,-2.9602,-2.9602,-3.0021,-3.0312,-3.0673,-3.0896,-3.0955,-3.0793,-3.0324,-3.0046,-3.0046,-2.993,-3.0002,-3.009,-3.0513,-3.0411,-2.9901,-2.9274,-2.8552,-2.7668,-2.6938,-2.6403,-2.6131,-2.6073,-2.6065,-2.605,-2.5112,-2.4006,-2.2902,-2.2476,-2.2183,-2.2016,-2.1443,-2.0932,-2.0472,-1.971,-1.9205,-1.9145,-1.9325,-1.9581,-1.9854,-2.0115,-2.0185,-2.008,-2.008,-2.0045,-2.0005,-1.9884,-1.9797,-1.9797,-1.9762,-1.9726,-1.9705,-1.9705,-1.9705,-1.9726,-2.0015,-2.0227,-2.0348,-2.0697,-2.1023,-2.1277,-2.1601,-2.1811,-2.1811,-2.1928,-2.1969,-2.194,-2.2032,-2.2077,-2.194,-2.1969,-2.1969,-2.1928,-2.1899,-2.1853,-2.1869,-2.184,-2.1797,-2.1781,-2.1781,-2.1768,-2.1738,-2.1708,-2.1648,-2.1556,-2.1573,-2.1589,-2.1495,-2.1542,-2.1526,-2.1417,-2.1432,-2.1479,-2.1464,-2.1402,-2.1402,-2.1464,-2.1542,-2.1678,-2.1768,-2.184,-2.1969,-2.2101,-2.2113,-2.201,-2.1998,-2.1869,-2.1751,-2.9602,-2.9602,-2.9602,-2.9602,-2.9602,-2.9699,-2.9699,-2.9602,-2.9665,-2.9665,-2.9837,-3.0598,-3.0732,-3.0372,-3.0315,-3.0286,-3.0197,-2.9813,-2.986,-3.0151,-2.987,-2.9685,-2.9619,-2.9054,-2.8683,-2.8384,-2.7342,-2.6779,-2.6694,-2.6543,-2.6012,-2.5246,-2.454,-2.3617,-2.2555,-2.2365,-2.2065,-2.1471,-2.0887,-2.0637,-2.0683,-1.9484,-1.9121,-1.9617,-1.9654,-1.9762,-1.9955,-2.0096,-2.008,-1.999,-1.999,-2.0005,-2.0005,-2.0005,-1.9919,-1.9797,-1.9797,-1.9762,-1.9726,-1.9705,-1.9705,-1.9726,-2.0015,-2.0366,-2.0686,-2.107,-2.1262,-2.1388,-2.1661,-2.1869,-2.1899,-2.1928,-2.194,-2.1953,-2.2015,-2.1998,-2.1998,-2.1957,-2.1899,-2.1928,-2.184,-2.1827,-2.1811,-2.1827,-2.1781,-2.1781,-2.1781,-2.1781,-2.1797,-2.1768,-2.1768,-2.1678,-2.1694,-2.1694,-2.1648,-2.1634,-2.1573,-2.1464,-2.1556,-2.1587,-2.1556,-2.1603,-2.1664,-2.1511,-2.1433,-2.1479,-2.1721,-2.1869,-2.1873,-2.2032,-2.2015,-2.1911,-2.1811,-2.1601,-2.1401,-2.9602,-2.9602,-2.9602,-2.9602,-2.9602,-2.9651,-2.9651,-2.9602,-2.9602,-2.9602,-2.9602,-3.0021,-3.0083,-2.9927,-3.0282,-3.0253,-2.9879,-3.0045,-3.0017,-2.9865,-2.9665,-2.9602,-2.9546,-2.8984,-2.8689,-2.8619,-2.779,-2.7383,-2.727,-2.6722,-2.6162,-2.5522,-2.4586,-2.3865,-2.3363,-2.2972,-2.2637,-2.2346,-2.1738,-2.1527,-2.1509,-2.001,-1.943,-2.0012,-1.9826,-1.9726,-1.997,-2.0025,-1.999,-1.9884,-1.9884,-1.9899,-1.9797,-1.9797,-1.9797,-1.9762,-1.9726,-1.9726,-1.9726,-1.9705,-1.9705,-1.9705,-2.0224,-2.0601,-2.0799,-2.1319,-2.1631,-2.1617,-2.1768,-2.184,-2.184,-2.1899,-2.1928,-2.194,-2.1969,-2.1998,-2.194,-2.1911,-2.1899,-2.1857,-2.1827,-2.1781,-2.1781,-2.1781,-2.1781,-2.1781,-2.1781,-2.1781,-2.1781,-2.1781,-2.1768,-2.1708,-2.1678,-2.1678,-2.1694,-2.1664,-2.1603,-2.1526,-2.1526,-2.1526,-2.1464,-2.1481,-2.145,-2.1481,-2.1371,-2.1371,-2.1509,-2.1556,-2.1573,-2.1738,-2.1617,-2.1386,-2.1087,-2.0942,-2.0795,-2.9602,-2.9602,-2.9665,-2.9651,-2.9602,-2.9665,-2.9651,-2.9602,-2.9602,-2.9602,-2.9602,-2.9602,-2.9602,-2.9673,-3.008,-3.0024,-2.9729,-3.0249,-3.0193,-2.9673,-2.9757,-2.9785,-2.9588,-2.9167,-2.8942,-2.8844,-2.8324,-2.7872,-2.7544,-2.6596,-2.6004,-2.5635,-2.4805,-2.4171,-2.3822,-2.3366,-2.2999,-2.2782,-2.2346,-2.2285,-2.225,-2.0854,-2.0217,-2.0525,-2.0303,-2.0064,-1.9935,-2.0101,-2.005,-1.9777,-1.9762,-1.9762,-1.9726,-1.9705,-1.9705,-1.9705,-1.9705,-1.9705,-1.9705,-1.9705,-1.9705,-1.9762,-2.0376,-2.0812,-2.0927,-2.1472,-2.184,-2.1781,-2.1781,-2.1781,-2.1781,-2.184,-2.1869,-2.1853,-2.1911,-2.1911,-2.1869,-2.1853,-2.184,-2.1781,-2.1797,-2.1781,-2.1781,-2.1781,-2.1781,-2.1781,-2.1781,-2.1781,-2.1797,-2.1797,-2.1768,-2.1678,-2.1694,-2.1648,-2.1617,-2.1587,-2.1587,-2.1542,-2.1433,-2.1371,-2.1309,-2.1309,-2.1294,-2.1388,-2.1325,-2.134,-2.1433,-2.1371,-2.1294,-2.1214,-2.1087,-2.0893,-2.0695,-2.0527,-2.0426,-2.9602,-2.9617,-2.9761,-2.9713,-2.9602,-2.9713,-2.9713,-2.9602,-2.9602,-2.9602,-2.9602,-2.9602,-2.9602,-2.9602,-2.9687,-2.9645,-2.9687,-3.0249,-3.0193,-2.9701,-3.015,-3.015,-2.9631,-2.9574,-2.9546,-2.9448,-2.8797,-2.813,-2.7216,-2.6121,-2.5428,-2.5455,-2.5084,-2.4354,-2.3516,-2.3349,-2.2949,-2.2637,-2.2519,-2.2554,-2.277,-2.2193,-2.1457,-2.1,-2.1332,-2.0948,-2.0032,-2.0414,-2.0444,-1.972,-1.9756,-1.9741,-1.9705,-1.9705,-1.9705,-1.9705,-1.9705,-1.9705,-1.9705,-1.9705,-1.9705,-1.9797,-2.0342,-2.0797,-2.0847,-2.1381,-2.1751,-2.1781,-2.1781,-2.1781,-2.1781,-2.1811,-2.1811,-2.1811,-2.1811,-2.1811,-2.1811,-2.1811,-2.1781,-2.1847,-2.1897,-2.193,-2.1847,-2.1781,-2.1781,-2.1781,-2.1781,-2.1797,-2.1768,-2.1738,-2.1694,-2.1664,-2.1634,-2.1573,-2.1448,-2.1448,-2.1417,-2.1371,-2.1371,-2.1309,-2.1309,-2.1294,-2.1294,-2.1294,-2.1294,-2.1309,-2.1371,-2.134,-2.1214,-2.1055,-2.0794,-2.0595,-2.0475,-2.0407,-2.0339,-2.9954,-2.9602,-2.9665,-2.9651,-2.9602,-2.9665,-2.9651,-2.9602,-2.9602,-2.9602,-2.9602,-2.9602,-2.9602,-2.9602,-2.9602,-2.9602,-2.9659,-3.0249,-3.0193,-2.9687,-2.9841,-2.9813,-2.9631,-2.9602,-2.9602,-2.9456,-2.8773,-2.8002,-2.7242,-2.6752,-2.6423,-2.609,-2.5376,-2.4726,-2.4393,-2.4346,-2.419,-2.401,-2.387,-2.3899,-2.3879,-2.3334,-2.2691,-2.2019,-2.1389,-2.0865,-2.0363,-2.0625,-2.043,-1.972,-2.0094,-2.0139,-1.9735,-1.9705,-1.9705,-1.9705,-1.9705,-1.9705,-1.9705,-1.9705,-1.9705,-1.9726,-2.012,-2.055,-2.0815,-2.1212,-2.1587,-2.1738,-2.1781,-2.1781,-2.1781,-2.1781,-2.1797,-2.1781,-2.1781,-2.1797,-2.1781,-2.1797,-2.1963,-2.2361,-2.2493,-2.251,-2.2311,-2.2079,-2.1797,-2.1781,-2.1768,-2.1754,-2.1724,-2.1664,-2.1603,-2.1526,-2.1495,-2.1433,-2.1371,-2.1386,-2.1386,-2.1355,-2.134,-2.1309,-2.1294,-2.1294,-2.1294,-2.1294,-2.1294,-2.1325,-2.134,-2.1151,-2.1055,-2.0827,-2.0561,-2.0392,-2.0407,-2.0254,-2.0254,-2.9996,-2.9645,-2.9602,-2.9602,-2.9602,-2.9602,-2.9602,-2.9602,-2.9602,-2.9602,-2.9602,-2.9602,-2.9602,-2.9602,-2.9477,-2.9477,-2.9687,-3.0221,-3.0193,-2.9673,-2.9799,-2.9799,-2.9631,-2.9602,-2.954,-2.9254,-2.8388,-2.7683,-2.749,-2.7203,-2.6931,-2.666,-2.5694,-2.5253,-2.5243,-2.5074,-2.5025,-2.5095,-2.5049,-2.4897,-2.4611,-2.4178,-2.364,-2.2892,-2.171,-2.0932,-2.0722,-2.0707,-2.0513,-2.0139,-2.0258,-2.0168,-1.975,-1.9705,-1.9705,-1.9705,-1.9705,-1.9794,-1.9944,-1.9809,-1.9794,-2.0019,-2.0257,-2.0532,-2.0813,-2.1197,-2.154,-2.1738,-2.1781,-2.1781,-2.1847,-2.1996,-2.2046,-2.1864,-2.1781,-2.1913,-2.2096,-2.193,-2.2076,-2.2344,-2.2443,-2.2493,-2.2462,-2.2049,-2.1787,-2.1754,-2.157,-2.1509,-2.1634,-2.1464,-2.1402,-2.1386,-2.1386,-2.1371,-2.1309,-2.134,-2.1324,-2.134,-2.134,-2.1309,-2.1294,-2.1294,-2.1294,-2.1294,-2.1294,-2.1294,-2.1214,-2.1023,-2.0827,-2.0595,-2.0342,-2.012,-2.0135,-2.015,-2.008,-2.9617,-2.9602,-2.9602,-2.9602,-2.9602,-2.9602,-2.9602,-2.9602,-2.9602,-2.9602,-2.9602,-2.9602,-2.9602,-2.954,-2.9289,-2.9289,-2.9589,-3.0051,-3.0073,-2.9687,-3.0073,-3.0017,-2.9631,-2.954,-2.931,-2.8925,-2.785,-2.7531,-2.7734,-2.713,-2.6817,-2.6582,-2.6125,-2.5796,-2.5756,-2.5385,-2.5286,-2.5549,-2.5611,-2.5297,-2.4716,-2.4492,-2.4133,-2.349,-2.2338,-2.141,-2.0797,-2.0737,-2.0662,-2.0528,-2.0094,-1.9735,-1.9705,-1.9705,-1.9705,-1.9705,-1.9705,-2.0019,-2.0453,-2.0019,-1.9952,-2.0333,-2.0659,-2.066,-2.0838,-2.1294,-2.1678,-2.1797,-2.1781,-2.1781,-2.1897,-2.2394,-2.2559,-2.198,-2.1996,-2.2327,-2.2626,-2.2278,-2.1864,-2.2079,-2.2132,-2.185,-2.179,-2.176,-2.168,-2.1526,-2.1293,-2.1134,-2.1371,-2.1166,-2.1103,-2.123,-2.123,-2.1166,-2.1214,-2.1277,-2.1294,-2.1294,-2.1294,-2.1294,-2.1294,-2.1294,-2.1294,-2.1294,-2.1262,-2.123,-2.1055,-2.0844,-2.0579,-2.0376,-2.0085,-1.9839,-1.9854,-1.9833,-1.9818,-2.9602,-2.9602,-2.9602,-2.9602,-2.9602,-2.9602,-2.9602,-2.9602,-2.9602,-2.9602,-2.9602,-2.9602,-2.9602,-2.954,-2.9289,-2.9162,-2.924,-2.9242,-2.9342,-2.9547,-2.9575,-2.9561,-2.9519,-2.9352,-2.8738,-2.7944,-2.7835,-2.7324,-2.6762,-2.7026,-2.7079,-2.67,-2.6491,-2.6238,-2.5879,-2.6004,-2.6119,-2.5742,-2.5681,-2.5518,-2.5179,-2.4388,-2.3819,-2.355,-2.2787,-2.2054,-2.1425,-2.0961,-2.0513,-2.0079,-2.0258,-2.0183,-1.9794,-1.9705,-1.9705,-1.9705,-1.9705,-1.9735,-1.9944,-1.9839,-1.9779,-1.9995,-2.0046,-2.0304,-2.0724,-2.1022,-2.1371,-2.1708,-2.1781,-2.1781,-2.1913,-2.246,-2.2808,-2.2592,-2.3007,-2.3305,-2.3503,-2.3405,-2.3457,-2.3654,-2.3029,-2.2669,-2.2734,-2.2374,-2.1481,-2.1214,-2.0975,-2.091,-2.0731,-2.0795,-2.0712,-2.063,-2.073,-2.0877,-2.0795,-2.0795,-2.0844,-2.0974,-2.1119,-2.1262,-2.1294,-2.1183,-2.1214,-2.1183,-2.1167,-2.1055,-2.0893,-2.0613,-2.0308,-2.0065,-1.9782,-1.9603,-1.9545,-1.9508,-1.9493,-2.9602,-2.9602,-2.9602,-2.954,-2.9415,-2.954,-2.9477,-2.9415,-2.9554,-2.954,-2.9415,-2.9415,-2.9352,-2.9162,-2.8908,-2.878,-2.8844,-2.8379,-2.8587,-2.9099,-2.9035,-2.9035,-2.9162,-2.8908,-2.8197,-2.7384,-2.7495,-2.6997,-2.5929,-2.6713,-2.7013,-2.67,-2.6465,-2.6304,-2.6118,-2.629,-2.6244,-2.6115,-2.6021,-2.5854,-2.545,-2.4537,-2.3744,-2.3266,-2.2637,-2.2009,-2.135,-2.0707,-2.0243,-2.0154,-2.0498,-2.0363,-1.9794,-1.9914,-1.9959,-1.9779,-1.9929,-2.0094,-2.0049,-1.9854,-1.9839,-2.0004,-1.9948,-2.0139,-2.0698,-2.0878,-2.1342,-2.2024,-2.2228,-2.2311,-2.2659,-2.3288,-2.3637,-2.3621,-2.3786,-2.3968,-2.3951,-2.4116,-2.4147,-2.408,-2.3293,-2.2965,-2.2736,-2.2151,-2.1199,-2.0812,-2.0548,-2.0481,-2.0261,-2.0311,-2.0224,-2.0224,-2.0429,-2.0429,-2.0277,-2.0277,-2.0361,-2.0597,-2.0844,-2.1087,-2.1262,-2.1039,-2.0942,-2.0778,-2.0712,-2.0695,-2.0545,-2.0135,-1.9782,-1.9581,-1.9457,-1.931,-1.9199,-1.9213,-1.9199,-2.954,-2.954,-2.954,-2.9352,-2.9226,-2.9415,-2.9366,-2.9162,-2.9352,-2.9289,-2.9099,-2.9099,-2.8908,-2.8587,-2.8341,-2.8341,-2.8392,-2.7934,-2.7921,-2.8365,-2.8441,-2.8373,-2.8424,-2.8274,-2.7811,-2.7189,-2.6906,-2.6424,-2.5733,-2.6412,-2.6648,-2.653,-2.6255,-2.6126,-2.6391,-2.6061,-2.6113,-2.6242,-2.6297,-2.5956,-2.5418,-2.4776,-2.3955,-2.2877,-2.2233,-2.1605,-2.0976,-2.0243,-2.0034,-2.0513,-2.0543,-2.0318,-1.9989,-2.0378,-2.0363,-1.9884,-2.0378,-2.0513,-2.0498,-1.9989,-1.9914,-2.0356,-2.0228,-2.0366,-2.075,-2.1151,-2.1729,-2.2646,-2.2891,-2.3189,-2.3818,-2.4364,-2.4742,-2.4804,-2.4477,-2.4265,-2.4016,-2.4474,-2.4437,-2.3831,-2.3096,-2.2427,-2.2091,-2.1355,-2.0742,-2.0292,-1.998,-1.998,-1.9945,-1.9945,-1.9889,-1.9945,-2.005,-2.0015,-1.9874,-1.9767,-1.9839,-2.007,-2.0345,-2.0597,-2.0909,-2.073,-2.0663,-2.0496,-2.0292,-2.0273,-2.01,-1.9711,-1.9493,-1.9384,-1.9236,-1.8974,-1.886,-1.8912,-1.8912,-2.924,-2.9226,-2.8972,-2.9099,-2.9352,-2.9035,-2.8972,-2.9035,-2.8922,-2.8844,-2.8729,-2.8716,-2.8665,-2.8522,-2.821,-2.8158,-2.8079,-2.7736,-2.7536,-2.7723,-2.7327,-2.7375,-2.7648,-2.7931,-2.7616,-2.6906,-2.6647,-2.6164,-2.5341,-2.6164,-2.6438,-2.6099,-2.6596,-2.6569,-2.6136,-2.613,-2.5813,-2.5293,-2.5034,-2.4934,-2.4697,-2.4149,-2.3672,-2.3344,-2.267,-2.2054,-2.138,-2.0288,-1.975,-1.9914,-1.9944,-2.0154,-2.0393,-2.0602,-2.0632,-2.0557,-2.0557,-2.0498,-2.0079,-1.9839,-1.9824,-1.9929,-2.0083,-2.0104,-2.0763,-2.1321,-2.2037,-2.2815,-2.3338,-2.3703,-2.3901,-2.4286,-2.4535,-2.4716,-2.4931,-2.5141,-2.5072,-2.4841,-2.4525,-2.3895,-2.2815,-2.2049,-2.1455,-2.0879,-2.0273,-1.9925,-1.9762,-1.9617,-1.9566,-1.9639,-1.9675,-1.9545,-1.953,-1.953,-1.9457,-1.9325,-1.9362,-1.9588,-1.9752,-1.9859,-2.0139,-2.0208,-2.0277,-2.0326,-1.9945,-1.9803,-1.966,-1.9369,-1.9258,-1.9147,-1.8936,-1.8683,-1.862,-1.862,-1.862,-2.8908,-2.8844,-2.8651,-2.8716,-2.8972,-2.8716,-2.8651,-2.8651,-2.8651,-2.8522,-2.8406,-2.8406,-2.8276,-2.8118,-2.7934,-2.7868,-2.7802,-2.7603,-2.7536,-2.7432,-2.6948,-2.6842,-2.7141,-2.7577,-2.7315,-2.6437,-2.6321,-2.5811,-2.5262,-2.5814,-2.605,-2.6141,-2.6388,-2.6181,-2.5686,-2.5815,-2.5675,-2.5112,-2.4788,-2.4675,-2.4616,-2.3837,-2.3096,-2.274,-2.2289,-2.1754,-2.081,-2.0057,-1.9669,-1.9705,-1.9735,-2.0004,-2.0617,-2.0707,-2.0827,-2.1066,-2.0887,-2.0617,-2.0528,-2.0303,-2.0258,-2.0468,-2.0528,-2.0825,-2.1357,-2.1902,-2.2489,-2.313,-2.3744,-2.4035,-2.416,-2.427,-2.4367,-2.4523,-2.4958,-2.5208,-2.516,-2.4748,-2.4284,-2.362,-2.2739,-2.1703,-2.1146,-2.0411,-1.9893,-1.9566,-1.942,-1.9325,-1.9228,-1.9362,-1.942,-1.9288,-1.9213,-1.925,-1.925,-1.9168,-1.904,-1.9199,-1.9273,-1.9347,-1.9515,-1.9717,-1.9752,-1.9752,-1.9515,-1.9347,-1.9184,-1.9035,-1.886,-1.8721,-1.8542,-1.8517,-1.8517,-1.8478,-1.8478,-2.8444,-2.8444,-2.8471,-2.8341,-2.8276,-2.8392,-2.8327,-2.821,-2.8341,-2.8262,-2.8079,-2.8013,-2.7881,-2.7536,-2.759,-2.7536,-2.7536,-2.7536,-2.7366,-2.721,-2.6909,-2.6778,-2.6424,-2.6922,-2.6595,-2.5863,-2.5733,-2.5367,-2.5045,-2.5286,-2.5754,-2.5884,-2.5602,-2.5358,-2.5286,-2.5302,-2.5328,-2.5146,-2.4876,-2.4802,-2.4596,-2.3775,-2.2848,-2.1963,-2.1473,-2.0833,-2.0042,-1.9664,-1.9715,-1.9639,-1.9675,-2.0094,-2.0677,-2.0842,-2.1081,-2.144,-2.1201,-2.1081,-2.1321,-2.0857,-2.0946,-2.138,-2.1545,-2.1838,-2.2087,-2.2465,-2.2932,-2.3437,-2.3913,-2.4207,-2.428,-2.4343,-2.422,-2.4158,-2.4147,-2.4173,-2.4164,-2.4164,-2.3933,-2.3225,-2.2463,-2.163,-2.0768,-2.0042,-1.9493,-1.9362,-1.9213,-1.9153,-1.9078,-1.9101,-1.9124,-1.9087,-1.9064,-1.9026,-1.9003,-1.8993,-1.8865,-1.8874,-1.8851,-1.8912,-1.9087,-1.9184,-1.9199,-1.9139,-1.9087,-1.8974,-1.8912,-1.8721,-1.8581,-1.8556,-1.8517,-1.8517,-1.8478,-1.8478,-1.8478,-2.7497,-2.751,-2.7656,-2.8066,-2.8327,-2.8,-2.7868,-2.8079,-2.7868,-2.7736,-2.7669,-2.7656,-2.7603,-2.7469,-2.7469,-2.7469,-2.7469,-2.7417,-2.7092,-2.6308,-2.7105,-2.6452,-2.5798,-2.602,-2.5811,-2.5301,-2.5171,-2.481,-2.4494,-2.5029,-2.5316,-2.5024,-2.5576,-2.5525,-2.4826,-2.4936,-2.4929,-2.4543,-2.4319,-2.4254,-2.4141,-2.3593,-2.2761,-2.1911,-2.1112,-2.0283,-1.9775,-1.9937,-1.9952,-1.962,-1.9737,-2.0348,-2.1147,-2.1356,-2.15,-2.162,-2.156,-2.1291,-2.1021,-2.0923,-2.1021,-2.171,-2.1859,-2.1838,-2.2202,-2.2755,-2.3196,-2.3631,-2.4139,-2.4244,-2.3945,-2.3837,-2.3681,-2.3421,-2.329,-2.3098,-2.2799,-2.3152,-2.3041,-2.2197,-2.1469,-2.0625,-1.9648,-1.9478,-1.9213,-1.9116,-1.9078,-1.9017,-1.8965,-1.895,-1.8936,-1.8936,-1.8936,-1.8912,-1.8889,-1.8827,-1.875,-1.8659,-1.8634,-1.8595,-1.876,-1.8836,-1.8874,-1.8836,-1.8721,-1.8697,-1.8659,-1.862,-1.8517,-1.8517,-1.8478,-1.8478,-1.8478,-1.8478,-1.84,-2.731,-2.7377,-2.7469,-2.7723,-2.8,-2.7656,-2.7603,-2.7736,-2.7603,-2.7469,-2.7469,-2.7469,-2.7469,-2.7469,-2.7469,-2.7469,-2.7469,-2.7456,-2.7236,-2.6791,-2.704,-2.6595,-2.589,-2.5484,-2.5236,-2.4975,-2.4901,-2.4632,-2.4576,-2.4818,-2.5103,-2.4834,-2.5307,-2.5001,-2.4389,-2.4524,-2.446,-2.424,-2.4031,-2.3928,-2.382,-2.3359,-2.2523,-2.1698,-2.0786,-2.0079,-1.9883,-2.0088,-2.0127,-2.0032,-2.0226,-2.0733,-2.1268,-2.1282,-2.1411,-2.1928,-2.1337,-2.1426,-2.1337,-2.1307,-2.1475,-2.2378,-2.2426,-2.2536,-2.2772,-2.3156,-2.3319,-2.3492,-2.372,-2.3921,-2.3421,-2.3304,-2.3098,-2.2978,-2.2888,-2.2714,-2.2557,-2.2579,-2.2218,-2.1272,-2.0631,-2.0038,-1.9453,-1.9159,-1.9078,-1.904,-1.9055,-1.8993,-1.8874,-1.886,-1.886,-1.8822,-1.8822,-1.8784,-1.8736,-1.8711,-1.8595,-1.8542,-1.8556,-1.8517,-1.8595,-1.8595,-1.8595,-1.8595,-1.8581,-1.8542,-1.8556,-1.8478,-1.8478,-1.8478,-1.8478,-1.8478,-1.8478,-1.8439,-1.8268,-2.7323,-2.7403,-2.7456,-2.7469,-2.7469,-2.7536,-2.7536,-2.7536,-2.7469,-2.7469,-2.7469,-2.7469,-2.7469,-2.7469,-2.7469,-2.7469,-2.7469,-2.751,-2.7353,-2.7144,-2.7013,-2.6595,-2.6086,-2.5524,-2.5005,-2.4883,-2.4632,-2.4473,-2.4494,-2.4721,-2.476,-2.4874,-2.4721,-2.4507,-2.414,-2.409,-2.4253,-2.4323,-2.4273,-2.4187,-2.4013,-2.3504,-2.2572,-2.1223,-2.0506,-2.0011,-1.9972,-2.0148,-2.0333,-2.0406,-2.1013,-2.1366,-2.1348,-2.1138,-2.1104,-2.2369,-2.1484,-2.1469,-2.1984,-2.1928,-2.2064,-2.3172,-2.3275,-2.326,-2.3318,-2.3404,-2.339,-2.3289,-2.3363,-2.3392,-2.2978,-2.2978,-2.2933,-2.2888,-2.2888,-2.2844,-2.2656,-2.2193,-2.1265,-2.0677,-2.0109,-1.9546,-1.929,-1.9026,-1.9003,-1.8965,-1.8941,-1.8917,-1.8798,-1.8745,-1.8669,-1.8707,-1.8683,-1.8683,-1.862,-1.8581,-1.8464,-1.8425,-1.8439,-1.8439,-1.8439,-1.8517,-1.8517,-1.8517,-1.8517,-1.8478,-1.8478,-1.8478,-1.8478,-1.8478,-1.8347,-1.8228,-1.8268,-1.8307,-1.8095,-2.6427,-2.685,-2.7323,-2.7469,-2.7469,-2.7469,-2.7469,-2.7469,-2.7469,-2.7469,-2.7469,-2.7469,-2.7469,-2.7469,-2.7469,-2.7469,-2.7469,-2.751,-2.7314,-2.7092,-2.7027,-2.6752,-2.5733,-2.5413,-2.4935,-2.4287,-2.4072,-2.3906,-2.3828,-2.4063,-2.4343,-2.4205,-2.423,-2.4117,-2.4026,-2.4103,-2.4287,-2.4456,-2.449,-2.4438,-2.4276,-2.3765,-2.2795,-2.1264,-2.0596,-2.0088,-1.9851,-2.0346,-2.0651,-2.0302,-2.1276,-2.1799,-2.1914,-2.1838,-2.2039,-2.214,-2.2022,-2.1963,-2.2199,-2.2243,-2.2523,-2.3069,-2.326,-2.326,-2.3275,-2.3246,-2.3201,-2.3157,-2.3023,-2.2963,-2.2933,-2.2888,-2.2888,-2.2888,-2.2814,-2.2669,-2.2148,-2.1441,-2.0827,-2.0454,-1.9818,-1.9219,-1.9037,-1.895,-1.8912,-1.8798,-1.8697,-1.8673,-1.8581,-1.8489,-1.8411,-1.8464,-1.8542,-1.8542,-1.8503,-1.8464,-1.8386,-1.8268,-1.8268,-1.8268,-1.8321,-1.8439,-1.8478,-1.8268,-1.8268,-1.8347,-1.84,-1.8361,-1.8321,-1.8202,-1.8055,-1.7922,-1.7882,-1.7855,-1.7611,-2.6633,-2.7121,-2.7403,-2.7469,-2.7469,-2.7469,-2.7469,-2.7469,-2.7469,-2.7469,-2.7469,-2.7469,-2.7469,-2.7469,-2.7469,-2.7469,-2.7469,-2.7456,-2.7366,-2.7196,-2.704,-2.6765,-2.5707,-2.5428,-2.4861,-2.4236,-2.3893,-2.3595,-2.3454,-2.3851,-2.389,-2.3753,-2.4067,-2.4155,-2.3789,-2.3895,-2.3999,-2.4118,-2.4063,-2.3987,-2.3932,-2.354,-2.2627,-2.1786,-2.1235,-2.093,-2.0828,-2.1061,-2.138,-2.1336,-2.1989,-2.2207,-2.2236,-2.2338,-2.2483,-2.2277,-2.2204,-2.2147,-2.2175,-2.2204,-2.2439,-2.2936,-2.3098,-2.3098,-2.3068,-2.3023,-2.2978,-2.2978,-2.2933,-2.2888,-2.2888,-2.2888,-2.2888,-2.2843,-2.2706,-2.2412,-2.192,-2.0966,-2.0534,-2.0217,-1.9318,-1.8832,-1.8932,-1.8836,-1.8798,-1.8683,-1.8489,-1.8372,-1.8268,-1.8149,-1.8029,-1.7975,-1.8016,-1.8016,-1.8016,-1.8016,-1.8016,-1.8029,-1.7989,-1.7989,-1.7949,-1.7989,-1.7855,-1.7693,-1.7855,-1.8016,-1.7855,-1.7706,-1.7788,-1.7868,-1.7652,-1.7475,-1.7434,-1.731,-1.706,-2.6985,-2.7469,-2.7469,-2.7469,-2.7469,-2.7469,-2.7469,-2.7469,-2.7469,-2.7469,-2.7469,-2.7469,-2.7469,-2.7469,-2.7469,-2.7469,-2.7482,-2.7561,-2.7587,-2.7404,-2.7248,-2.6935,-2.6335,-2.5482,-2.4651,-2.431,-2.392,-2.3444,-2.3346,-2.3601,-2.3565,-2.3627,-2.4243,-2.4205,-2.3577,-2.3651,-2.3489,-2.347,-2.3267,-2.3275,-2.316,-2.2974,-2.2511,-2.1845,-2.1743,-2.1584,-2.1207,-2.1439,-2.1743,-2.1975,-2.2439,-2.2656,-2.2367,-2.2627,-2.2686,-2.2353,-2.2222,-2.2207,-2.2222,-2.2251,-2.2483,-2.2904,-2.2888,-2.2888,-2.2888,-2.2933,-2.2888,-2.2888,-2.2888,-2.2888,-2.2888,-2.2797,-2.2752,-2.2646,-2.231,-2.1927,-2.1619,-2.0912,-1.9951,-1.9395,-1.8589,-1.8316,-1.8339,-1.8226,-1.8068,-1.8068,-1.7882,-1.7841,-1.772,-1.757,-1.7447,-1.7406,-1.7365,-1.7365,-1.7406,-1.7488,-1.7488,-1.7529,-1.7529,-1.7529,-1.7447,-1.7365,-1.724,-1.7186,-1.7227,-1.7352,-1.7199,-1.7212,-1.7419,-1.7447,-1.7199,-1.7073,-1.7018,-1.685,-1.6552,-2.6985,-2.7469,-2.7469,-2.7469,-2.7456,-2.7469,-2.7469,-2.7469,-2.7469,-2.7469,-2.7469,-2.7469,-2.7469,-2.7469,-2.7456,-2.7403,-2.752,-2.7676,-2.7637,-2.7284,-2.7348,-2.6945,-2.6349,-2.555,-2.4695,-2.4316,-2.4053,-2.359,-2.3401,-2.3389,-2.3527,-2.374,-2.3627,-2.3464,-2.369,-2.3464,-2.3501,-2.3826,-2.3891,-2.3787,-2.3547,-2.306,-2.2233,-2.1455,-2.1167,-2.1023,-2.0821,-2.1109,-2.1541,-2.2048,-2.2569,-2.283,-2.2801,-2.283,-2.2888,-2.2846,-2.2786,-2.2786,-2.2759,-2.2715,-2.2685,-2.2873,-2.2888,-2.2888,-2.2888,-2.2888,-2.2888,-2.2888,-2.2888,-2.2843,-2.2737,-2.2477,-2.2324,-2.2077,-2.1766,-2.1479,-2.1143,-2.0532,-1.9638,-1.9058,-1.8409,-1.7882,-1.7629,-1.7483,-1.7352,-1.7352,-1.731,-1.7269,-1.7186,-1.7031,-1.6905,-1.6863,-1.6778,-1.6778,-1.682,-1.6863,-1.6918,-1.7002,-1.6989,-1.6989,-1.6905,-1.682,-1.6808,-1.6765,-1.6808,-1.6808,-1.682,-1.6947,-1.7115,-1.6989,-1.6735,-1.665,-1.6565,-1.6349,-1.6132,-2.6195,-2.6688,-2.6985,-2.6905,-2.6824,-2.7255,-2.7469,-2.7469,-2.7469,-2.7469,-2.7469,-2.739,-2.7335,-2.7281,-2.7214,-2.7214,-2.7134,-2.7214,-2.6994,-2.662,-2.6425,-2.6078,-2.5653,-2.5001,-2.4392,-2.4418,-2.4306,-2.4167,-2.3866,-2.3879,-2.4042,-2.3577,-2.3853,-2.3828,-2.364,-2.3276,-2.3081,-2.2981,-2.2739,-2.2564,-2.2512,-2.24,-2.2036,-2.1124,-2.1584,-2.137,-2.114,-2.1499,-2.1973,-2.2377,-2.2665,-2.2737,-2.2706,-2.2706,-2.2706,-2.2706,-2.2737,-2.2768,-2.2873,-2.2888,-2.2888,-2.2888,-2.2888,-2.2888,-2.2888,-2.2843,-2.2843,-2.2888,-2.2661,-2.2509,-2.2356,-2.1983,-2.1718,-2.1479,-2.1126,-2.0832,-2.0508,-1.9851,-1.9183,-1.8684,-1.8246,-1.7836,-1.7422,-1.7243,-1.7187,-1.7122,-1.6986,-1.6808,-1.6595,-1.6392,-1.6306,-1.6306,-1.6262,-1.6231,-1.6219,-1.6262,-1.6287,-1.6331,-1.6262,-1.6306,-1.6306,-1.6262,-1.6293,-1.625,-1.6219,-1.6306,-1.6436,-1.6479,-1.6479,-1.6392,-1.6262,-1.6219,-1.6231,-1.6144,-1.5913,-2.5193,-2.5463,-2.6126,-2.6414,-2.6414,-2.7108,-2.7403,-2.7403,-2.7403,-2.7403,-2.7335,-2.7281,-2.7146,-2.7024,-2.6998,-2.6921,-2.6713,-2.664,-2.6396,-2.5973,-2.564,-2.564,-2.5588,-2.5052,-2.4608,-2.4558,-2.4897,-2.4695,-2.4519,-2.4556,-2.4418,-2.3427,-2.3828,-2.3766,-2.3351,-2.31,-2.2971,-2.2463,-2.1879,-2.1603,-2.1523,-2.1642,-2.1412,-2.1332,-2.1555,-2.1924,-2.1739,-2.1924,-2.2255,-2.2572,-2.2586,-2.2661,-2.2615,-2.2661,-2.2661,-2.2615,-2.2661,-2.2706,-2.2752,-2.2797,-2.2843,-2.2843,-2.2857,-2.2797,-2.2783,-2.2737,-2.2601,-2.2509,-2.2123,-2.1921,-2.1766,-2.1286,-2.1028,-2.0733,-2.0434,-2.0144,-1.9876,-1.9453,-1.8998,-1.8521,-1.8154,-1.7922,-1.755,-1.7187,-1.7048,-1.6964,-1.6734,-1.6374,-1.6132,-1.5925,-1.5949,-1.5949,-1.5969,-1.6009,-1.6211,-1.6074,-1.5948,-1.5751,-1.5695,-1.5659,-1.5691,-1.5736,-1.578,-1.5736,-1.5748,-1.5925,-1.6144,-1.5969,-1.5836,-1.5925,-1.6013,-1.5925,-1.5881,-1.5792,-1.5792,-2.4036,-2.3514,-2.5157,-2.6195,-2.6863,-2.7214,-2.7201,-2.7079,-2.7214,-2.7201,-2.7079,-2.7024,-2.7011,-2.6956,-2.6905,-2.6633,-2.6133,-2.7212,-2.6735,-2.6489,-2.6756,-2.6498,-2.6152,-2.5668,-2.5413,-2.5347,-2.5498,-2.5259,-2.4946,-2.5059,-2.4732,-2.4104,-2.3841,-2.3341,-2.3015,-2.2924,-2.2539,-2.2027,-2.145,-2.1146,-2.0952,-2.089,-2.0617,-2.0612,-2.0419,-2.0504,-2.1405,-2.1631,-2.1886,-2.2402,-2.2417,-2.2509,-2.2509,-2.2523,-2.2523,-2.2523,-2.2569,-2.2569,-2.2615,-2.2661,-2.2661,-2.2601,-2.2646,-2.2615,-2.2509,-2.2137,-2.1949,-2.1888,-2.1444,-2.1188,-2.0979,-2.0633,-2.0333,-2.0144,-1.985,-1.9643,-1.95,-1.9408,-1.8915,-1.8413,-1.8169,-1.8058,-1.7649,-1.7347,-1.7048,-1.6971,-1.6463,-1.6142,-1.586,-1.5659,-1.5718,-1.5775,-1.5727,-1.5927,-1.6414,-1.6284,-1.587,-1.5574,-1.5439,-1.529,-1.5198,-1.5198,-1.5379,-1.557,-1.5703,-1.5748,-1.5792,-1.5792,-1.5792,-1.5792,-1.5792,-1.5792,-1.5792,-1.5792,-1.5792,-2.3296,-2.3436,-2.4061,-2.4683,-2.5499,-2.6645,-2.7079,-2.7024,-2.7079,-2.6998,-2.6794,-2.6794,-2.6794,-2.6726,-2.6658,-2.6569,-2.6274,-2.6291,-2.6164,-2.5858,-2.587,-2.5958,-2.5728,-2.5854,-2.5573,-2.5686,-2.5887,-2.5837,-2.5385,-2.5194,-2.4958,-2.4418,-2.3841,-2.3477,-2.3175,-2.2464,-2.185,-2.1274,-2.068,-2.0254,-2.0141,-2.0295,-2.01,-1.9673,-2.084,-2.0582,-2.0603,-2.117,-2.1511,-2.1785,-2.1874,-2.203,-2.2217,-2.2278,-2.2278,-2.2278,-2.2278,-2.2278,-2.2324,-2.2463,-2.2615,-2.2615,-2.2601,-2.2449,-2.2123,-2.1888,-2.1589,-2.1286,-2.0782,-2.0484,-2.0434,-2.0003,-1.9565,-1.9512,-1.9408,-1.921,-1.9105,-1.9105,-1.9016,-1.8614,-1.8522,-1.8505,-1.7989,-1.7466,-1.7218,-1.6943,-1.6397,-1.5902,-1.5621,-1.5402,-1.5472,-1.5496,-1.5494,-1.5818,-1.6231,-1.6017,-1.5709,-1.544,-1.5153,-1.4902,-1.4731,-1.5062,-1.5244,-1.5424,-1.5614,-1.5748,-1.5792,-1.5792,-1.5792,-1.5792,-1.5792,-1.5792,-1.5792,-1.5792,-1.5792,-2.2212,-2.2607,-2.2935,-2.3781,-2.4859,-2.612,-2.6633,-2.6646,-2.6799,-2.6658,-2.6289,-2.644,-2.644,-2.6314,-2.6452,-2.6357,-2.6206,-2.608,-2.5799,-2.5674,-2.5586,-2.5536,-2.5737,-2.5875,-2.5802,-2.5747,-2.5772,-2.5772,-2.5135,-2.4719,-2.4501,-2.4266,-2.4029,-2.3477,-2.3,-2.2026,-2.1119,-2.0461,-1.9899,-1.9473,-1.9473,-1.9483,-1.9762,-1.9382,-2.0227,-2.0497,-2.0347,-2.078,-2.1073,-2.1153,-2.1215,-2.1361,-2.1602,-2.1746,-2.1732,-2.1732,-2.1746,-2.1732,-2.1779,-2.203,-2.2156,-2.1899,-2.1874,-2.1704,-2.1534,-2.1321,-2.0845,-2.0633,-2.0131,-1.9837,-1.9837,-1.9448,-1.921,-1.9263,-1.9198,-1.904,-1.9052,-1.9052,-1.8999,-1.885,-1.8792,-1.8691,-1.8289,-1.767,-1.6842,-1.6526,-1.5951,-1.5544,-1.5348,-1.5233,-1.5257,-1.528,-1.5223,-1.5649,-1.6045,-1.5556,-1.5051,-1.4904,-1.4657,-1.4392,-1.4316,-1.464,-1.5017,-1.5244,-1.5468,-1.5703,-1.5792,-1.5792,-1.5792,-1.5792,-1.5792,-1.5748,-1.5792,-1.5792,-1.5792,-2.0899,-2.0644,-2.2,-2.3653,-2.5202,-2.5769,-2.5794,-2.5707,-2.6214,-2.6082,-2.5511,-2.6025,-2.6025,-2.5734,-2.6164,-2.6251,-2.6038,-2.6201,-2.6151,-2.585,-2.6013,-2.6357,-2.6339,-2.6258,-2.5827,-2.5405,-2.518,-2.496,-2.4494,-2.399,-2.3891,-2.3791,-2.343,-2.3128,-2.2965,-2.1886,-2.0977,-2.0232,-1.9691,-1.9377,-1.919,-1.8937,-1.9142,-1.9433,-1.961,-1.986,-2.0128,-2.0369,-2.061,-2.061,-2.061,-2.0709,-2.0858,-2.0858,-2.0845,-2.0845,-2.0809,-2.0759,-2.0709,-2.1166,-2.1148,-2.1005,-2.1099,-2.0904,-2.0614,-2.0306,-2.0003,-1.994,-1.9488,-1.9186,-1.9093,-1.904,-1.9052,-1.9052,-1.8999,-1.8987,-1.8987,-1.8946,-1.8893,-1.8851,-1.8786,-1.8697,-1.836,-1.7821,-1.6741,-1.6043,-1.5498,-1.5176,-1.4983,-1.4868,-1.4855,-1.5002,-1.4956,-1.5173,-1.5366,-1.4851,-1.4424,-1.4291,-1.4157,-1.3915,-1.3894,-1.4082,-1.4501,-1.4915,-1.5187,-1.5322,-1.5558,-1.5792,-1.5614,-1.5424,-1.5647,-1.5659,-1.5748,-1.5792,-1.5792,-2.0656,-2.0795,-2.1182,-2.2069,-2.3245,-2.4487,-2.4927,-2.4876,-2.4941,-2.4767,-2.4707,-2.537,-2.5594,-2.5594,-2.6082,-2.6327,-2.6251,-2.6251,-2.6239,-2.6226,-2.6389,-2.6414,-2.6383,-2.5955,-2.5511,-2.5121,-2.4637,-2.4015,-2.3769,-2.3344,-2.3143,-2.3077,-2.3022,-2.2735,-2.2288,-2.1535,-2.076,-2.011,-1.958,-1.9223,-1.9081,-1.8923,-1.8939,-1.9291,-1.9368,-1.9546,-1.9683,-1.9901,-2.0055,-2.0055,-2.0055,-2.022,-2.0422,-2.051,-2.0497,-2.056,-2.056,-2.0409,-2.0207,-2.0295,-2.0434,-2.0445,-2.0508,-2.0333,-2.008,-1.9965,-1.9643,-1.9396,-1.9146,-1.8999,-1.904,-1.904,-1.8999,-1.8999,-1.8987,-1.8987,-1.8999,-1.8893,-1.8851,-1.8744,-1.8691,-1.82,-1.779,-1.7322,-1.6401,-1.5675,-1.5148,-1.4667,-1.4392,-1.4298,-1.4247,-1.4562,-1.4686,-1.4777,-1.4744,-1.4269,-1.3952,-1.3813,-1.371,-1.3587,-1.3573,-1.361,-1.3847,-1.4212,-1.4536,-1.4915,-1.5096,-1.5187,-1.5051,-1.5006,-1.5096,-1.5367,-1.5513,-1.5647,-1.5792,-2.0054,-2.0331,-2.0695,-2.1085,-2.1686,-2.3053,-2.3688,-2.3916,-2.4001,-2.4028,-2.4128,-2.4826,-2.5312,-2.5523,-2.6094,-2.6521,-2.6521,-2.6521,-2.6521,-2.6521,-2.6521,-2.6314,-2.5955,-2.5475,-2.4779,-2.4272,-2.3546,-2.2908,-2.2342,-2.2523,-2.2655,-2.2783,-2.2652,-2.2347,-2.1879,-2.1268,-2.0458,-1.9776,-1.9202,-1.9105,-1.904,-1.9016,-1.9016,-1.9146,-1.9202,-1.9396,-1.9186,-1.9291,-1.9552,-1.954,-1.9604,-1.9708,-1.9965,-2.0055,-2.0042,-2.0055,-2.0003,-1.9798,-1.9604,-1.954,-1.9683,-1.9812,-1.9991,-1.9862,-1.9552,-1.9408,-1.9251,-1.904,-1.8946,-1.8946,-1.8999,-1.8999,-1.8987,-1.8987,-1.8893,-1.8893,-1.8839,-1.8744,-1.8398,-1.8398,-1.8159,-1.7679,-1.7165,-1.6611,-1.5935,-1.5339,-1.4771,-1.4303,-1.383,-1.3693,-1.3683,-1.3999,-1.4083,-1.4014,-1.3972,-1.3782,-1.3498,-1.3334,-1.3238,-1.3152,-1.3142,-1.318,-1.3324,-1.3515,-1.4025,-1.4398,-1.4536,-1.4536,-1.4351,-1.4305,-1.4351,-1.472,-1.5175,-1.5457,-1.5647,-1.9173,-1.9271,-2.0307,-2.076,-2.0873,-2.153,-2.2214,-2.281,-2.3589,-2.3667,-2.3501,-2.4625,-2.5169,-2.5441,-2.6164,-2.6452,-2.6521,-2.6521,-2.6383,-2.6333,-2.6121,-2.5787,-2.5308,-2.4814,-2.3779,-2.2711,-2.1958,-2.1511,-2.0733,-2.1395,-2.2115,-2.264,-2.2543,-2.2152,-2.163,-2.1046,-2.0229,-1.9558,-1.9293,-1.916,-1.9035,-1.8987,-1.8987,-1.904,-1.9093,-1.9093,-1.904,-1.9093,-1.9093,-1.9093,-1.9093,-1.9093,-1.904,-1.904,-1.8987,-1.904,-1.9146,-1.9146,-1.9146,-1.9146,-1.9028,-1.9162,-1.9069,-1.8958,-1.8917,-1.8946,-1.8893,-1.8839,-1.8786,-1.8893,-1.8946,-1.8934,-1.8934,-1.8827,-1.8732,-1.8679,-1.8625,-1.8398,-1.7941,-1.7722,-1.7501,-1.7048,-1.665,-1.6061,-1.5605,-1.493,-1.4347,-1.3781,-1.3361,-1.3055,-1.3152,-1.345,-1.3405,-1.3085,-1.3065,-1.3172,-1.3123,-1.2958,-1.2813,-1.2764,-1.2754,-1.2803,-1.2987,-1.3228,-1.3647,-1.3873,-1.3789,-1.3742,-1.3637,-1.3647,-1.3742,-1.4154,-1.4663,-1.513,-1.5322,-1.9365,-1.9225,-2.0111,-2.0138,-1.9691,-2.0215,-2.0861,-2.1621,-2.1869,-2.2129,-2.27,-2.3605,-2.4436,-2.5358,-2.6107,-2.644,-2.6427,-2.6383,-2.6025,-2.575,-2.5213,-2.4632,-2.3991,-2.3246,-2.2332,-2.168,-2.1011,-2.0498,-2.0217,-2.0687,-2.1504,-2.2321,-2.2235,-2.191,-2.1392,-2.0933,-2.027,-1.9727,-1.9456,-1.9227,-1.9059,-1.8999,-1.8987,-1.8987,-1.8987,-1.8987,-1.8987,-1.8987,-1.8987,-1.8987,-1.8987,-1.8987,-1.8987,-1.8987,-1.8987,-1.8987,-1.904,-1.904,-1.8999,-1.8893,-1.8839,-1.8774,-1.8774,-1.8697,-1.8655,-1.8667,-1.8625,-1.8691,-1.8679,-1.8732,-1.8786,-1.8827,-1.8721,-1.8614,-1.8398,-1.8116,-1.8007,-1.7611,-1.7213,-1.6933,-1.6652,-1.6425,-1.5975,-1.5783,-1.5302,-1.4611,-1.397,-1.3481,-1.2965,-1.2713,-1.2647,-1.2987,-1.2997,-1.2715,-1.2666,-1.2774,-1.2676,-1.2578,-1.248,-1.248,-1.252,-1.2618,-1.2657,-1.2852,-1.317,-1.3084,-1.29,-1.2949,-1.3074,-1.3084,-1.318,-1.3695,-1.4154,-1.4617,-1.4858,-1.9054,-1.894,-1.9779,-1.9934,-1.9696,-1.9903,-2.0203,-2.0348,-2.0493,-2.0991,-2.1509,-2.2469,-2.3534,-2.4695,-2.5586,-2.5827,-2.5333,-2.5462,-2.5107,-2.4115,-2.3928,-2.3271,-2.2511,-2.1856,-2.1263,-2.0669,-2.0101,-1.9648,-1.9557,-1.9873,-2.0613,-2.1451,-2.1651,-2.1407,-2.1067,-2.0878,-2.0526,-1.9949,-1.9528,-1.9287,-1.9119,-1.8987,-1.8987,-1.8987,-1.8987,-1.8934,-1.8987,-1.8934,-1.8987,-1.8987,-1.8987,-1.8987,-1.8987,-1.8987,-1.8987,-1.8987,-1.8987,-1.8934,-1.8893,-1.8851,-1.8744,-1.8637,-1.8518,-1.8506,-1.8452,-1.8452,-1.8518,-1.853,-1.8518,-1.856,-1.8614,-1.8614,-1.8506,-1.8344,-1.7941,-1.749,-1.7146,-1.6765,-1.6425,-1.6093,-1.5864,-1.5642,-1.541,-1.5313,-1.4974,-1.4364,-1.39,-1.3443,-1.2894,-1.2473,-1.241,-1.2559,-1.2569,-1.2471,-1.2421,-1.2421,-1.2421,-1.2382,-1.2323,-1.2323,-1.2323,-1.2372,-1.2421,-1.2461,-1.2608,-1.252,-1.2471,-1.251,-1.2647,-1.2657,-1.2715,-1.2987,-1.3505,-1.4107,-1.4212,-1.8392,-1.8464,-1.9334,-1.9854,-2.0246,-2.0122,-1.9637,-1.9054,-1.9334,-1.9846,-2.0402,-2.1348,-2.2581,-2.3807,-2.467,-2.4542,-2.4213,-2.4142,-2.3708,-2.2412,-2.2389,-2.1933,-2.137,-2.1005,-2.026,-1.9699,-1.9359,-1.9165,-1.892,-1.9253,-1.989,-2.0268,-2.0805,-2.0745,-2.0362,-2.0496,-2.0135,-1.9394,-1.8979,-1.8714,-1.8917,-1.8987,-1.8934,-1.8881,-1.8827,-1.8762,-1.8827,-1.8827,-1.8934,-1.8881,-1.8881,-1.8881,-1.8709,-1.8709,-1.8709,-1.8721,-1.8548,-1.8494,-1.8333,-1.829,-1.8247,-1.8193,-1.8247,-1.7952,-1.7788,-1.8182,-1.8302,-1.8356,-1.8356,-1.8224,-1.8224,-1.8104,-1.7995,-1.76,-1.7101,-1.6754,-1.6415,-1.6026,-1.5642,-1.542,-1.5186,-1.502,-1.497,-1.4852,-1.4693,-1.4146,-1.383,-1.347,-1.3083,-1.254,-1.2369,-1.2386,-1.2283,-1.2332,-1.2323,-1.2323,-1.2274,-1.2224,-1.2166,-1.2175,-1.2224,-1.2175,-1.2076,-1.2224,-1.2323,-1.2224,-1.2175,-1.2264,-1.2363,-1.2372,-1.2372,-1.2421,-1.2852,-1.3457,-1.3552,-1.8371,-1.8433,-1.887,-1.9305,-1.9592,-1.8967,-1.8338,-1.765,-1.7522,-1.8564,-2.0095,-2.0875,-2.1732,-2.2768,-2.3214,-2.3056,-2.2898,-2.2707,-2.2217,-2.1468,-2.1054,-2.0572,-1.9831,-1.9586,-1.9145,-1.8887,-1.8748,-1.8893,-1.8895,-1.9177,-1.9507,-2.0031,-2.0246,-2.0034,-1.9548,-1.9682,-1.9132,-1.8566,-1.8147,-1.8267,-1.8709,-1.8483,-1.8321,-1.8213,-1.8093,-1.7875,-1.7929,-1.8159,-1.7929,-1.7754,-1.8147,-1.8038,-1.7644,-1.7644,-1.7644,-1.7589,-1.7667,-1.7667,-1.7556,-1.7457,-1.7312,-1.7134,-1.7011,-1.6832,-1.6989,-1.7733,-1.8084,-1.815,-1.8073,-1.7897,-1.7776,-1.76,-1.7368,-1.681,-1.6312,-1.6026,-1.569,-1.5352,-1.497,-1.4793,-1.4625,-1.4506,-1.4515,-1.4433,-1.4258,-1.4093,-1.3928,-1.3681,-1.3396,-1.2965,-1.2669,-1.2554,-1.2258,-1.2203,-1.2234,-1.2224,-1.2175,-1.2175,-1.2126,-1.2126,-1.2076,-1.2076,-1.2076,-1.2076,-1.2126,-1.2076,-1.2076,-1.2126,-1.2175,-1.2175,-1.2224,-1.2274,-1.2323,-1.2842,-1.2852,-1.7902,-1.792,-1.8476,-1.8816,-1.8927,-1.8502,-1.789,-1.7282,-1.7286,-1.7729,-1.8669,-1.9382,-2.0237,-2.1273,-2.1632,-2.1531,-2.1375,-2.1384,-2.0698,-2.0002,-1.9713,-1.9274,-1.8771,-1.8534,-1.865,-1.8482,-1.8414,-1.8549,-1.8787,-1.8721,-1.8921,-1.9201,-1.9217,-1.9116,-1.8698,-1.8408,-1.8119,-1.7652,-1.7255,-1.7623,-1.8321,-1.8093,-1.8038,-1.7929,-1.7765,-1.7424,-1.7313,-1.7534,-1.7424,-1.7313,-1.76,-1.7589,-1.7368,-1.7313,-1.7268,-1.7213,-1.7157,-1.6955,-1.6842,-1.6627,-1.6452,-1.6446,-1.64,-1.6436,-1.6992,-1.7636,-1.7296,-1.7264,-1.7134,-1.6989,-1.6989,-1.681,-1.6528,-1.6083,-1.5806,-1.5517,-1.5245,-1.4852,-1.4684,-1.4625,-1.4515,-1.4515,-1.4515,-1.4515,-1.4332,-1.4102,-1.3956,-1.378,-1.3524,-1.323,-1.2941,-1.265,-1.2326,-1.2136,-1.2135,-1.2126,-1.2126,-1.2076,-1.2076,-1.2076,-1.2076,-1.2076,-1.2076,-1.2026,-1.2026,-1.2076,-1.2076,-1.2076,-1.2076,-1.2126,-1.2175,-1.2166,-1.2224,-1.2274,-1.2323,-1.7081,-1.7262,-1.7951,-1.8302,-1.8292,-1.8221,-1.775,-1.7179,-1.7423,-1.7131,-1.6779,-1.7582,-1.8205,-1.9136,-2.0042,-1.9824,-1.9745,-1.9864,-1.9141,-1.8687,-1.8454,-1.8436,-1.8436,-1.8279,-1.8269,-1.8347,-1.8279,-1.8212,-1.8202,-1.8202,-1.8162,-1.8006,-1.7991,-1.8006,-1.7636,-1.7511,-1.7402,-1.6967,-1.6765,-1.6978,-1.7313,-1.7589,-1.7644,-1.7754,-1.782,-1.7567,-1.72,-1.7112,-1.7112,-1.6931,-1.6885,-1.6765,-1.6708,-1.6652,-1.6708,-1.6652,-1.6492,-1.6446,-1.6322,-1.6093,-1.6171,-1.6283,-1.6206,-1.6379,-1.682,-1.6809,-1.644,-1.6345,-1.6222,-1.6296,-1.6296,-1.614,-1.5806,-1.5468,-1.5235,-1.5128,-1.4793,-1.4515,-1.4515,-1.4515,-1.4455,-1.4455,-1.4455,-1.4455,-1.4328,-1.409,-1.3887,-1.3741,-1.3528,-1.3121,-1.2802,-1.2604,-1.2378,-1.2252,-1.22,-1.2026,-1.2026,-1.2076,-1.2076,-1.2076,-1.2076,-1.2076,-1.2026,-1.1927,-1.1927,-1.1977,-1.1968,-1.1968,-1.2017,-1.2026,-1.1868,-1.1868,-1.2076,-1.2076,-1.2076,-1.6367,-1.6729,-1.7136,-1.7302,-1.7252,-1.6944,-1.6574,-1.6284,-1.6178,-1.591,-1.5891,-1.6247,-1.691,-1.7593,-1.8039,-1.8066,-1.8094,-1.8344,-1.8175,-1.7644,-1.7782,-1.7958,-1.7978,-1.7878,-1.8017,-1.7997,-1.7939,-1.8037,-1.7773,-1.7842,-1.7803,-1.7556,-1.7517,-1.7219,-1.6525,-1.6437,-1.6384,-1.611,-1.6077,-1.6259,-1.6775,-1.6877,-1.6539,-1.6539,-1.6492,-1.628,-1.6264,-1.6717,-1.6659,-1.6303,-1.5988,-1.5838,-1.5758,-1.5816,-1.5826,-1.5874,-1.571,-1.5584,-1.5468,-1.5303,-1.5359,-1.5396,-1.5243,-1.5164,-1.5479,-1.5479,-1.5319,-1.5467,-1.5508,-1.5938,-1.5918,-1.5672,-1.5352,-1.502,-1.4743,-1.4743,-1.4575,-1.4515,-1.4455,-1.4446,-1.4387,-1.4327,-1.4198,-1.4198,-1.4189,-1.3969,-1.3595,-1.3414,-1.327,-1.2932,-1.257,-1.2463,-1.2253,-1.244,-1.2452,-1.2068,-1.1977,-1.2026,-1.1968,-1.176,-1.176,-1.2076,-1.1977,-1.156,-1.1669,-1.1769,-1.1819,-1.161,-1.176,-1.171,-1.1519,-1.1519,-1.1719,-1.1769,-1.161]}]]